[[{"header":{"parameterUnit":"m.s-1","parameterCategory":1,"la1":31.0,"la2":29.5877,"lo1":-88.7671,"lo2":-86.6584,"dy":0.0162,"dx":0.0185,"nx":115,"ny":88,"refTime":"2024-11-22T06:00:00:Z","depth":0,"parameterNumber":2,"parameterNumberName":"U-component_of_WINDS"},"data":[0.0,0.0,0.0,0.0,0.0,0.0,0.0,0.0,0.0,0.0,0.0,0.0,0.0,0.0,0.0,0.0,0.0,0.0,0.0,0.0,0.0,0.0,0.0,0.0,0.0,0.0,0.0,0.0,0.0,0.0,0.0,0.0,0.0,0.0,0.0,0.0,0.0,0.0,0.0,0.0,0.0,0.0,0.0,0.0,0.0,0.0,0.0,0.0,0.0,0.0,0.0,0.0,0.0,0.0,0.0,0.0,0.0,0.0,0.0,0.0,0.0,0.0,0.0,0.0,0.0,0.0,0.0,0.0,0.0,0.0,0.0,0.0,0.0,0.0,0.0,0.0,0.0,0.0,0.0,0.0,0.0,0.0,0.0,0.0,0.0,0.0,0.0,0.0,0.0,0.0,0.0,0.0,0.0,0.0,0.0,0.0,0.0,0.0,0.0,0.0,0.0,0.0,0.0,0.0,0.0,0.0,0.0,0.0,0.0,0.0,0.0,0.0,0.0,0.0,0.0,0.0,0.0,0.0,0.0,0.0,0.0,0.0,0.0,0.0,0.0,0.0,0.0,0.0,0.0,0.0,0.0,0.0,0.0,0.0,0.0,0.0,0.0,0.0,0.0,0.0,0.0,0.0,0.0,0.0,0.0,0.0,0.0,0.0,0.0,0.0,0.0,0.0,0.0,0.0,0.0,0.0,0.0,0.0,0.0,0.0,0.0,0.0,0.0,0.0,0.0,0.0,0.0,0.0,0.0,0.0,0.0,0.0,0.0,0.0,0.0,0.0,0.0,0.0,0.0,0.0,0.0,0.0,0.0,0.0,0.0,0.0,0.0,0.0,0.0,0.0,0.0,0.0,0.0,0.0,0.0,0.0,0.0,0.0,0.0,0.0,0.0,0.0,0.0,0.0,0.0,0.0,0.0,0.0,0.0,0.0,0.0,0.0,0.0,0.0,0.0,0.0,0.0,0.0,0.0,0.0,0.0,0.0,0.0,0.0,0.0,0.0,0.0,0.0,0.0,0.0,0.0,0.0,0.0,0.0,0.0,0.0,0.0,0.0,0.0,0.0,0.0,0.0,0.0,0.0,0.0,0.0,0.0,0.0,0.0,0.0,0.0,0.0,0.0,0.0,0.0,0.0,0.0,0.0,0.0,0.0,0.0,0.0,0.0,0.0,0.0,0.0,0.0,0.0,0.0,0.0,0.0,0.0,0.0,0.0,0.0,0.0,0.0,0.0,0.0,0.0,0.0,0.0,0.0,0.0,0.0,0.0,0.0,0.0,0.0,0.0,0.0,0.0,0.0,0.0,0.0,0.0,0.0,0.0,0.0,0.0,0.0,0.0,0.0,0.0,0.0,0.0,0.0,0.0,0.0,0.0,0.0,0.0,0.0,0.0,0.0,0.0,0.0,0.0,0.0,0.0,0.0,0.0,0.0,0.0,0.0,0.0,0.0,0.0,0.0,0.0,0.0,0.0,0.0,0.0,0.0,0.0,0.0,0.0,0.0,0.0,0.0,0.0,0.0,0.0,0.0,0.0,0.0,0.0,0.0,0.0,0.0,0.0,0.0,0.0,0.0,0.0,0.0,0.0,0.0,0.0,0.0,0.0,0.0,0.0,0.0,0.0,0.0,0.0,0.0,0.0,0.0,0.0,0.0,0.0,0.0,0.0,0.0,0.0,0.0,0.0,0.0,0.0,0.0,0.0,0.0,0.0,0.0,0.0,0.0,0.0,0.0,0.0,0.0,0.0,0.0,0.0,0.0,0.0,0.0,0.0,0.0,0.0,0.0,0.0,0.0,0.0,0.0,0.0,0.0,0.0,0.0,0.0,0.0,0.0,0.0,0.0,0.0,0.0,0.0,0.0,0.0,0.0,0.0,0.0,0.0,0.0,0.0,0.0,0.0,0.0,0.0,0.0,0.0,0.0,0.0,0.0,0.0,0.0,0.0,0.0,0.0,0.0,0.0,0.0,0.0,0.0,0.0,0.0,0.0,0.0,0.0,0.0,0.0,0.0,0.0,0.0,0.0,0.0,0.0,0.0,0.0,0.0,0.0,0.0,0.0,0.0,0.0,0.0,0.0,0.0,0.0,0.0,0.0,0.0,0.0,0.0,0.0,0.0,0.0,0.0,0.0,0.0,0.0,0.0,0.0,0.0,0.0,0.0,0.0,0.0,0.0,0.0,0.0,0.0,0.0,0.0,0.0,0.0,0.0,0.0,0.0,0.0,0.0,0.0,0.0,0.0,0.0,0.0,0.0,0.0,0.0,0.0,0.0,0.0,0.0,0.0,0.0,0.0,0.0,0.0,0.0,0.0,0.0,0.0,0.0,0.0,0.0,0.0,0.0,0.0,0.0,0.0,0.0,0.0,0.0,0.0,0.0,0.0,0.0,0.0,0.0,0.0,0.0,0.0,0.0,0.0,0.0,0.0,0.0,0.0,0.0,0.0,0.0,0.0,0.0,0.0,0.0,0.0,0.0,0.0,0.0,0.0,0.0,0.0,0.0,0.0,0.0,0.0,0.0,0.0,0.0,0.0,0.0,0.0,0.0,0.0,0.0,0.0,0.0,0.0,0.0,0.0,0.0,0.0,0.0,0.0,0.0,0.0,0.0,0.0,0.0,0.0,0.0,0.0,0.0,0.0,0.0,0.0,0.0,0.0,0.0,0.0,0.0,0.0,0.0,0.0,0.0,0.0,0.0,0.0,0.0,0.0,0.0,0.0,0.0,0.0,0.0,0.0,0.0,0.0,0.0,0.0,0.0,0.0,0.0,0.0,0.0,0.0,0.0,0.0,0.0,0.0,0.0,0.0,0.0,0.0,0.0,0.0,0.0,0.0,0.0,0.0,0.0,0.0,0.0,0.0,0.0,0.0,0.0,0.0,0.0,0.0,0.0,0.0,0.0,0.0,0.0,0.0,0.0,0.0,0.0,0.0,0.0,0.0,0.0,0.0,0.0,0.0,0.0,0.0,0.0,0.0,0.0,0.0,0.0,0.0,0.0,0.0,0.0,0.0,0.0,0.0,0.0,0.0,0.0,0.0,0.0,0.0,0.0,0.0,0.0,0.0,0.0,0.0,0.0,0.0,0.0,0.0,0.0,0.0,0.0,0.0,0.0,0.0,0.0,0.0,0.0,0.0,0.0,0.0,0.0,0.0,0.0,0.0,0.0,0.0,0.0,0.0,0.0,0.0,0.0,0.0,0.0,0.0,0.0,0.0,0.0,0.0,0.0,0.0,0.0,0.0,0.0,0.0,0.0,0.0,0.0,0.0,0.0,0.0,0.0,0.0,0.0,0.0,0.0,0.0,0.0,0.0,0.0,0.0,0.0,0.0,0.0,0.0,0.0,0.0,0.0,0.0,0.0,0.0,0.0,0.0,0.0,0.0,0.0,0.0,0.0,0.0,0.0,0.0,0.0,0.0,0.0,0.0,0.0,0.0,0.0,0.0,0.0,0.0,0.0,0.0,0.0,0.0,0.0,0.0,0.0,0.0,0.0,0.0,0.0,0.0,0.0,0.0,0.0,0.0,0.0,0.0,0.0,0.0,0.0,0.0,0.0,0.0,0.0,0.0,0.0,0.0,0.0,0.0,0.0,0.0,0.0,0.0,0.0,0.0,0.0,0.0,0.0,0.0,0.0,0.0,0.0,0.0,0.0,0.0,0.0,0.0,0.0,0.0,0.0,0.0,0.0,0.0,0.0,0.0,0.0,0.0,0.0,0.0,0.0,0.0,0.0,0.0,0.0,0.0,0.0,0.0,0.0,0.0,0.0,0.0,0.0,0.0,0.0,0.0,0.0,0.0,0.0,0.0,0.0,0.0,0.0,0.0,0.0,0.0,0.0,0.0,0.0,0.0,0.0,0.0,0.0,0.0,0.0,0.0,0.0,0.0,0.0,0.0,0.0,0.0,0.0,0.0,0.0,0.0,0.0,0.0,0.0,0.0,0.0,0.0,0.0,0.0,0.0,0.0,0.0,0.0,0.0,0.0,0.0,0.0,0.0,0.0,0.0,0.0,0.0,0.0,0.0,0.0,0.0,0.0,0.0,0.0,0.0,0.0,0.0,0.0,0.0,0.0,0.0,0.0,0.0,0.0,0.0,0.0,0.0,0.0,0.0,0.0,0.0,0.0,0.0,0.0,0.0,0.0,0.0,0.0,0.0,0.0,0.0,0.0,0.0,0.0,0.0,0.0,0.0,0.0,0.0,0.0,0.0,0.0,0.0,0.0,0.0,0.0,0.0,0.0,0.0,0.0,0.0,0.0,0.0,0.0,0.0,0.0,0.0,0.0,0.0,0.0,0.0,0.0,0.0,0.0,0.0,0.0,0.0,0.0,0.0,0.0,0.0,0.0,0.0,0.0,0.0,0.0,0.0,0.0,0.0,0.0,0.0,0.0,0.0,0.0,0.0,0.0,0.0,0.0,0.0,0.0,0.0,0.0,0.0,0.0,0.0,0.0,0.0,0.0,0.0,0.0,0.0,0.0,0.0,0.0,0.0,0.0,0.0,0.0,0.0,0.0,0.0,0.0,0.0,0.0,0.0,0.0,0.0,0.0,0.0,0.0,0.0,0.0,0.0,0.0,0.0,0.0,0.0,0.0,0.0,0.0,0.0,0.0,0.0,0.0,0.0,0.0,0.0,0.0,0.0,0.0,0.0,0.0,0.0,0.0,0.0,0.0,0.0,0.0,0.0,0.0,0.0,0.0,0.0,0.0,0.0,0.0,0.0,0.0,0.0,0.0,0.0,0.0,0.0,0.0,0.0,0.0,0.0,0.0,0.0,0.0,0.0,0.0,0.0,0.0,0.0,0.0,0.0,0.0,0.0,0.0,0.0,0.0,0.0,0.0,0.0,0.0,0.0,0.0,0.0,0.0,0.0,0.0,0.0,0.0,0.0,0.0,0.0,0.0,0.0,0.0,0.0,0.0,0.0,0.0,0.0,0.0,0.0,0.0,0.0,0.0,0.0,0.0,0.0,0.0,0.0,0.0,0.0,0.0,0.0,0.0,0.0,0.0,0.0,0.0,0.0,0.0,0.0,0.0,0.0,0.0,0.0,0.0,0.0,0.0,0.0,0.0,0.0,0.0,0.0,0.0,0.0,0.0,0.0,0.0,0.0,0.0,0.0,0.0,0.0,0.0,0.0,0.0,0.0,0.0,0.0,0.0,0.0,0.0,0.0,0.0,0.0,0.0,0.0,0.0,0.0,0.0,0.0,0.0,0.0,0.0,0.0,0.0,0.0,0.0,0.0,0.0,0.0,0.0,0.0,0.0,0.0,0.0,0.0,0.0,0.0878,0.0591,0.0,0.0,0.0,0.0,0.0,0.0,0.0,0.0,0.0,0.0,0.0,0.0,0.0,0.0,0.0,0.0,0.0,0.0,0.0,0.0,0.0,0.0,0.0,0.0,0.0,0.0,0.0,0.0,0.0,0.0,0.0,0.0,0.0,0.0,0.0,0.0,0.0,0.0,0.0,0.0,0.0,0.0,0.0,0.0,0.0,0.0,0.0,0.0,0.0,0.0,0.0,0.0,0.0,0.0,0.0,0.0,0.0,0.0,0.0,0.0,0.0,0.0,0.0,0.0,0.0,0.0,0.0,0.0,0.0,0.0,0.0,0.0,0.0,0.0,0.0,0.0,0.0,0.0,0.0,0.0,0.0,0.0,0.0,0.0,0.0,0.0,0.0,0.0,0.0,0.0,0.0,0.0,0.0,0.0,0.0,0.0,0.0,0.0,0.0,0.0,0.0,0.0,0.0,0.0,0.0,0.0,0.0,0.0,0.0,0.0,0.0,0.1137,0.3473,0.3511,0.0,0.0,0.0,0.0,0.0,0.0,0.0,0.0,0.0,0.0,0.0,0.0,0.0,0.0,0.0,0.0,0.0,0.0,0.0,0.0,0.0,0.0,0.0,0.0,0.0,0.0,0.0,0.0,0.0,0.0,0.0,0.0,0.0,0.0,0.0,0.0,0.0,0.0,0.0,0.0,0.0,0.0,0.0,0.0,0.0,0.0,0.0,0.0,0.0,0.0,0.0,0.0,0.0,0.0,0.0,0.0,0.0,0.0,0.0,0.0,0.0,0.0,0.0,0.0,0.0,0.0,0.0,0.0,0.0,0.0,0.0,0.0,0.0,0.0,0.0,0.0,0.0,0.0,0.0,0.0,0.0,0.0,0.0,0.0,0.0,0.0,0.0,0.0,0.0,0.0,0.0,0.0,0.0,0.0,0.0,0.0,0.0,0.0,0.0,0.0,0.0,0.0,0.0,0.0,0.0,0.0,0.0,0.0,0.0,0.0,0.0,0.0,0.2054,0.3108,0.3623,0.34,0.0,0.0,0.0,0.0,0.0,0.0,0.0,0.0,0.0,0.0,0.0,0.0,0.0,0.0,0.0,0.0,0.0,0.0,0.0,0.0,0.0,0.0,0.0,0.0,0.0,0.0,0.0,0.0,0.0,0.0,0.0,0.0,0.0,0.0,0.0,0.0,0.0,0.0,0.0,0.0,0.0,0.0,0.0,0.0,0.0,0.0,0.0,0.0,0.0,0.0,0.0,0.0,0.0,0.0,0.0,0.0,0.0,0.0,0.0,0.0,0.0,0.0,0.0,0.0,0.0,0.0,0.0,0.0,0.0,0.0,0.0,0.0,0.0,0.0,0.0,0.0,0.0,0.0,0.0,0.0,0.0,0.0,0.0,0.0,0.0,0.0,0.0,0.0,0.0,0.0,0.0,0.0,0.0,0.0,0.0,0.0,0.0,0.0,0.0,0.0,0.0,0.0,0.0,0.0,0.0,0.0,0.0,0.0,0.0,0.0,0.2594,0.2671,0.2822,0.3513,0.3905,0.3876,0.0,0.0,0.0,0.0,0.0,0.0,0.0,0.0,0.0,0.0,0.0,0.0,0.0,0.0,0.0,0.0,0.0,0.0,0.0,0.0,0.0,0.0,0.0,0.0,0.0,0.0,0.0,0.0,0.0,0.0,0.0,0.0,0.0,0.0,0.0,0.0,0.0,0.0,0.0,0.0,0.0,0.0,0.0,0.0,0.0,0.0,0.0,0.0,0.0,0.0,0.0,0.0,0.0,0.0,0.0,0.0,0.0,0.0,0.0,0.0,0.0,0.0,0.0,0.0,0.0,0.0,0.0,0.0,0.0,0.0,0.0,0.0,0.0,0.0,0.0,0.0,0.0,0.0,0.0,0.0,0.0,0.0,0.0,0.0,0.0,0.0,0.0,0.0,0.0,0.0,0.0,0.0,0.0,0.0,0.0,0.0,0.0,0.0,0.0,0.0,0.0,0.0,0.0,0.0,0.0,0.0,0.0,0.0,0.0,0.2597,0.2818,0.3222,0.3675,0.3898,0.0,0.0,0.0,0.0,0.0,0.0,0.0,0.0,0.0,0.0,0.0,0.0,0.0,0.0,0.0,0.0,0.0,0.0,0.0,0.0,0.0,0.0,0.0,0.0,0.0,0.0,0.0,0.0,0.0,0.0,0.0,0.0,0.0,0.0,0.0,0.0,0.0,0.0,0.0,0.0,0.0,0.0,0.0,0.0,0.0,0.0,0.0,0.0,0.0,0.0,0.0,0.0,0.0,0.0,0.0,0.0,0.0,0.0,0.0,0.0,0.0,0.0,0.0,0.0,0.0,0.0,0.0,0.0,0.0,0.0,0.0,0.0,0.0,0.0,0.0,0.0,0.0,0.0,0.0,0.0,0.0,0.0,0.0,0.0,0.0,0.0,0.0,0.0,0.0,0.0,0.0,0.0,0.0,0.0,0.0,0.0,0.0,0.0,0.0,0.0,0.0,0.0,0.0,0.0,0.0,0.0,0.0,0.0,0.0,0.2536,0.2596,0.2434,0.212,0.2728,0.3332,0.0,0.0,0.0,0.0,0.0,0.0,0.0,0.0,0.0,0.0,0.0,0.0,0.0,0.0,0.0,0.0,0.0,0.0,0.0,0.0,0.0,0.0,0.0,0.0,0.0,0.0,0.0,0.0,0.0,0.0,0.0,0.0,0.0,0.0,0.0,0.0,0.0,0.0,0.0,0.0,0.0,0.0,0.0,0.0,0.0,0.0,0.0,0.0,0.0,0.0,0.0,0.0,0.0,0.0,0.0,0.0,0.0,0.0,0.0,0.0,0.0,0.0,0.0,0.0,0.0,0.0,0.0,0.0,0.0,0.0,0.0,0.0,0.0,0.0,0.0,0.0,0.0,0.0,0.0,0.0,0.0,0.0,0.0,0.0,0.0,0.0,0.0,0.0,0.0,0.0,0.0,0.0,0.0,0.0,0.0,0.0,0.0,0.0,0.0,0.0,0.0,0.0,0.0,0.0,0.0,0.0,0.0,0.0,0.0,0.1837,0.0,0.1928,0.0,0.1998,0.2442,0.0,0.0,0.0,0.0,0.0,0.0,0.0,0.0,0.0,0.0,0.0,0.0,0.0,0.0,0.0,0.0,0.0,0.0,0.0,0.0,0.0,0.0,0.0,0.0,0.0,0.0,0.0,0.0,0.0,0.0,0.0,0.0,0.0,0.0,0.0,0.0,0.0,0.0,0.0,0.0,0.0,0.0,0.0,0.0,0.0,0.0,0.0,0.0,0.0,0.0,0.0,0.0,0.0,0.0,0.0,0.0,0.0,0.0,0.0,0.0,0.0,0.0,0.0,0.0,0.0,0.0,0.0,0.0,0.0,0.0,0.0,0.0,0.0,0.0,0.0,0.0,0.0,0.0,0.0,0.0,0.0,0.0,0.0,0.0,0.0,0.0,0.0,0.0,0.0,0.0,0.0,0.0,0.0,0.0,0.0,0.0,0.0,0.0,0.0,0.0,0.0,0.0,0.0,0.0,0.0,0.0,0.0,0.0,0.0438,0.0494,0.1043,0.1327,0.1313,0.1613,0.1241,0.0,0.0,0.0,0.0,0.0,0.0,0.0,0.0,0.0,0.0,0.0,0.0,0.0,0.0,0.0,0.0,0.0,0.0,0.0,0.0,0.0,0.0,0.0,0.0,0.0,0.0,0.0,0.0,0.0,0.0,0.0,0.0,0.0,0.0,0.0,0.0,0.0,0.0,0.0,0.0,0.0,0.0,0.0,0.0,0.0,0.0,0.0,0.0,0.0,0.0,0.0,0.0,0.0,0.0,0.0,0.0,0.0,0.0,0.0,0.0,0.0,0.0,0.0,0.0,0.0,0.0,0.0,0.0,0.0,0.0,0.0,0.0,0.0,0.0,0.0,0.0,0.0,0.0,0.0,0.0,0.0,0.0,0.0,0.0,0.0,0.0,0.0,0.0,0.0,0.0,0.0,0.0,0.0,0.0,0.0,0.0,0.0,0.0,0.0,0.0,0.0,0.0,0.0,0.0,0.0,0.0,0.0,0.0,0.0,0.1896,0.1343,0.1194,0.1527,0.0913,0.0581,0.0,0.0,0.0,0.0,0.0,0.0,0.0,0.0,0.0,0.0,0.0,0.0,0.0,0.0,0.0,0.0,0.0,0.0,0.0,0.0,0.0,0.0,0.0,0.0,0.0,0.0,0.0,0.0,0.0,0.0,0.0,0.0,0.0,0.0,0.0,0.0,0.0,0.0,0.0,0.0,0.0,0.0,0.0,0.0,0.0,0.0,0.0,0.0,0.0,0.0,0.0,0.0,0.0,0.0,0.0,0.0,0.0,0.0,0.0,0.0,0.0,0.0,0.0,0.0,0.0,0.0,0.0,0.0,0.0,0.0,0.0,0.0,0.0,0.0,0.0,0.0,0.0,0.0,0.0,0.0,0.0,0.0,0.0,0.0,0.0,0.0,0.0,0.0,0.0,0.0,0.0,0.0,0.0,0.0,0.0,0.0,0.0,0.0,0.0,0.0,0.0,0.0,0.0,0.0,0.0,0.0,0.0,0.0,0.0,0.3099,0.2465,0.1994,0.1803,0.1057,0.0595,0.0564,0.0,0.0,0.0,0.0,0.0,0.0,0.0,0.0,0.0,0.0,0.0,0.0,0.0,0.0,0.0,0.0,0.0,0.0,0.0,0.0,0.0,0.0,0.0,0.0,0.0,0.0,0.0,0.0,0.0,0.0,0.0,0.0,0.0,0.0,0.0,0.0,0.0,0.0,0.0,0.0,0.0,0.0,0.0,0.0,0.0,0.0,0.0,0.0,0.0,0.0,0.0,0.0,0.0,0.0,0.0,0.0,0.0,0.0,0.0,0.0,0.0,0.0,0.0,0.0,0.0,0.0,0.0,0.0,0.0,0.0,0.0,0.0,0.0,0.0,0.0,0.0,0.0,0.0,0.0,0.0,0.0,0.0,0.0,0.0,0.0,0.0,0.0,0.0,0.0,0.0,0.0,0.0,0.0,0.0,0.0,0.0,0.0,0.0,0.0,0.0,0.0,0.0,0.0,0.0,0.0,0.0,0.0,0.0,0.423,0.4238,0.359,0.2181,0.1881,0.122,0.0,0.0,0.0,0.0,0.0,0.0,0.0,0.0,0.0,0.0,0.0,0.0,0.0,0.0,0.0,0.0,0.0,0.0,0.0,0.0,0.0,0.0,0.0,0.0,0.0,0.0,0.0,0.0,0.0,0.0,0.0,0.0,0.0,0.0,0.0,0.0,0.0,0.0,0.0,0.0,0.0,0.0,0.0,0.0,0.0,0.0,0.0,0.0,0.0,0.0,0.0,0.0,0.0,0.0,0.0,0.0,0.0,0.0,0.0,0.0,0.0,0.0,0.0,0.0,0.0,0.0,0.0,0.0,0.0,0.0,0.0,0.0,0.0,0.0,0.0,0.0,0.0,0.0,0.0,0.0,0.0,0.0,0.0,0.0,0.0,0.0,0.0,0.0,0.0,0.0,0.0,0.0,0.0,0.0,0.0,0.0,0.0,0.0,0.0,0.0,0.0,0.0,0.0,0.0,0.0,0.0,0.0,0.0,0.0,0.5796,0.6104,0.5424,0.3667,0.2805,0.2016,0.0,0.0,0.0,0.0,0.0,0.0,0.0,0.0,0.0,0.0,0.0,0.0,0.0,0.0,0.0,0.0,0.0,0.0,0.0,0.0,0.0,0.0,0.0,0.0,0.0,0.0,0.0,0.0,0.0,0.0,0.0,0.0,0.0,0.0,0.0,0.0,0.0,0.0,0.0,0.0,0.0,0.0,0.0,0.0,0.0,0.0,0.0,0.0,0.0,0.0,0.0,0.0,0.0,0.0,0.0,0.0,0.0,0.0,0.0,0.0,0.0,0.0,0.0,0.0,0.0,0.0,0.0,0.0,0.0,0.0,0.0,0.0,0.0,0.0,0.0,0.0,0.0,0.0,0.0,0.0,0.0,0.0,0.0,0.0,0.0,0.0,0.0,0.0,0.0,0.0,0.0,0.0,0.0,0.0,0.0,0.0,0.0,0.0,0.0,0.0,0.0,0.0,0.0,0.0,0.0,0.0,0.0,0.0,0.4864,0.5916,0.7101,0.7084,0.5691,0.4412,0.3204,0.0,0.0,0.0,0.0,0.0,0.0,0.0,0.0,0.0,0.0,0.0,0.0,0.0,0.0,0.0,0.0,0.0,0.0,0.0,0.0,0.0,0.0,0.0,0.0,0.0,0.0,0.0,0.0,0.0,0.0,0.0,0.0,0.0,0.0,0.0,0.0,0.0,0.0,0.0,0.0,0.0,0.0,0.0,0.0,0.0,0.0,0.0,0.0,0.0,0.0,0.0,0.0,0.0,0.0,0.0,0.0,0.0,0.0,0.0,0.0,0.0,0.0,0.0,0.0,0.0,0.0,0.0,0.0,0.0,0.0,0.0,0.0,0.0,0.0,0.0,0.0,0.0,0.0,0.0,0.0,0.0,0.0,0.0,0.0,0.0,0.0,0.0,0.0,0.0,0.0,0.0,0.0,0.0,0.0,0.0,0.0,0.0,0.0,0.0,0.0,0.0,0.0,0.0,0.0,0.0,0.0,0.0,0.0,0.5339,0.5511,0.7669,0.848,0.7826,0.619,0.4452,0.0,0.0,0.0,0.0,0.0,0.0,0.0,0.0,0.0,0.0,0.0,0.0,0.0,0.0,0.0,0.0,0.0,0.0,0.0,0.0,0.0,0.0,0.0,0.0,0.0,0.0,0.0,0.0,0.0,0.0,0.0,0.0,0.0,0.0,0.0,0.0,0.0,0.0,0.0,0.0,0.0,0.0,0.0,0.0,0.0,0.0,0.0,0.0,0.0,0.0,0.0,0.0,0.0,0.0,0.0,0.0,0.0,0.0,0.0,0.0,0.0,0.0,0.0,0.0,0.0,0.0,0.0,0.0,0.0,0.0,0.0,0.0,0.0,0.0,0.0,0.0,0.0,0.0,0.0,0.0,0.0,0.0,0.0,0.0,0.0,0.0,0.0,0.0,0.0,0.0,0.0,0.0,0.0,0.0,0.0,0.0,0.0,0.0,0.0,0.0,0.0,0.0,0.0,0.0,0.0,0.0,0.0,0.0,0.6186,0.7958,0.8547,0.8748,0.8577,0.6545,0.4562,0.0,0.0,0.0,0.0,0.0,0.0,0.0,0.0,0.0,0.0,0.0,0.0,0.0,0.0,0.0,0.0,0.0,0.0,0.0,0.0,0.0,0.0,0.0,0.0,0.0,0.0,0.0,0.0,0.0,0.0,0.0,0.0,0.0,0.0,0.0,0.0,0.0,0.0,0.0,0.0,0.0,0.0,0.0,0.0,0.0,0.0,0.0,0.0,0.4893,0.0,0.0,0.0,0.0,0.0,0.0,0.0,0.0,0.0,0.0,0.0,0.0,0.0,0.0,0.0,0.0,0.0,0.0,0.0,0.0,0.0,0.0,0.0,0.0,0.0,0.0,0.0,0.0,0.0,0.0,0.0,0.0,0.0,0.0,0.0,0.0,0.0,0.0,0.0,0.0,0.0,0.0,0.0,0.0,0.0,0.0,0.0,0.0,0.0,0.0,0.0,0.0,0.0,0.0,0.0,0.0,0.0,0.0,0.0,0.6156,0.7909,0.8514,0.8959,0.9193,0.7628,0.5927,0.0,0.0,0.0,0.0,0.0,0.0,0.0,0.0,0.0,0.0,0.0,0.0,0.0,0.0,0.0,0.0,0.0,0.0,0.0,0.0,0.0,0.0,0.0,0.0,0.0,0.0,0.0,0.0,0.0,0.0,0.0,0.0,0.0,0.0,0.0,0.0,0.0,0.0,0.0,0.0,0.0,0.0,0.0,0.0,0.0,0.0,0.0,0.0,0.0,0.0,0.0,0.0,0.0,0.0,0.0,0.0,0.0,0.0,0.0,0.0,0.0,0.0,0.0,0.0,0.0,0.0,0.0,0.0,0.0,0.0,0.0,0.0,0.0,0.0,0.0,0.0,0.0,0.0,0.0,0.0,0.0,0.0,0.0,0.0,0.0,0.0,0.0,0.0,0.0,0.0,0.0,0.0,0.0,0.0,0.0,0.0,0.0,0.0,0.0,0.0,0.0,0.0,0.0,0.0,0.0,0.0,0.0,0.4776,0.5939,0.7268,0.8287,0.9057,0.9592,0.8543,0.7315,0.5967,0.0,0.0,0.0,0.0,0.0,0.0,0.0,0.0,0.0,0.0,0.0,0.0,0.0,0.0,0.0,0.0,0.0,0.0,0.0,0.0,0.0,0.0,0.0,0.0,0.0,0.0,0.0,0.0,0.0,0.0,0.0,0.0,0.0,0.0,0.0,0.0,0.0,0.0,0.4728,0.6475,0.0,0.0,0.0,0.0,0.0,0.0,0.0,0.0,1.5971,0.0,0.0,0.0,0.0,0.0,0.0,0.0,0.0,0.0,0.0,0.0,0.0,0.0,0.0,0.0,0.0,0.0,0.0,0.0,0.0,0.0,0.0,0.0,0.0,0.0,0.0,0.0,0.0,0.0,0.0,0.0,0.0,0.0,0.0,0.0,0.0,0.0,0.0,0.0,0.0,0.0,0.0,0.0,0.0,0.0,0.0,0.0,0.0,0.0,0.0,0.0,0.0,0.0,0.0,0.0,0.0,0.4963,0.5184,0.6329,0.845,0.8704,0.886,0.8925,0.7913,0.6926,0.6021,0.0,0.0,0.0,0.0,0.0,0.0,0.0,0.0,0.0,0.0,0.0,0.0,0.0,0.0,0.0,0.0,0.0,0.0,0.0,0.0,0.0,0.0,0.0,0.0,0.0,0.0,0.0,0.0,0.0,0.0,0.0,0.0,0.0,0.0,0.0,0.0,0.0,0.0,0.0,1.4044,1.8032,0.0,0.0,0.0,0.0,0.0,0.0,0.0,0.0,1.9856,0.0,0.0,0.0,0.0,0.0,0.0,0.0,0.0,0.0,0.0,0.0,0.0,0.0,0.0,0.0,0.0,0.0,0.0,0.0,0.0,0.0,0.0,0.0,0.0,0.0,0.0,0.0,0.0,0.0,0.0,0.0,0.0,0.0,0.0,0.0,0.0,0.0,0.0,0.0,0.0,0.0,0.0,0.0,0.0,0.0,0.0,0.0,0.0,0.0,0.0,0.0,0.0,0.0,0.0,0.0,0.5244,0.5875,0.7037,0.8734,0.8808,0.8959,0.9284,0.8321,0.7418,0.0,0.0,0.0,0.0,0.0,0.0,0.0,0.0,0.0,0.0,0.0,0.0,0.0,0.0,0.0,0.0,0.0,0.0,0.0,0.0,0.0,0.0,0.0,0.0,0.0,0.0,0.0,0.0,0.0,0.0,0.0,0.0,0.0,0.0,0.0,0.0,0.0,0.0,0.0,0.0,1.579,1.9841,1.0566,0.0,0.0,0.0,0.0,0.0,0.0,1.8509,2.0154,0.0,0.0,0.0,0.0,0.0,0.0,0.0,0.0,0.0,0.0,0.0,0.0,0.0,0.0,0.0,0.0,0.0,0.0,0.0,0.0,0.0,0.0,0.0,0.0,0.0,0.0,0.0,0.0,0.0,0.0,0.0,0.0,0.0,0.0,0.0,0.0,0.0,0.0,0.0,0.0,0.0,0.0,0.0,0.0,0.0,0.0,0.0,0.0,0.0,0.0,0.0,0.0,0.0,0.0,0.0,0.5564,0.6657,0.7864,0.9145,0.9211,0.9462,0.999,0.8864,0.7879,0.0,0.0,0.0,0.0,0.0,0.0,0.0,0.0,0.0,0.0,0.0,0.0,0.0,0.0,0.0,0.0,0.0,0.0,0.0,0.0,0.0,0.0,0.0,0.0,0.0,0.0,0.0,0.0,0.0,0.0,0.0,0.0,0.0,0.0,0.0,0.0,0.0,0.0,0.0,0.0,0.0,1.7752,1.2734,1.1543,0.0,0.0,0.0,0.0,1.4806,1.8874,0.0,0.0,0.0,0.0,0.0,0.0,0.0,0.0,0.0,0.0,0.0,0.0,0.0,0.0,0.0,0.0,0.0,0.0,0.0,0.0,0.0,0.0,0.0,0.0,0.0,0.0,0.0,0.0,0.0,0.0,0.0,0.0,0.0,0.0,0.0,0.0,0.0,0.0,0.0,0.0,0.0,0.0,0.0,0.0,0.0,0.0,0.0,0.0,0.0,0.0,0.0,0.0,0.0,0.0,0.0,0.0,0.6357,0.7417,0.8807,1.0483,1.0568,1.0618,1.0641,0.901,0.7848,0.0,0.0,0.0,0.0,0.0,0.0,0.0,0.0,0.0,0.0,0.0,0.0,0.0,0.0,0.0,0.0,0.0,0.0,0.0,0.0,0.0,0.0,0.0,0.0,0.0,0.0,0.0,0.0,0.0,0.0,0.0,0.0,0.0,0.0,0.0,0.0,0.0,0.0,0.0,0.0,0.0,1.3374,2.1324,1.892,1.4771,0.0,0.0,1.1792,1.7964,1.4907,0.0,0.0,0.0,0.0,0.0,0.0,0.0,0.0,0.0,0.0,0.0,0.0,0.0,0.0,0.0,0.0,0.0,0.0,0.0,0.0,0.0,0.0,0.0,0.0,0.0,0.0,0.0,0.0,0.0,0.0,0.0,0.0,0.0,0.0,0.0,0.0,0.0,0.0,0.0,0.0,0.0,0.0,0.0,0.0,0.0,0.0,0.0,0.0,0.0,0.0,0.0,0.0,0.0,0.0,0.0,0.6405,0.6047,0.8368,0.9819,1.0238,1.0618,1.0813,1.0809,0.9048,0.7822,0.0,0.0,0.0,0.0,0.0,0.0,0.0,0.0,0.0,0.0,0.0,0.0,0.0,0.0,0.0,0.0,0.0,0.0,0.0,0.0,0.0,0.0,0.0,0.0,0.0,0.0,0.0,0.0,0.0,0.0,0.0,0.0,0.0,0.0,0.0,0.0,0.0,0.0,0.0,0.0,0.0,0.0,2.2832,2.246,0.0,0.0,0.0,1.2047,1.8508,0.0,0.0,0.0,0.0,0.0,0.0,0.0,0.0,0.0,0.0,0.0,0.0,0.0,0.0,0.0,0.0,0.0,0.0,0.0,0.0,0.0,0.0,0.0,0.0,0.0,0.0,0.0,0.0,0.0,0.0,0.0,0.0,0.0,0.0,0.0,0.0,0.0,0.0,0.0,0.0,0.0,0.0,0.0,0.0,0.0,0.0,0.0,0.0,0.0,0.0,0.0,0.0,0.0,0.0,0.0,0.0,0.0,0.5872,0.9081,1.0665,1.0312,1.1107,1.1557,1.1522,1.0272,0.0,0.0,0.0,0.0,0.0,0.0,0.0,0.0,0.0,0.0,0.0,0.0,0.0,0.0,0.0,0.0,0.0,0.0,0.0,0.0,0.0,0.0,0.0,0.0,0.0,0.0,0.0,0.1497,0.0,0.0,0.0,0.0,0.0,0.0,0.0,0.0,0.0,0.0,0.0,0.0,0.0,0.0,1.3225,2.2859,2.4199,2.1644,0.0,0.0,1.2045,1.8448,2.2121,2.2583,0.0,0.0,0.0,0.0,0.0,0.0,0.0,0.0,0.0,0.0,0.0,0.0,0.0,0.0,0.0,0.0,0.0,0.0,0.0,0.0,0.0,0.0,0.0,0.0,0.0,0.0,0.0,0.0,0.0,0.0,0.0,0.0,0.0,0.0,0.0,0.0,0.0,0.0,0.0,0.0,0.0,0.0,0.0,0.0,0.0,0.0,0.0,0.0,0.0,0.0,0.0,0.0,0.0,0.0,0.0,0.6701,0.9383,1.1065,1.1661,1.2943,1.3621,1.3621,1.3647,1.2258,0.0,0.0,0.0,0.0,0.0,0.0,0.0,0.0,0.0,0.0,0.0,0.0,0.0,0.0,0.0,0.0,0.0,0.0,0.0,0.0,0.0,0.0,0.0,0.0,0.0,0.0,0.0,0.0,0.0,0.0,0.0,0.0,0.0,0.0,0.0,0.0,0.0,0.0,0.0,0.0,0.0,1.3216,2.2859,2.4199,2.2382,0.0,0.0,1.2229,1.837,2.2078,2.4052,2.3594,0.0,0.0,0.0,0.0,0.0,0.0,0.0,0.0,0.0,0.0,0.0,0.0,0.0,0.0,0.0,0.0,0.0,0.0,0.0,0.0,0.0,0.0,0.0,0.0,0.0,0.0,0.0,0.0,0.0,0.0,0.0,0.0,0.0,0.0,0.0,0.0,0.0,0.0,0.0,0.0,0.0,0.0,0.0,0.0,0.0,0.0,0.0,0.0,0.0,0.0,0.0,0.0,0.0,0.6033,0.6729,0.9818,1.1562,1.181,1.2779,1.3415,1.3774,1.4468,1.3077,0.0,0.0,0.0,0.0,0.0,0.0,0.0,0.0,0.0,0.0,0.0,0.0,0.0,0.0,0.0,0.0,0.0,0.0,0.0,0.0,0.0,0.0,0.0,0.0,0.0,0.0,0.0,0.0,1.1333,1.1333,1.1324,0.0,0.0,0.0,0.0,0.0,0.0,0.0,0.0,0.0,0.0,1.2738,2.1768,2.3698,0.0,0.0,1.861,1.9096,2.0119,2.2492,2.4199,2.4199,1.6244,0.0,0.0,0.0,0.0,0.0,0.0,0.0,0.0,0.0,0.0,0.0,0.0,0.0,0.0,0.0,0.0,0.0,0.0,0.0,0.0,0.0,0.0,0.0,0.0,0.0,0.0,0.0,0.0,0.0,0.0,0.0,0.0,0.0,0.0,0.0,0.0,0.0,0.0,0.0,0.0,0.0,0.0,0.0,0.0,0.0,0.0,0.0,0.0,0.0,0.0,0.0,0.0,0.6435,0.6738,1.0076,1.1819,1.1819,1.2871,1.3658,1.4045,1.5113,1.4087,0.0,0.0,0.0,0.0,0.0,0.0,0.0,0.0,0.0,0.0,0.0,0.0,0.0,0.0,0.0,0.0,0.0,0.0,0.0,0.0,0.0,0.0,0.0,0.0,0.0,0.0,0.0,0.0,0.6647,0.4491,0.4491,0.0,0.0,0.0,0.0,0.0,0.0,0.0,0.0,0.0,0.0,1.4095,2.1744,2.3633,2.3043,1.9791,2.0418,2.1418,2.1822,2.1574,2.1009,2.0113,0.0,0.0,0.0,0.0,0.0,0.0,0.0,0.0,0.0,0.0,0.0,0.0,0.0,0.0,0.0,0.0,0.0,0.0,0.0,0.0,0.0,0.0,0.0,0.0,0.0,0.0,0.0,0.0,0.0,0.0,0.0,0.0,0.0,0.0,0.0,0.0,0.0,0.0,0.0,0.0,0.0,0.0,0.0,0.0,0.0,0.0,0.0,0.0,0.0,0.0,0.0,0.0,0.0,0.7337,0.6764,1.0076,1.1819,1.1864,1.3643,1.4606,1.4703,1.5826,1.5715,1.4129,0.0,0.0,0.0,0.0,0.0,0.0,0.0,0.0,0.0,0.0,0.0,0.0,0.0,0.0,0.0,0.0,0.0,0.0,0.0,0.0,0.0,0.0,0.0,0.0,0.0,0.0,2.105,1.1367,0.4423,0.0,0.0,0.0,0.0,0.0,0.0,0.0,0.0,0.0,0.0,1.2966,1.7825,2.3276,2.4115,2.2776,1.9755,1.6766,1.694,2.3024,1.8876,1.3715,0.0,0.0,0.0,0.0,0.0,0.0,0.0,0.0,0.0,0.0,0.0,0.0,0.0,0.0,0.0,0.0,0.0,0.0,0.0,0.0,0.0,0.0,0.0,0.0,0.0,0.0,0.0,0.0324,0.0861,0.0,0.0,0.0,0.0,0.0,0.0,0.0,0.0,0.0,0.0,0.0,0.5384,0.5184,0.0,0.0,0.0,0.0,0.0,0.0,0.0,0.0,0.0,0.0,0.0,0.0,0.7749,0.7535,1.0256,1.2021,1.2559,1.3532,1.4283,1.4703,1.5466,1.6309,1.7081,0.0,0.0,0.0,0.0,0.0,0.0,0.0,0.0,0.0,0.0,0.0,0.0,0.0,0.0,0.0,0.0,0.0,0.0,0.0,0.0,0.0,0.0,0.0,0.0,0.0,1.0457,0.0,0.0,0.0,0.0,0.0,0.0,0.0,0.0,0.0,0.0,0.0,1.3461,1.7308,1.6608,1.7489,2.2256,1.9954,1.8087,0.0,0.0,0.0,0.0,0.0,0.0,0.0,0.0,0.0,0.0,0.0,0.0,0.0,0.0,1.5621,1.1425,1.1583,1.1801,1.0028,0.0,0.0,0.0,0.0,0.0,0.0,0.0,0.0,0.0,0.0,0.0,0.0,0.0,0.0,0.0475,0.0,0.1723,0.0,0.0,0.0,0.0,0.0,0.0,0.0,0.0,0.5094,0.5584,0.6288,0.6373,0.6708,0.0,0.6327,0.5262,0.0,0.0,0.0,0.0,0.0,0.0,0.0,0.0,0.8237,0.7777,1.0647,1.2521,1.3213,1.3821,1.4422,1.5011,1.5959,1.7094,1.8366,1.6046,1.3135,0.0,0.0,0.0,0.0,0.0,0.0,0.0,0.0,0.0,0.0,0.0,0.0,0.0,0.0,0.0,0.0,0.0,0.0,0.0,0.0,0.0,0.0,0.0,0.6148,0.0,0.0,0.0,0.0,0.0,0.0,0.0,0.0,0.0,1.3117,1.2912,1.3761,1.7168,1.6458,1.6578,1.9207,0.0,0.0,0.0,0.0,0.0,0.0,0.0,1.5322,1.3178,1.9179,2.4199,2.4199,1.911,1.6306,2.0301,0.0,0.0,1.5509,1.4912,1.4964,1.4804,1.5536,1.6821,1.9014,1.6867,1.4912,0.0,0.0,0.0,0.0,0.0,0.0,0.0,0.0,-0.1725,-0.0,0.0,0.1548,0.0,0.0,0.0,0.0,0.0,0.4601,0.0,0.0,0.6654,0.7447,0.7114,0.7797,0.8222,0.8256,0.7074,0.6548,0.6693,0.5443,0.0,0.0,0.0,0.0,0.0,0.0,0.877,0.7735,1.107,1.3165,1.3788,1.4389,1.5011,1.567,1.7218,1.8106,1.8094,1.6739,1.7035,1.9224,1.0063,0.0,0.0,0.0,0.0,0.0,0.0,0.0,0.0,0.0,0.0,0.0,0.0,0.0,0.0,0.0,0.0,0.0,0.0,0.0,0.0,0.4831,0.0,0.0,0.0,0.0,0.0,0.0,0.0,0.0,0.0,0.0,2.0314,1.7701,1.3557,0.9738,0.0,0.0,0.0,0.0,1.4563,1.4744,1.7289,1.8188,1.5233,1.4628,1.3571,1.0846,0.0,0.0,2.4199,2.4144,2.3924,2.4153,2.4025,2.3189,2.0003,1.7858,1.8124,2.2648,2.1327,2.0657,2.3107,2.1354,1.9369,-1.7182,0.0,0.0,0.0,0.0,-1.0326,-1.0103,-0.7623,-0.7568,-0.5453,-0.2044,-0.1845,0.0,0.0,0.0,0.0,0.0,0.0,0.4544,0.5766,0.6296,0.7129,0.829,0.8971,0.9302,0.9332,0.9001,0.8868,0.8898,0.852,0.6862,0.4039,0.0,0.0,0.0,0.0,0.8384,0.8915,1.1475,1.3218,1.3773,1.4394,1.5404,1.6792,1.7653,1.8256,1.8643,1.8611,1.8087,1.703,1.59,0.0,0.0,0.0,0.0,0.0,0.0,0.0,0.0,0.0,0.0,0.0,0.0,0.0,0.0,0.0,0.0,0.0,0.0,0.0,0.5337,1.2129,1.5559,0.0,0.0,0.0,0.0,0.0,0.0,0.0,0.0,0.0,1.2365,1.5894,1.658,0.0,0.0,1.4271,1.9338,1.6891,1.5313,1.7582,1.8693,0.0,0.0,1.6004,1.5775,1.9418,2.2409,2.4199,2.4199,2.4199,2.4199,2.4199,2.4199,2.3859,2.3052,2.2336,2.2428,2.3786,2.34,2.3052,2.3869,2.3364,2.2749,-1.9512,-1.5001,-1.2195,-1.0315,-0.9442,-1.1919,-1.1963,-1.033,-1.0483,-0.8833,-0.5838,-0.3244,-0.071,0.1652,0.1833,0.0,0.0,0.0,0.5136,0.6399,0.6871,0.7713,0.8834,0.9514,0.9817,0.9817,0.9817,0.9817,0.9803,0.957,0.8311,0.6137,0.0,0.0,0.5426,0.7599,0.8876,0.9323,1.1882,1.3542,1.4136,1.5196,1.6219,1.7264,1.802,1.8574,1.8893,1.9406,1.9072,1.7715,1.8944,1.7038,0.0,0.0,0.0,0.0,0.0,0.0,0.0,0.0,0.0,0.0,0.0,1.6129,0.0,0.0,0.0,0.0,1.7011,1.7921,0.7232,1.1688,0.0,0.0,0.0,0.0,0.0,0.0,0.0,1.1646,0.9222,0.8375,1.0509,1.6411,1.8724,1.4031,1.2714,1.3834,1.8172,0.0,1.6096,2.0565,2.1244,2.0785,1.9482,1.7674,1.8207,2.3336,2.4199,2.4199,2.4199,2.4199,2.4199,2.4199,2.4199,2.4199,2.4199,2.4199,2.4199,2.4199,2.4199,2.4199,2.4199,2.4199,2.4199,-2.1532,-2.0392,-1.7446,-1.5136,-1.3299,-1.1459,-1.1745,-1.3255,-1.1179,-1.0408,-1.0132,-0.3394,0.0632,0.2359,0.2332,0.0,0.4124,0.5487,0.6268,0.6637,0.8046,0.8752,0.8804,0.9514,0.9766,0.9714,0.9766,0.9766,0.967,0.9283,0.8829,0.8368,0.9086,0.8468,0.6802,0.8922,0.9811,0.9224,1.2105,1.4019,1.4784,1.6403,1.7271,1.7347,1.8341,1.8885,1.8983,1.9442,1.9882,2.0212,1.9972,2.0189,2.0544,0.0,0.0,0.0,0.0,0.0,0.0,0.0,0.0,0.0,0.0,0.0,0.0,0.0,0.0,0.0,2.0898,0.0,0.9636,0.6453,0.0,0.0,0.0,1.6568,1.7684,1.604,1.5045,1.5544,0.0,0.0,1.3769,1.8894,2.0289,1.4836,1.4154,1.4186,1.4118,1.5095,1.7413,2.3133,2.4115,2.3088,2.0501,1.9785,2.0703,2.3639,2.4199,2.4199,2.4199,2.4199,2.4199,2.4199,2.4199,2.4199,2.4199,2.4199,2.4199,2.4199,2.4199,2.4199,2.4199,2.4199,2.4199,-2.0164,-1.9162,-1.805,-1.6704,-1.5299,-1.3685,-1.2393,-1.1436,-1.0897,-1.0161,-0.9005,-0.5119,-0.0629,0.3964,0.3921,0.408,0.4416,0.5284,0.6008,0.6637,0.7563,0.8265,0.8804,0.9514,0.9514,0.9057,0.9566,0.9566,0.9099,0.9926,0.9784,0.8872,0.992,0.9398,0.7248,0.8281,0.9133,0.9728,1.1382,1.3301,1.5318,1.6269,1.707,1.7914,1.8178,1.8688,1.9479,1.9639,1.9747,1.9846,2.0379,2.0797,2.0959,1.8493,0.0,0.0,0.0,0.0,0.0,0.0,0.0,0.0,0.0,1.0039,0.8838,0.0,1.5115,0.0,0.8728,0.8753,0.8894,0.8256,0.0,0.0,1.5685,1.9934,1.8048,1.7828,1.727,1.5756,1.765,1.9392,2.0103,2.1422,2.1803,2.0314,1.8257,1.7658,1.9773,2.1165,2.2191,2.3237,2.3855,2.3914,2.3125,2.3024,2.3235,2.4061,2.4199,2.4199,2.4199,2.4199,2.4199,2.4199,2.4199,2.4199,2.4199,2.4199,2.4199,2.4199,2.4199,2.4199,2.4199,2.4199,2.4199,-2.0119,-1.9344,-1.8351,-1.6881,-1.5161,-1.4194,-1.2961,-1.1589,-1.0379,-0.9208,-0.7967,-0.4136,-0.0608,0.2516,0.3871,0.4489,0.4532,0.5222,0.5706,0.6145,0.7182,0.7937,0.8321,0.905,0.9162,0.8811,0.9162,0.9155,0.891,1.0167,1.0467,0.979,1.1135,1.0807,0.8972,0.8732,0.8803,0.9077,1.1177,1.3452,1.5903,1.657,1.671,1.6407,1.6604,1.6548,1.6189,1.6181,1.6284,1.6552,1.7574,1.9212,2.1447,2.204,1.6246,0.0,0.0,0.0,0.0,0.0,0.0,0.0,0.0,0.0,0.0,0.0,1.5029,0.0,1.0081,1.3092,1.4716,1.4868,1.3743,1.0994,1.7616,2.1615,1.9993,2.0171,1.9951,1.8741,2.0779,2.2319,2.2319,2.2319,2.2319,2.2319,2.0873,2.0407,2.1942,2.2935,2.3312,2.3221,2.3294,2.3589,2.4083,2.4199,2.4199,2.4199,2.4199,2.4199,2.4199,2.4199,2.4199,2.4199,2.4199,2.4199,2.4199,2.4199,2.4199,2.4199,2.4199,2.4199,2.4199,2.4199,2.4199,-2.0477,-1.9797,-1.8349,-1.6394,-1.4229,-1.3976,-1.3191,-1.1996,-0.9566,-0.8057,-0.7018,-0.2532,-0.0391,0.0167,0.2963,0.4317,0.4531,0.5222,0.5542,0.5706,0.7069,0.7723,0.7886,0.8586,0.891,0.8808,0.8854,0.8962,0.8956,1.0167,1.0747,1.0764,1.1969,1.1968,1.0674,0.9633,0.8867,0.841,1.1505,1.4098,1.6134,1.686,1.613,1.4049,1.4054,1.3397,1.1895,1.1819,1.2016,1.2514,1.3436,1.6078,2.0659,2.0406,1.5401,0.0,0.4491,0.0,0.0,0.0,0.0,0.0,0.0,0.0,0.0,1.4531,1.2626,1.0754,1.7726,2.2319,2.2319,2.2319,2.0746,1.7075,1.9942,2.2319,2.231,2.2319,2.2319,2.2319,2.2319,2.2319,2.2319,2.2319,2.2319,2.231,2.2192,2.2107,2.2302,2.2358,2.2571,2.3111,2.2756,2.3009,2.3935,2.4199,2.4199,2.4199,2.4199,2.4199,2.4199,2.4199,2.4199,2.4199,2.4199,2.4199,2.4199,2.4199,2.4199,2.4199,2.4199,2.4199,2.4199,2.4199,2.4199,-1.9331,-1.8447,-1.7686,-1.6321,-1.4603,-1.4558,-1.2381,-0.8847,-0.7818,-0.7152,-0.6605,-0.4547,-0.2297,0.0056,0.184,0.3351,0.4534,0.5169,0.5814,0.6418,0.7289,0.7996,0.8643,0.9305,0.9312,0.8857,0.9361,0.9614,0.961,1.0419,1.0565,1.0101,1.0884,1.064,0.9419,0.0,0.0,0.0,1.3308,1.4766,1.4626,1.5924,1.521,1.228,1.0373,0.0,1.1703,1.1819,1.1891,1.2063,1.1062,0.0,0.0,0.0,0.0,0.0,0.0,0.0,0.0,0.0,0.0,0.0,1.6498,1.3888,1.6013,1.4531,1.5164,1.9342,2.1338,2.2319,2.2319,2.2319,2.1944,2.1219,2.1794,2.2319,2.2319,2.2319,2.2319,2.2319,2.2319,2.2319,2.2319,2.2319,2.2319,2.2319,2.2319,2.2319,2.2319,2.2319,2.2535,2.3038,2.303,2.3318,2.4083,2.419,2.4199,2.4199,2.4199,2.4199,2.4199,2.4199,2.4199,2.4199,2.4199,2.4199,2.4199,2.4199,2.419,2.4199,2.419,2.4199,2.4199,2.4199,2.4199,-1.9214,0.0,-1.7914,-1.6321,0.0,-1.3889,-1.1756,-0.8448,-0.805,-0.7016,-0.5457,-0.3999,-0.2516,-0.1001,0.0476,0.212,0.3829,0.4345,0.4983,0.5789,0.6497,0.7362,0.8268,0.8995,0.911,0.8808,0.9159,0.9462,0.9814,1.0462,1.0831,1.0839,1.155,1.1558,1.0979,1.1816,1.2266,1.2235,1.3426,1.441,1.5216,1.449,1.3724,1.2945,0.0,0.0,0.0,0.0,0.0,0.0,0.0,0.0,0.0,0.0,0.0,1.3083,1.3278,1.3295,1.3422,1.7104,2.0196,2.2099,1.9527,1.6982,1.5081,1.6656,1.9029,2.1972,2.2319,2.2319,2.2319,2.2319,2.2319,2.2319,2.2319,2.2319,2.2319,2.2319,2.2319,2.2319,2.2319,2.2319,2.2319,2.2319,2.2319,2.2319,2.2319,2.2319,2.2319,2.2319,2.2443,2.2747,2.3373,2.3692,2.3723,2.4016,2.419,2.4199,2.4199,2.4199,2.4199,2.4199,2.4199,2.4199,2.4199,2.4199,2.4199,2.4199,2.4132,2.3946,2.4045,2.4103,2.3946,2.4054,2.4199,-1.9464,-1.8848,-1.8334,-1.6545,-1.4042,-1.341,-1.1542,-0.8929,0.0,0.0,0.0,-0.3099,-0.2344,-0.1718,-0.0255,0.1322,0.2925,0.3502,0.4272,0.5189,0.5823,0.6764,0.7928,0.8732,0.9064,0.8811,0.9064,0.9413,0.9969,1.0513,1.122,1.1976,1.2608,1.3017,1.3296,1.4206,1.4546,1.4181,1.3648,1.4249,1.5965,1.3709,1.2857,1.376,1.425,1.3675,1.188,1.2169,1.2451,1.2583,1.2928,1.0981,0.6588,1.072,1.6081,2.1744,2.2319,2.2319,2.2268,1.924,1.8784,2.2099,2.2319,2.023,1.5301,1.9477,2.2319,2.2319,2.2319,2.2319,2.2319,2.2319,2.2319,2.2319,2.2319,2.2319,2.2319,2.2319,2.2319,2.2319,2.2319,2.2319,2.2319,2.2319,2.2319,2.2319,2.2319,2.2319,2.2319,2.2319,2.2319,2.2424,2.3091,2.3602,2.3271,2.341,2.3876,2.3937,2.4094,2.4132,2.3915,2.3873,2.3864,2.375,2.3864,2.3885,2.4025,2.4142,2.4025,2.3588,2.368,2.3792,2.3575,2.3837,2.419,-1.9844,-1.8855,-1.8334,-1.7283,-1.595,-1.4905,-1.2253,-0.87,-0.7502,-0.5784,-0.3773,-0.4047,-0.2739,-0.0223,0.1264,0.2076,0.2403,0.3763,0.5102,0.6339,0.6448,0.7245,0.8692,0.9909,0.9909,0.8959,0.9957,1.0568,1.0665,1.0767,1.1479,1.2618,1.2876,1.343,1.4381,1.4612,1.5182,1.6086,1.6003,1.5476,1.4475,1.5318,1.4567,1.2361,1.6467,1.6555,1.1997,1.1944,1.2128,1.2572,1.2668,1.2489,1.2248,1.3024,1.6052,2.1701,2.2319,2.2319,2.2319,2.1761,2.1701,2.2234,2.2319,2.1904,2.1194,2.1803,2.2319,2.2319,2.2319,2.2319,2.2319,2.2319,2.2319,2.2319,2.2319,2.2319,2.2319,2.2319,2.2319,2.2319,2.2319,2.2319,2.2319,2.2319,2.2319,2.2319,2.2319,2.2319,2.2319,2.2319,2.2319,2.2319,2.2432,2.2525,2.2543,2.2497,2.285,2.3268,2.3783,2.3759,2.285,2.2747,2.2712,2.2624,2.2721,2.2917,2.3432,2.3946,2.3896,2.3531,2.3113,2.2799,2.3135,2.3735,2.419,-1.978,-1.9192,-1.8437,-1.743,-1.6256,-1.4453,-1.1799,-0.8682,-0.7619,-0.6039,-0.4178,-0.4401,-0.3302,-0.1165,0.0369,0.1902,0.3493,0.4166,0.4894,0.5684,0.6101,0.6963,0.8237,0.9253,0.9413,0.8906,0.9762,1.0462,1.0817,1.1162,1.1882,1.2876,1.3238,1.3831,1.4658,1.5011,1.5594,1.6479,1.6528,1.6151,1.5457,1.7249,1.7246,1.5234,1.8207,1.8635,1.6203,1.6315,1.6519,1.6753,1.7239,1.7699,1.8194,1.8217,1.9452,2.2099,2.2319,2.2319,2.2319,2.2319,2.2319,2.2319,2.2319,2.2319,2.2319,2.2319,2.2319,2.2319,2.2319,2.2319,2.2319,2.2319,2.2319,2.2319,2.2319,2.2319,2.2319,2.2319,2.2319,2.2319,2.2319,2.2319,2.2319,2.2319,2.2319,2.2319,2.2319,2.2319,2.2319,2.2319,2.2319,2.2319,2.2319,2.2319,2.2319,2.2319,2.2424,2.2686,2.2968,2.2926,2.2366,2.2319,2.2319,2.2319,2.2319,2.2424,2.2833,2.3303,2.341,2.315,2.2695,2.2544,2.2974,2.3649,2.4142,-1.9844,-1.9498,-1.8507,-1.73,-1.5903,-1.4032,-1.1567,-0.893,-0.8158,-0.6696,-0.4899,-0.4595,-0.3642,-0.2158,-0.0668,0.1437,0.378,0.4357,0.4781,0.5307,0.5869,0.6801,0.7944,0.8844,0.911,0.8962,0.9766,1.0466,1.0864,1.1611,1.2374,1.3104,1.3605,1.4102,1.4703,1.532,1.5914,1.6466,1.6674,1.6723,1.6716,1.8436,1.8995,1.8408,1.9192,1.9697,1.9733,2.0007,2.0261,2.0483,2.111,2.1713,2.2245,2.2319,2.2319,2.2319,2.2319,2.2319,2.2319,2.2319,2.2319,2.2319,2.2319,2.2319,2.2319,2.2319,2.2319,2.2319,2.2319,2.2319,2.2319,2.2319,2.2319,2.2319,2.2319,2.2319,2.2319,2.2319,2.2319,2.2319,2.2319,2.2319,2.2319,2.2319,2.2319,2.2319,2.2319,2.2319,2.2319,2.2319,2.2319,2.2319,2.2319,2.2319,2.2319,2.2319,2.231,2.2319,2.2347,2.2394,2.2319,2.2319,2.2319,2.2319,2.2319,2.2338,2.2358,2.2669,2.2857,2.2652,2.2445,2.2388,2.2686,2.3218,2.3698,-2.0359,-1.9498,-1.8493,-1.6825,-1.4909,-1.4595,-1.2604,-0.9717,-0.8878,-0.7423,-0.538,-0.4757,-0.3642,-0.2119,-0.0662,0.0931,0.2575,0.3877,0.5156,0.6245,0.6495,0.7281,0.8633,0.9965,0.9965,0.9162,1.061,1.1216,1.0864,1.2087,1.3029,1.3632,1.3774,1.4138,1.4703,1.5315,1.5908,1.6472,1.7153,1.7429,1.7279,1.7908,1.8432,1.8841,1.9361,1.9697,1.9697,1.9754,2.0112,2.0829,2.0991,2.1454,2.218,2.2291,2.2319,2.2319,2.2319,2.2319,2.2319,2.2319,2.2319,2.2319,2.2319,2.2319,2.2319,2.2319,2.2319,2.2319,2.2319,2.2319,2.2319,2.2319,2.2319,2.2319,2.2319,2.2319,2.2319,2.2319,2.2319,2.2319,2.2319,2.2319,2.2319,2.2319,2.2319,2.2319,2.2319,2.2319,2.2319,2.2319,2.2319,2.2319,2.2319,2.2319,2.2319,2.2319,2.2319,2.2319,2.2319,2.2319,2.2319,2.2319,2.2319,2.2319,2.2319,2.2319,2.2319,2.2386,2.2405,2.2443,2.2349,2.231,2.2358,2.2525,2.265,-2.042,-1.9416,-1.8494,-1.6773,-1.4807,-1.4264,-1.2406,-0.9673,-0.8531,-0.7068,-0.5544,-0.4811,-0.3642,-0.212,-0.0671,0.0782,0.2287,0.3806,0.4809,0.5445,0.6209,0.6912,0.7608,0.8984,0.9312,0.8959,1.0462,1.107,1.1162,1.2536,1.3516,1.3868,1.4498,1.5,1.5281,1.5826,1.6238,1.6515,1.7429,1.786,1.788,1.8587,1.9009,1.8969,1.9406,1.9697,1.9697,1.9697,1.998,2.0558,2.0862,2.115,2.1524,2.2011,2.2319,2.2319,2.2319,2.2319,2.2319,2.2319,2.2319,2.2319,2.2319,2.2319,2.2319,2.2319,2.2319,2.2319,2.2319,2.2319,2.2319,2.2319,2.2319,2.2319,2.2319,2.2319,2.2319,2.2319,2.2319,2.2319,2.2319,2.2319,2.2319,2.2319,2.2319,2.2319,2.2319,2.2319,2.2319,2.2319,2.2319,2.2319,2.2319,2.2319,2.2319,2.2319,2.2319,2.2319,2.2319,2.2319,2.2319,2.2319,2.2319,2.2319,2.2319,2.2319,2.2319,2.2319,2.2319,2.2319,2.2319,2.2319,2.2319,2.2319,2.2319,-2.0364,-1.9306,-1.8177,-1.6526,-1.4699,-1.4196,-1.2469,-0.9987,-0.8482,-0.7127,-0.5764,-0.487,-0.3642,-0.2121,-0.0672,0.0783,0.2288,0.3812,0.4593,0.4901,0.6043,0.6699,0.702,0.8616,0.9166,0.9113,1.0576,1.1562,1.194,1.3077,1.3956,1.4365,1.518,1.5582,1.567,1.6188,1.6528,1.6595,1.7558,1.8099,1.8217,1.9169,1.9522,1.9207,1.9486,1.9697,1.9697,1.9697,1.9945,2.0475,2.0829,2.1095,2.1362,2.1961,2.2319,2.2319,2.2319,2.2319,2.2319,2.2319,2.2319,2.2319,2.2319,2.2319,2.2319,2.2319,2.2319,2.2319,2.2319,2.2319,2.2319,2.2319,2.2319,2.2319,2.2319,2.2319,2.2319,2.2319,2.2319,2.2319,2.2319,2.2319,2.2319,2.2319,2.2319,2.2319,2.2319,2.2319,2.2319,2.2319,2.2319,2.2319,2.2319,2.2319,2.2319,2.2319,2.2319,2.2319,2.2319,2.2319,2.2319,2.2319,2.2319,2.2319,2.2319,2.2319,2.2319,2.2319,2.2319,2.2319,2.2319,2.2319,2.2319,2.2319,2.2319,-2.0356,-1.9169,-1.7356,-1.591,-1.471,-1.4647,-1.3142,-1.0594,-0.9206,-0.7858,-0.6418,-0.5089,-0.3642,-0.212,-0.0671,0.0783,0.2289,0.3812,0.4809,0.5382,0.6204,0.6966,0.7777,0.9681,1.0016,0.9263,1.1347,1.3112,1.4226,1.4003,1.4411,1.5454,1.5588,1.5626,1.5764,1.6238,1.6515,1.6716,1.7585,1.8106,1.8256,1.9169,1.9682,1.9646,1.9682,1.9697,1.9697,1.9697,2.0077,2.0942,2.0959,2.1362,2.2115,2.2282,2.2319,2.2319,2.2319,2.2319,2.2319,2.2319,2.2319,2.2319,2.2319,2.2319,2.2319,2.2319,2.2319,2.2319,2.2319,2.2319,2.2319,2.2319,2.2319,2.2319,2.2319,2.2319,2.2319,2.2319,2.2319,2.2319,2.2319,2.2319,2.2319,2.2319,2.2319,2.2319,2.2319,2.2319,2.2319,2.2319,2.2319,2.2319,2.2319,2.2319,2.2319,2.2319,2.2319,2.2319,2.2319,2.2319,2.2319,2.2319,2.2319,2.2319,2.2319,2.2319,2.2319,2.2319,2.2319,2.2319,2.2319,2.2319,2.2319,2.2319,2.2319,-2.0032,-1.8489,-1.7436,-1.6127,-1.4733,-1.4687,-1.3238,-1.0754,-0.9306,-0.7914,-0.6529,-0.5091,-0.3642,-0.212,-0.0671,0.0783,0.2289,0.3812,0.4648,0.5007,0.6039,0.6956,0.7785,0.937,1.0214,1.0316,1.1525,1.2856,1.405,1.4277,1.4784,1.5549,1.6002,1.6306,1.6587,1.6533,1.6795,1.7504,1.7947,1.8256,1.8612,1.9332,1.9697,1.9697,1.9697,1.9697,1.9697,1.9697,1.9965,2.0524,2.0829,2.1393,2.218,2.2319,2.2319,2.2319,2.2319,2.2319,2.2319,2.2319,2.2319,2.2319,2.2319,2.2319,2.2319,2.2319,2.2319,2.2319,2.2319,2.2319,2.2319,2.2319,2.2319,2.2319,2.2319,2.2319,2.2319,2.2319,2.2319,2.2319,2.2319,2.2319,2.2319,2.2319,2.2319,2.2319,2.2319,2.2319,2.2319,2.2319,2.2319,2.2319,2.2319,2.2319,2.2319,2.2319,2.2319,2.2319,2.2319,2.2319,2.2319,2.2319,2.2319,2.2319,2.2319,2.2319,2.2319,2.2319,2.2319,2.2319,2.2319,2.2319,2.2319,2.2319,2.2319,-1.979,-1.8149,-1.7525,-1.6305,-1.4795,-1.4703,-1.3338,-1.1048,-0.9409,-0.8016,-0.6784,-0.5195,-0.3642,-0.2121,-0.0671,0.0783,0.2289,0.3756,0.4648,0.4899,0.6043,0.695,0.7838,0.9318,1.0218,1.0614,1.1412,1.2585,1.3998,1.4514,1.5101,1.5914,1.6331,1.6752,1.7153,1.6909,1.7242,1.7987,1.8256,1.8574,1.893,1.9406,1.9697,1.9697,1.9697,1.9697,1.9697,1.9697,1.9866,2.028,2.0756,2.1393,2.218,2.2319,2.2319,2.2319,2.2319,2.2319,2.2319,2.2319,2.2319,2.2319,2.2319,2.2319,2.2319,2.2319,2.2319,2.2319,2.2319,2.2319,2.2319,2.2319,2.2319,2.2319,2.2319,2.2319,2.2319,2.2319,2.2319,2.2319,2.2319,2.2319,2.2319,2.2319,2.2319,2.2319,2.2319,2.2319,2.2319,2.2319,2.2319,2.2319,2.2319,2.2319,2.2319,2.2319,2.2319,2.2319,2.2319,2.2319,2.2319,2.2319,2.2319,2.2319,2.2319,2.2319,2.2319,2.2319,2.2319,2.2319,2.2319,2.2319,2.2319,2.2319,2.2319,-1.9649,-1.8121,-1.7517,-1.6305,-1.4806,-1.4715,-1.359,-1.1589,-0.9552,-0.8266,-0.7242,-0.5403,-0.3642,-0.2122,-0.0671,0.0783,0.2288,0.3811,0.4807,0.5433,0.6256,0.7015,0.7868,0.9784,1.0568,1.032,1.1316,1.287,1.456,1.4744,1.5332,1.6287,1.6509,1.6873,1.7347,1.7347,1.7592,1.8178,1.865,1.8885,1.8968,1.9442,1.9697,1.9697,1.9697,1.9697,1.9697,1.9697,1.9866,2.0246,2.0731,2.1401,2.2143,2.2319,2.2319,2.2319,2.2319,2.2319,2.2319,2.2319,2.2319,2.2319,2.2319,2.2319,2.2319,2.2319,2.2319,2.2319,2.2319,2.2319,2.2319,2.2319,2.2319,2.2319,2.2319,2.2319,2.2319,2.2319,2.2319,2.2319,2.2319,2.2319,2.2319,2.2319,2.2319,2.2319,2.2319,2.2319,2.2319,2.2319,2.2319,2.2319,2.2319,2.2319,2.2319,2.2319,2.2319,2.2319,2.2319,2.2319,2.2319,2.2319,2.2319,2.2319,2.2319,2.2319,2.2319,2.2319,2.2319,2.2319,2.2319,2.2319,2.2319,2.2319,2.2319,-1.9597,-1.8139,-1.7942,-1.6642,-1.481,-1.4697,-1.3595,-1.1648,-0.9607,-0.8266,-0.729,-0.5405,-0.3642,-0.2121,-0.067,0.0837,0.2287,0.3802,0.4855,0.5546,0.6261,0.7275,0.8531,1.0037,1.1225,1.1945,1.2754,1.3653,1.4555,1.5101,1.5738,1.6417,1.6873,1.7312,1.778,1.7874,1.8256,1.9088,1.9013,1.9043,1.9406,1.961,1.9697,1.9697,1.9697,1.9697,1.9697,1.9697,1.9754,1.9902,2.0607,2.1385,2.2115,2.2319,2.2319,2.2319,2.2319,2.2319,2.2319,2.2319,2.2319,2.2319,2.2319,2.2319,2.2319,2.2319,2.2319,2.2319,2.2319,2.2319,2.2319,2.2319,2.2319,2.2319,2.2319,2.2319,2.2319,2.2319,2.2319,2.2319,2.2319,2.2319,2.2291,2.2291,2.2245,2.2319,2.2319,2.2319,2.2319,2.2319,2.2319,2.2319,2.2319,2.2291,2.2319,2.2319,2.2319,2.2319,2.2319,2.2319,2.2319,2.2319,2.2319,2.2319,2.2319,2.2319,2.2319,2.2319,2.2319,2.2319,2.2319,2.2319,2.2319,2.2319,2.2319,-1.9439,-1.8142,-1.8108,-1.6769,-1.4773,-1.4713,-1.3747,-1.1958,-0.9709,-0.8469,-0.7594,-0.5506,-0.3642,-0.2121,-0.067,0.1171,0.3016,0.4086,0.5016,0.5821,0.6312,0.7483,0.9103,1.0543,1.1733,1.2808,1.351,1.4029,1.4494,1.5246,1.5914,1.6509,1.7034,1.7544,1.8059,1.8334,1.8848,1.9522,1.9369,1.9376,1.961,1.9697,1.9697,1.9697,1.9697,1.9697,1.9697,1.9697,1.9782,2.0,2.0632,2.1393,2.2189,2.2319,2.2319,2.2319,2.2319,2.2319,2.2319,2.2319,2.2319,2.2319,2.2319,2.2319,2.2319,2.2319,2.2319,2.2319,2.2319,2.2319,2.2319,2.2319,2.2319,2.2319,2.2319,2.2319,2.2319,2.2319,2.2319,2.2319,2.2319,2.2319,2.2291,2.1915,2.2011,2.2189,2.2319,2.2319,2.2319,2.2319,2.216,2.2086,2.2143,2.218,2.2291,2.2319,2.2319,2.2319,2.2319,2.2319,2.2319,2.2319,2.2319,2.2319,2.2319,2.2319,2.2319,2.2319,2.2319,2.2319,2.2319,2.2319,2.2319,2.2319,2.2319,-1.9023,-1.8163,-1.8069,-1.6727,-1.4843,-1.4708,-1.3972,-1.254,-0.9921,-0.8664,-0.805,-0.5719,-0.3642,-0.212,-0.0167,0.2066,0.4095,0.4589,0.5344,0.6315,0.6853,0.7957,0.9795,1.1107,1.2089,1.2915,1.3595,1.3991,1.4222,1.5211,1.5914,1.6515,1.7111,1.7585,1.8138,1.865,1.9207,1.9603,1.9682,1.9682,1.9697,1.9697,1.9697,1.9697,1.9697,1.9697,1.9697,1.9818,2.0042,2.0356,2.0789,2.1393,2.2123,2.2319,2.2319,2.2319,2.2319,2.2319,2.2319,2.2319,2.2319,2.2319,2.2319,2.2319,2.2319,2.2319,2.2319,2.2319,2.2319,2.2319,2.2319,2.2319,2.2319,2.2319,2.2319,2.2319,2.2319,2.2319,2.2319,2.2319,2.2319,2.2319,2.2291,2.1615,2.1554,2.1721,2.1961,2.2028,2.1819,2.1593,2.1576,2.1546,2.1454,2.1615,2.1593,2.2262,2.2225,2.1886,2.2057,2.2319,2.2319,2.2319,2.2319,2.2319,2.2319,2.2319,2.2319,2.2319,2.2319,2.2319,2.2319,2.2319,2.2319,2.2319,2.2319,-1.8352,-1.8037,-1.7686,-1.641,-1.4834,-1.4715,-1.4025,-1.2598,-0.9913,-0.8667,-0.805,-0.5716,-0.3642,-0.1896,0.1617,0.3814,0.4487,0.5189,0.5832,0.6694,0.7741,0.8995,1.0403,1.1362,1.2187,1.2958,1.3868,1.431,1.4246,1.5578,1.6324,1.6515,1.7429,1.7954,1.8231,1.902,1.9522,1.969,1.9697,1.9697,1.9697,1.9697,1.9697,1.9697,1.9697,1.9697,1.979,2.0337,2.0673,2.0797,2.0926,2.1393,2.2217,2.2319,2.2319,2.2319,2.2319,2.2319,2.2319,2.2319,2.2319,2.2319,2.2319,2.2319,2.2319,2.2319,2.2319,2.2319,2.2319,2.2319,2.2319,2.2319,2.2319,2.2319,2.2319,2.2319,2.2319,2.2319,2.2319,2.2319,2.2291,2.2254,2.2152,2.1645,2.1023,2.0731,2.0926,2.1197,2.0894,2.0673,2.0573,2.0345,2.0285,2.0573,2.0999,2.1827,2.202,2.1524,2.1721,2.2319,2.2319,2.2319,2.2319,2.2319,2.2319,2.2319,2.2319,2.2319,2.2319,2.2319,2.2319,2.2319,2.2319,2.2319,2.2319,-1.8196,-1.8285,-1.7341,-1.6046,-1.4744,-1.4427,-1.3464,-1.1783,-0.9709,-0.8427,-0.7611,-0.5622,-0.3987,-0.2685,0.212,0.4442,0.4605,0.546,0.6159,0.6899,0.8623,1.0132,1.1216,1.1927,1.2501,1.2963,1.4113,1.4475,1.4693,1.604,1.6661,1.6795,1.778,1.8295,1.8138,1.9125,1.9697,1.9697,1.9697,1.9697,1.9697,1.9697,1.9697,1.9697,1.9697,1.9697,1.9826,2.054,2.0999,2.1063,2.1331,2.1789,2.2217,2.2319,2.2319,2.2319,2.2319,2.2319,2.2319,2.2319,2.2319,2.2319,2.2319,2.2319,2.2319,2.2319,2.2319,2.2319,2.2319,2.2319,2.2319,2.2319,2.2319,2.2319,2.2319,2.2319,2.2319,2.2319,2.2319,2.2245,2.2106,2.2049,2.2172,2.1376,2.0532,2.0015,2.0181,2.0139,1.9937,1.9754,1.9697,1.9697,1.9762,2.0154,2.0379,2.1007,2.1953,2.1554,2.1721,2.2262,2.2319,2.2319,2.2319,2.2319,2.2319,2.2319,2.2319,2.2319,2.2319,2.2319,2.2319,2.2319,2.2319,2.2319,2.2319,-1.8631,-1.8657,-1.7124,-1.5766,-1.4687,-1.3951,-1.2657,-1.0781,-0.9188,-0.8088,-0.7017,-0.5193,-0.3814,-0.3651,0.1784,0.4265,0.4548,0.5567,0.6581,0.7794,0.9511,1.1061,1.1931,1.2456,1.2774,1.3113,1.4118,1.4674,1.5152,1.6465,1.6999,1.7131,1.8192,1.8574,1.8528,1.9207,1.9654,1.9697,1.9697,1.9697,1.9697,1.9697,1.9697,1.9697,1.9697,1.9697,1.9925,2.0514,2.0999,2.0999,2.1819,2.2209,2.2319,2.2319,2.2319,2.2319,2.2319,2.2319,2.2319,2.2319,2.2319,2.2319,2.2319,2.2319,2.2319,2.2319,2.2319,2.2319,2.2319,2.2319,2.2319,2.2319,2.2319,2.2319,2.2319,2.2319,2.2291,2.2245,2.2189,2.2254,2.1773,2.1705,2.1446,2.087,1.9797,1.9826,1.9889,1.9854,1.9754,1.9726,1.9697,1.9697,1.9797,1.9925,2.0023,2.0162,2.1134,2.1691,2.1953,2.2319,2.2319,2.2319,2.2319,2.2319,2.2319,2.2319,2.2319,2.2319,2.2319,2.2319,2.2319,2.2319,2.2319,2.2319,2.2319,-2.0399,-1.8695,-1.7484,-1.6071,-1.4624,-1.3496,-1.2153,-1.0634,-0.8687,-0.7685,-0.664,-0.4114,-0.2174,-0.0835,0.1783,0.3298,0.4755,0.6048,0.7581,0.9875,1.0344,1.1529,1.2403,1.2876,1.2876,1.32,1.4113,1.484,1.542,1.649,1.7304,1.748,1.8284,1.8848,1.881,1.9288,1.9697,1.9697,1.9697,1.9697,1.9697,1.9697,1.9697,1.9697,1.9697,1.9697,1.9882,2.054,2.0975,2.1197,2.1781,2.2319,2.2319,2.2319,2.2319,2.2319,2.2319,2.2319,2.2319,2.2319,2.2319,2.2319,2.2319,2.2319,2.2319,2.2319,2.2319,2.2319,2.2319,2.2291,2.2077,2.2254,2.2254,2.2225,2.2262,2.2291,2.2189,2.1713,2.1743,2.1924,2.1593,2.0894,2.0431,2.0491,1.9945,1.9797,1.9697,1.9697,1.9697,1.9697,1.9697,1.9697,1.9769,1.9826,1.9861,2.0023,2.0804,2.1721,2.216,2.2319,2.2319,2.2319,2.2319,2.2319,2.2319,2.2319,2.2319,2.2319,2.2319,2.2319,2.2319,2.2319,2.2319,2.2319,2.2319,-2.1022,-1.8965,-1.7636,-1.5973,-1.4223,-1.32,-1.1653,-0.9896,-0.8702,-0.7281,-0.5878,-0.3906,-0.1339,0.2011,0.2962,0.4244,0.5775,0.7004,0.8731,1.0395,1.0859,1.1715,1.2982,1.306,1.3012,1.342,1.4247,1.4869,1.5611,1.6733,1.7442,1.7267,1.8518,1.8893,1.8727,1.9288,1.9697,1.9697,1.9697,1.9697,1.9697,1.9697,1.9697,1.9697,1.9697,1.9697,1.9797,2.0548,2.0804,2.0983,2.1675,2.2291,2.2291,2.2291,2.2291,2.2319,2.2319,2.2319,2.2319,2.2319,2.2319,2.2319,2.2319,2.2319,2.2319,2.2319,2.2319,2.2319,2.2225,2.2077,2.1283,2.2011,2.2077,2.1848,2.2057,2.2077,2.1653,2.1515,2.1515,2.1691,2.126,2.0607,2.0208,2.007,1.998,1.9733,1.9697,1.9697,1.9697,1.9697,1.9697,1.9697,1.9697,1.9733,1.9733,2.0023,2.0599,2.1493,2.2225,2.2319,2.2319,2.2319,2.2319,2.2319,2.2319,2.2319,2.2319,2.2319,2.2319,2.2319,2.2319,2.2319,2.2319,2.2319,2.2319,-2.1207,-1.9284,-1.7784,-1.5874,-1.3871,-1.2855,-1.1106,-0.9145,-0.8606,-0.6748,-0.4438,-0.3976,-0.0558,0.3138,0.4212,0.5525,0.7128,0.8376,0.9655,1.0902,1.1061,1.2096,1.3251,1.3377,1.3595,1.4133,1.4514,1.4949,1.5742,1.702,1.7626,1.7277,1.8696,1.9207,1.881,1.9169,1.9697,1.9697,1.9697,1.9697,1.9697,1.9697,1.9697,1.9697,1.9697,1.9697,1.9897,2.0481,2.0862,2.0524,2.1507,2.1982,2.2086,2.1924,2.2152,2.2189,2.2319,2.2319,2.2319,2.2319,2.2319,2.2319,2.2319,2.2319,2.2319,2.2319,2.2319,2.2319,2.2225,2.1721,2.0277,2.0862,2.1385,2.1252,2.1615,2.1424,2.1079,2.1493,2.1362,2.1454,2.0934,2.025,1.996,1.979,1.9762,1.9697,1.9697,1.9697,1.9697,1.9697,1.9697,1.9697,1.9697,1.9697,1.9697,1.9826,2.0439,2.1229,2.2094,2.2123,2.216,2.2319,2.2319,2.2319,2.2319,2.2319,2.2319,2.2319,2.2319,2.2319,2.2319,2.2319,2.2319,2.2319,2.2319,-2.1449,-1.9284,-1.8042,-1.6348,-1.431,-1.2132,-1.0637,-0.9445,-0.8234,-0.5751,-0.2872,-0.1166,0.0724,0.2735,0.4087,0.566,0.7573,0.9065,1.0406,1.1499,1.1747,1.2672,1.3669,1.3909,1.4486,1.5374,1.5347,1.5123,1.5941,1.7136,1.7814,1.8066,1.9058,1.945,1.9406,1.9646,1.9697,1.9697,1.9697,1.9697,1.9697,1.9697,1.9697,1.9697,1.9697,1.9697,1.9889,2.0506,2.0967,2.0934,2.1095,2.1229,2.1103,2.0599,2.1031,2.1991,2.2319,2.2319,2.2319,2.2319,2.2319,2.2319,2.2319,2.2319,2.2319,2.2319,2.2319,2.2319,2.2254,2.1848,2.0894,2.0632,2.0532,2.0624,2.0565,2.0473,2.0665,2.0632,2.0837,2.1291,2.0648,1.9995,1.9833,1.9697,1.9697,1.9697,1.9697,1.9697,1.9697,1.9697,1.9697,1.9697,1.9697,1.9697,1.9697,1.9826,2.0147,2.0934,2.1601,2.17,2.1827,2.2189,2.2291,2.2086,2.2189,2.2319,2.2319,2.2319,2.2319,2.2319,2.2319,2.2319,2.2319,2.2319,2.2319,-2.1695,-1.934,-1.8445,-1.6557,-1.4166,-1.2508,-1.1086,-0.99,-0.8619,-0.7203,-0.394,0.1107,0.4416,0.4803,0.5462,0.6856,0.8344,1.0428,1.1608,1.2332,1.2959,1.371,1.4619,1.4653,1.5534,1.625,1.6046,1.5872,1.6532,1.7524,1.794,1.802,1.9013,1.9574,1.942,1.9522,1.9697,1.9697,1.9697,1.9697,1.9697,1.9697,1.9697,1.9697,1.9697,1.9697,1.9854,2.0532,2.0731,2.0573,2.1206,2.1063,2.0499,2.0174,2.0481,2.1924,2.2319,2.2319,2.2319,2.2319,2.2319,2.2319,2.2319,2.2319,2.2319,2.2319,2.2319,2.2319,2.2282,2.2135,2.1683,2.0447,2.005,2.0112,1.996,1.9987,2.0112,1.9917,2.0379,2.1031,2.0614,2.0093,1.9797,1.9697,1.9697,1.9697,1.9697,1.9697,1.9697,1.9697,1.9697,1.9697,1.9697,1.9697,1.9833,2.0093,2.025,2.0934,2.1206,2.13,2.17,2.2189,2.1953,2.1554,2.1781,2.2123,2.2319,2.2319,2.2319,2.2319,2.2319,2.2319,2.2319,2.2319,2.2319,-2.194,-1.9508,-1.8797,-1.6766,-1.4134,-1.3047,-1.1375,-0.9609,-0.8963,-0.7836,-0.5648,0.2709,0.7109,0.7116,0.7487,0.8343,0.9334,1.1805,1.287,1.3185,1.4106,1.5025,1.5578,1.5897,1.6353,1.743,1.687,1.6899,1.7361,1.802,1.798,1.8217,1.9125,1.9522,1.9325,1.9559,1.969,1.9697,1.9697,1.9697,1.9697,1.9697,1.9697,1.9697,1.9697,1.9697,1.979,2.054,2.0565,2.0532,2.0967,2.1401,2.0208,1.9818,2.054,2.1953,2.2291,2.2319,2.2319,2.2319,2.2319,2.2319,2.2319,2.2254,2.218,2.218,2.2319,2.2319,2.2291,2.1945,2.1362,2.0481,1.9854,1.9762,1.9762,1.9733,1.9797,1.9762,1.9762,2.0127,2.0224,2.0127,1.9797,1.9697,1.9697,1.9697,1.9697,1.9697,1.9697,1.9697,1.9697,1.9697,1.9697,1.9697,1.996,2.0488,2.0739,2.1189,2.1166,2.1071,2.1661,2.2291,2.1857,2.1424,2.1454,2.1759,2.2028,2.2291,2.2319,2.2319,2.2319,2.2319,2.2319,2.2319,2.2319,-2.2258,-2.0092,-1.8959,-1.7172,-1.4993,-1.3382,-1.0498,-0.7486,-0.7715,-0.5688,-0.049,0.3134,0.6349,0.7478,0.8901,0.979,1.1035,1.2628,1.3836,1.413,1.5126,1.5923,1.625,1.6293,1.7233,1.8171,1.7619,1.7578,1.802,1.8581,1.8741,1.881,1.9162,1.9646,1.9566,1.9646,1.9697,1.9697,1.9697,1.9697,1.9697,1.9697,1.9697,1.9697,1.9697,1.9697,1.9833,2.0473,2.0665,2.0322,2.0772,2.1071,2.0739,2.0077,2.0739,2.173,2.2319,2.2319,2.2319,2.2319,2.2319,2.2319,2.2319,2.2106,2.1907,2.2106,2.2319,2.2319,2.2319,2.1631,2.0648,1.996,1.9697,1.9697,1.9697,1.9697,1.9697,1.9697,1.9697,1.9733,1.9995,1.9932,1.9697,1.9697,1.9697,1.9697,1.9697,1.9697,1.9697,1.9697,1.9697,1.9697,1.9697,1.9697,2.0154,2.0681,2.1237,2.1554,2.1354,2.1095,2.1493,2.1991,2.1894,2.1593,2.1554,2.1584,2.1886,2.2123,2.2254,2.2319,2.2319,2.2319,2.2319,2.2319,2.2319,-2.2253,-2.0283,-1.9733,-1.7866,-1.525,-1.3525,-1.1854,-0.8445,-0.0327,0.4862,0.6998,0.7934,0.8847,0.9492,1.0481,1.1433,1.257,1.3984,1.5155,1.5799,1.6696,1.7342,1.7457,1.7659,1.8398,1.8528,1.8549,1.8566,1.8885,1.8885,1.8885,1.9006,1.9406,1.969,1.9697,1.9697,1.9697,1.9697,1.9697,1.9697,1.9697,1.9697,1.9697,1.9697,1.9697,1.9697,1.9889,2.0506,2.0607,2.0269,2.0573,2.0714,2.0345,1.9952,2.0147,2.0632,2.1811,2.2245,2.2319,2.2291,2.2319,2.2291,2.2254,2.202,2.1615,2.1819,2.2254,2.2319,2.2319,2.1501,2.0224,1.9769,1.9697,1.9697,1.9697,1.9697,1.9697,1.9697,1.9697,1.9697,1.9697,1.9697,1.9697,1.9697,1.9697,1.9697,1.9697,1.9697,1.9697,1.9697,1.9697,1.9697,1.9697,1.9697,2.0319,2.091,2.1631,2.1991,2.1991,2.1721,2.1454,2.1584,2.1691,2.1886,2.1982,2.1982,2.1982,2.2086,2.2291,2.2319,2.2319,2.2319,2.2319,2.2319,2.2319,-2.1161,-1.7563,-1.7621,-1.6032,-1.3535,-1.2243,-1.0713,-0.7488,0.7359,1.3717,1.2873,1.1947,1.1469,1.1639,1.2085,1.2952,1.4298,1.5142,1.6132,1.7247,1.8182,1.8535,1.8419,1.865,1.8878,1.9088,1.8862,1.9088,1.9325,1.9361,1.9162,1.9125,1.9486,1.969,1.9697,1.9697,1.9697,1.9697,1.9697,1.9697,1.9697,1.9697,1.9697,1.9697,1.9697,1.9697,1.9818,2.054,2.0573,2.0042,2.0447,2.0556,1.9925,1.979,1.9762,2.0277,2.1354,2.1915,2.1848,2.1848,2.2217,2.2254,2.1982,2.1615,2.1237,2.1562,2.2049,2.2217,2.2319,2.1601,2.0681,2.012,1.9697,1.9697,1.9697,1.9697,1.9697,1.9697,1.9697,1.9697,1.9697,1.9697,1.9697,1.9697,1.9697,1.9697,1.9697,1.9697,1.9697,1.9697,1.9697,1.9697,1.9697,1.9733,2.0154,2.0902,2.173,2.2319,2.2319,2.2225,2.1886,2.1819,2.1915,2.2115,2.2189,2.2217,2.2086,2.2189,2.2319,2.2319,2.2319,2.2319,2.2319,2.2319,2.2319,-1.8236,-0.9898,-1.0413,-0.9687,-0.8286,-0.8678,-0.5385,-0.0165,1.3128,1.6441,1.3398,1.2726,1.3022,1.3341,1.3703,1.4519,1.607,1.5688,1.6509,1.7457,1.8267,1.8848,1.8893,1.9013,1.9162,1.9442,1.9251,1.9325,1.9595,1.9739,1.9639,1.969,1.9675,1.969,1.9754,1.9767,1.9747,1.9718,1.9697,1.9754,1.9754,1.9718,1.9726,1.9754,1.9718,1.9718,1.9747,2.054,2.0665,1.9839,2.0353,2.0387,1.9854,1.9733,1.9697,2.0058,2.1323,2.1524,2.0926,2.1546,2.2189,2.2094,2.1721,2.1275,2.1023,2.0235,2.069,2.1781,2.1759,2.1894,2.13,2.0837,1.9861,1.9697,1.9697,1.9697,1.9697,1.9697,1.9697,1.9697,1.9697,1.9697,1.9697,1.9697,1.9697,1.9697,1.9697,1.9697,1.9697,1.9697,1.9697,1.9697,1.9697,1.9762,1.9925,2.0739,2.1924,2.2319,2.2319,2.2319,2.2225,2.2189,2.2115,2.1886,2.1886,2.2057,2.2225,2.2291,2.2319,2.2319,2.2319,2.2319,2.2319,2.2319,2.2319,-1.8127,-1.3072,-0.8683,-0.2615,0.3957,0.4527,0.5214,0.7396,1.5517,1.7922,1.5002,1.4914,1.4981,1.5256,1.5587,1.6218,1.7283,1.7477,1.7947,1.8541,1.9192,1.9369,1.9406,1.9398,1.9522,1.9675,1.9508,1.9586,2.0019,2.007,2.0062,2.0027,1.9839,1.9726,1.9747,1.9962,1.9962,1.9782,1.9754,1.9803,2.0,1.9803,1.9811,2.0054,2.0216,2.0033,1.9889,2.0573,2.0499,2.0337,2.0488,2.0224,1.9818,1.9726,1.9697,1.9897,2.1354,2.1229,2.0405,2.1189,2.2106,2.1861,2.1538,2.1283,2.1055,2.02,2.0015,2.0514,2.0812,2.0942,2.0548,2.0093,1.9697,1.9697,1.9697,1.9697,1.9697,1.9697,1.9697,1.9697,1.9697,1.9697,1.9697,1.9697,1.9697,1.9697,1.9697,1.9697,1.9697,1.9697,1.9697,1.9697,1.9697,1.9861,1.998,2.1031,2.2225,2.2319,2.2319,2.2319,2.2319,2.2291,2.2189,2.1857,2.1653,2.1819,2.202,2.2225,2.2319,2.2319,2.2319,2.2319,2.2319,2.2319,2.2319,-1.3743,-1.0344,-0.52,0.1203,0.8457,1.4252,1.5915,1.548,1.8864,1.947,1.7424,1.7169,1.7082,1.7243,1.7467,1.8127,1.8692,1.8863,1.925,1.9598,1.9823,1.9882,1.9882,1.9909,1.9965,2.0007,2.0112,2.0303,2.0491,2.0524,2.0524,2.039,2.0097,1.9945,2.0019,2.0361,2.0413,2.0019,2.0085,2.0166,2.0457,2.0591,2.0235,2.0457,2.052,2.0433,2.0285,2.069,2.0943,2.0756,2.0673,2.0455,2.003,1.9697,1.9697,2.0292,2.0975,2.1393,2.0673,2.115,2.2069,2.1966,2.1507,2.1385,2.115,2.0405,1.9889,1.9833,1.9833,1.9741,1.9748,1.9697,1.9697,1.9697,1.9697,1.9697,1.9697,1.9697,1.9697,1.9697,1.9697,1.9697,1.9697,1.9697,1.9697,1.9697,1.9697,1.9697,1.9697,1.9697,1.9697,1.9697,1.9697,1.9889,2.0139,2.0764,2.1393,2.2319,2.2319,2.2319,2.2319,2.2319,2.2291,2.2115,2.1915,2.1743,2.1819,2.2086,2.2217,2.2319,2.2319,2.2319,2.2319,2.2319,2.2319,-0.4058,0.0953,0.0928,0.0893,0.3139,1.8322,2.4466,2.3068,2.318,2.1898,1.9823,1.9031,1.8819,1.9101,1.9206,1.979,2.0254,1.9877,1.9866,2.0304,2.0471,2.0385,2.0322,2.039,2.0483,2.0854,2.0829,2.0764,2.0959,2.0951,2.0983,2.0886,2.0616,2.0322,2.0366,2.1118,2.1086,2.0467,2.0731,2.0959,2.1086,2.1554,2.1283,2.0821,2.0933,2.0932,2.064,2.1039,2.1236,2.1086,2.1181,2.0894,2.0277,1.9854,1.9726,1.9869,2.1362,2.1354,2.005,2.1454,2.204,2.204,2.1538,2.1306,2.1584,2.0845,1.9762,1.979,1.9697,1.9786,1.9771,1.9741,1.9748,1.9697,1.9697,1.9697,1.9697,1.9697,1.9697,1.9697,1.9697,1.9697,1.9697,1.9697,1.9697,1.9697,1.9697,1.9697,1.9697,1.9697,1.9697,1.9697,1.9733,2.012,2.0277,2.0104,2.0632,2.1661,2.2319,2.2319,2.2319,2.2319,2.2282,2.2274,2.2172,2.1982,2.1915,2.1945,2.2123,2.2319,2.2319,2.2319,2.2319,2.2319,2.2319,-0.368,-0.1563,-0.0895,0.0461,0.3698,1.4717,2.1102,2.2938,2.2966,2.2371,2.1455,2.087,2.0575,2.0645,2.0924,2.1242,2.128,2.1961,2.179,2.1082,2.1215,2.1181,2.1115,2.1006,2.1038,2.1187,2.1172,2.1236,2.1399,2.1413,2.143,2.1337,2.1212,2.0838,2.0667,2.1062,2.1267,2.1023,2.1393,2.1751,2.1546,2.1945,2.1936,2.1165,2.1539,2.1446,2.0829,2.1399,2.1529,2.1376,2.1507,2.1244,2.0926,2.064,1.9782,2.0085,2.126,2.1454,2.064,2.1158,2.204,2.1861,2.159,2.111,2.0632,2.0772,2.025,1.9854,1.9733,2.0125,2.1132,2.014,1.9859,1.9748,1.9697,1.9697,1.9697,1.9697,1.9697,1.9697,1.9697,1.9697,1.9697,1.9726,1.9726,1.9754,1.9754,1.9733,1.9697,1.9697,1.9697,1.9697,1.9797,2.0258,2.0514,2.0673,2.0926,2.1886,2.2319,2.2319,2.2319,2.2319,2.2319,2.2282,2.2282,2.2245,2.2152,2.2115,2.2189,2.2319,2.2319,2.2319,2.2319,2.2319,2.2319,-0.2073,-0.092,-0.026,0.2273,0.6506,1.305,1.8208,2.1714,2.2699,2.2793,2.2611,2.2479,2.2304,2.2217,2.2375,2.2609,2.2375,2.2784,2.2884,2.2123,2.222,2.2159,2.1949,2.1789,2.1967,2.1936,2.1786,2.177,2.2017,2.1989,2.1903,2.1845,2.189,2.1511,2.1266,2.1438,2.1667,2.1515,2.1802,2.2106,2.2003,2.2069,2.2052,2.1806,2.1859,2.1917,2.1526,2.1538,2.1823,2.1743,2.1713,2.1675,2.1721,2.1362,2.0269,2.0439,2.1095,2.1524,2.1393,2.1454,2.2135,2.1957,2.162,2.1015,2.0277,2.0379,2.0147,1.9846,1.9733,2.0653,2.15,2.04,1.9844,1.9705,1.9697,1.9697,1.9697,1.9697,1.9697,1.9697,1.9697,1.9697,1.9733,1.9762,1.9754,1.9782,1.9811,1.9797,1.9784,1.9705,1.9705,1.9697,1.9826,2.0216,2.087,2.1532,2.1857,2.2225,2.2319,2.2319,2.2319,2.2319,2.2319,2.2319,2.2291,2.2282,2.2291,2.2319,2.2319,2.2319,2.2319,2.2319,2.2319,2.2319,2.2319,0.1274,0.3062,0.3275,0.5972,1.0327,1.2989,1.7251,2.2342,2.3064,2.3495,2.3836,2.339,2.3309,2.3667,2.3645,2.3636,2.3728,2.3662,2.3456,2.3265,2.3211,2.3092,2.2971,2.2829,2.2828,2.2933,2.2813,2.2486,2.2704,2.2609,2.2424,2.2289,2.2415,2.2105,2.1911,2.1882,2.1957,2.1899,2.2003,2.2237,2.2217,2.2254,2.2098,2.1961,2.2007,2.2024,2.1869,2.1974,2.218,2.2217,2.2225,2.2254,2.2291,2.2291,2.1189,2.0829,2.1623,2.1924,2.2057,2.2245,2.2245,2.2077,2.1515,2.1158,2.0797,2.0345,1.9925,1.979,1.9763,2.0742,2.1417,2.0571,1.9756,1.9697,1.9697,1.9697,1.9697,1.9697,1.9697,1.9697,1.9697,1.9697,1.9697,1.9726,1.9818,2.005,2.0108,2.03,2.0195,1.9748,1.9741,1.9697,1.9861,2.0147,2.0862,2.173,2.2123,2.2319,2.2319,2.2319,2.2319,2.2319,2.2319,2.2319,2.2319,2.2319,2.2319,2.2319,2.2319,2.2319,2.2319,2.2319,2.2319,2.2319,2.2319,0.2919,0.2752,0.5224,0.7181,0.8959,1.2929,1.6896,2.0215,2.1992,2.3026,2.3378,2.3703,2.3742,2.3412,2.3952,2.4229,2.4385,2.445,2.4336,2.4211,2.4116,2.403,2.3833,2.359,2.3599,2.3505,2.3352,2.3085,2.3069,2.3061,2.3045,2.2939,2.2814,2.2574,2.2422,2.2326,2.2231,2.2163,2.2257,2.2282,2.2319,2.2319,2.2143,2.2172,2.2172,2.2152,2.218,2.218,2.2319,2.2319,2.2319,2.2319,2.2319,2.2319,2.1819,2.1743,2.2115,2.2291,2.2319,2.2319,2.2319,2.2217,2.1743,2.1477,2.1047,2.0499,1.9861,1.9762,1.9733,2.0459,2.075,2.014,1.9697,1.9697,1.9697,1.9697,1.9769,1.9889,1.9861,1.9697,1.9697,1.9697,1.9697,1.9733,1.9826,2.0147,2.0433,2.0634,2.0733,2.0369,1.9975,1.996,1.996,2.0243,2.0902,2.1721,2.2057,2.2319,2.2291,2.2291,2.2319,2.2319,2.2319,2.2319,2.2319,2.2319,2.2319,2.2319,2.2319,2.2319,2.2319,2.2319,2.2319,2.2319,2.2319,0.369,0.4219,0.6207,0.7909,0.9743,1.3026,1.5932,1.8303,2.1006,2.2445,2.2862,2.3785,2.4053,2.4007,2.4416,2.4687,2.4807,2.4929,2.4925,2.4948,2.4891,2.4761,2.4525,2.4301,2.4251,2.4108,2.3843,2.355,2.3503,2.3437,2.3401,2.3378,2.3174,2.2947,2.2755,2.266,2.2599,2.2463,2.2379,2.2338,2.2319,2.2319,2.2319,2.2319,2.2319,2.2319,2.2319,2.2319,2.2319,2.2319,2.2319,2.2319,2.2319,2.2319,2.2319,2.218,2.2254,2.2319,2.2319,2.2319,2.2319,2.2254,2.204,2.1907,2.1485,2.0967,2.0285,1.9854,1.9762,1.9771,1.9756,1.9697,1.9697,1.9697,1.9697,1.9697,1.9861,2.005,1.9952,1.9762,1.9697,1.9697,1.9697,1.9733,1.9811,2.0101,2.0483,2.0851,2.1199,2.1373,2.082,2.054,2.0379,2.0379,2.1031,2.1584,2.1848,2.2086,2.2225,2.2254,2.2291,2.2319,2.2319,2.2319,2.2319,2.2319,2.2319,2.2319,2.2319,2.2319,2.2319,2.2319,2.2319,2.2319,2.2319,0.3917,0.6216,0.6589,0.8537,1.1531,1.306,1.4553,1.6274,1.9739,2.1672,2.227,2.3575,2.4216,2.4293,2.4649,2.4922,2.5068,2.5211,2.5328,2.5484,2.5339,2.5206,2.5111,2.5071,2.4803,2.4628,2.4372,2.4045,2.3968,2.3855,2.3744,2.3753,2.3649,2.3401,2.303,2.3005,2.294,2.2772,2.2607,2.2516,2.2396,2.233,2.2319,2.2319,2.2319,2.2319,2.2319,2.2319,2.2319,2.2319,2.2319,2.2319,2.2319,2.2319,2.2319,2.2319,2.2319,2.2319,2.2319,2.2319,2.2319,2.2319,2.2291,2.2217,2.1848,2.1554,2.0926,2.0413,2.0319,1.9869,1.9697,1.9697,1.9697,1.9697,1.9697,1.9697,1.9797,2.0023,2.0154,1.996,1.9818,1.9818,1.9854,1.9925,2.0235,2.0294,2.0215,2.0663,2.1176,2.1653,2.1678,2.1095,2.0894,2.0731,2.0886,2.1376,2.1576,2.1811,2.2077,2.2217,2.2291,2.2319,2.2319,2.2319,2.2319,2.2319,2.2319,2.2319,2.2319,2.2319,2.2319,2.2319,2.2395,2.2708,2.2547,0.4326,0.5118,0.7264,0.9009,1.0394,1.2197,1.3512,1.4614,1.7828,1.998,2.1139,2.2029,2.3038,2.3943,2.448,2.4812,2.5122,2.5338,2.5487,2.5478,2.5451,2.5447,2.536,2.5257,2.5139,2.4983,2.4748,2.4507,2.4335,2.4192,2.4056,2.4056,2.3928,2.3601,2.3419,2.3397,2.3241,2.3093,2.3005,2.2832,2.2686,2.2443,2.2319,2.2319,2.2338,2.2338,2.231,2.231,2.2319,2.2319,2.2319,2.2319,2.2319,2.2319,2.2319,2.2319,2.2319,2.2319,2.2319,2.2319,2.2319,2.2319,2.2319,2.2319,2.2217,2.2077,2.1751,2.126,2.078,2.0224,1.9797,1.9797,1.9697,1.9697,1.9861,1.9861,1.9833,1.9987,2.0285,2.0243,2.0042,2.0077,2.0139,2.0337,2.0616,2.0449,2.0,2.0123,2.0649,2.1192,2.2056,2.1721,2.1407,2.1275,2.1244,2.1244,2.1515,2.1811,2.2115,2.2217,2.2291,2.2319,2.2319,2.2319,2.2319,2.2319,2.2319,2.2319,2.2319,2.2471,2.2462,2.2522,2.352,2.4061,2.3486,0.4455,0.482,0.7499,0.9456,1.0788,1.2176,1.3168,1.4089,1.596,1.7932,1.9924,2.1373,2.2625,2.3449,2.4079,2.4492,2.4888,2.535,2.5472,2.5488,2.5439,2.5504,2.5455,2.5411,2.5359,2.5245,2.503,2.4825,2.4651,2.447,2.4339,2.4374,2.4155,2.3973,2.3876,2.3726,2.3608,2.3446,2.3428,2.3305,2.3061,2.2764,2.2616,2.2616,2.2489,2.2443,2.2407,2.2388,2.2319,2.2319,2.2319,2.2319,2.2319,2.2319,2.2319,2.2319,2.2319,2.2319,2.2319,2.2319,2.2319,2.2319,2.2319,2.2319,2.2319,2.218,2.218,2.1759,2.1683,2.1197,2.0739,2.064,1.9995,1.9697,2.0548,2.1095,2.0573,2.0174,2.0797,2.1385,2.1283,2.1252,2.1323,2.1385,2.1472,2.0713,2.0212,1.9786,2.0267,2.0813,2.1673,2.2254,2.1878,2.1538,2.1368,2.1385,2.1493,2.1819,2.2143,2.2245,2.2319,2.2319,2.2319,2.2319,2.2319,2.2319,2.2319,2.2319,2.2767,2.3097,2.2945,2.2767,2.401,2.5262,2.4932,0.4462,0.4895,0.7499,0.9684,1.144,1.2444,1.313,1.3763,1.4516,1.61,1.8291,2.0846,2.2305,2.3206,2.358,2.3971,2.4353,2.4759,2.509,2.5348,2.5373,2.5424,2.5498,2.5552,2.5512,2.5403,2.52,2.5027,2.4845,2.4669,2.4601,2.4736,2.4604,2.4397,2.4264,2.4247,2.4238,2.3923,2.3801,2.3756,2.3491,2.3141,2.303,2.2874,2.2747,2.2563,2.2563,2.2482,2.233,2.2319,2.2319,2.2319,2.2319,2.2319,2.2319,2.2319,2.2319,2.2319,2.2319,2.2319,2.2319,2.2319,2.2319,2.2319,2.2319,2.2319,2.2319,2.2291,2.2217,2.2049,2.1584,2.1229,2.0514,2.0023,2.1063,2.1848,2.1086,2.0558,2.1376,2.2209,2.218,2.2143,2.2209,2.2274,2.1895,2.1119,2.062,2.0137,1.9985,2.0547,2.1246,2.1961,2.2152,2.1848,2.1606,2.1477,2.1562,2.1819,2.2115,2.2217,2.2319,2.2319,2.2319,2.2319,2.2319,2.2319,2.2319,2.2319,2.2868,2.3528,2.3604,2.3646,2.5067,2.6116,2.6361,0.4462,0.4728,0.7529,0.8996,0.9713,1.1851,1.2963,1.3304,1.4513,1.5703,1.6903,1.8484,2.0393,2.2762,2.2632,2.2928,2.356,2.4022,2.4481,2.4803,2.4969,2.5197,2.5414,2.5545,2.5595,2.5483,2.5327,2.5159,2.5045,2.486,2.4752,2.4814,2.4795,2.4697,2.4666,2.4623,2.4476,2.4256,2.4145,2.4095,2.3917,2.3566,2.3221,2.3135,2.3111,2.2915,2.2721,2.2445,2.2358,2.2319,2.2319,2.2319,2.2319,2.2319,2.2319,2.2319,2.2319,2.2319,2.2319,2.2319,2.2319,2.2319,2.2319,2.2319,2.2319,2.2319,2.2319,2.2319,2.2254,2.2254,2.1991,2.1991,2.1501,2.087,2.1252,2.1354,2.1063,2.1354,2.1974,2.2217,2.2217,2.2217,2.2254,2.2282,2.2262,2.1761,2.1769,2.1195,2.0273,2.0598,2.1007,2.1593,2.2262,2.2291,2.2123,2.1675,2.1645,2.1907,2.2115,2.2225,2.2319,2.2319,2.2319,2.2319,2.2319,2.2319,2.2319,2.2327,2.3029,2.3663,2.4133,2.4653,2.6031,2.67,2.67]},{"header":{"parameterUnit":"m.s-1","parameterCategory":1,"la1":31.0,"la2":29.5877,"lo1":-88.7671,"lo2":-86.6584,"dy":0.0162,"dx":0.0185,"nx":115,"ny":88,"refTime":"2024-11-22T06:00:00:Z","depth":0,"parameterNumber":3,"parameterNumberName":"V-component_of_WINDS"},"data":[0.0,0.0,0.0,0.0,0.0,0.0,0.0,0.0,0.0,0.0,0.0,0.0,0.0,0.0,0.0,0.0,0.0,0.0,0.0,0.0,0.0,0.0,0.0,0.0,0.0,0.0,0.0,0.0,0.0,0.0,0.0,0.0,0.0,0.0,0.0,0.0,0.0,0.0,0.0,0.0,0.0,0.0,0.0,0.0,0.0,0.0,0.0,0.0,0.0,0.0,0.0,0.0,0.0,0.0,0.0,0.0,0.0,0.0,0.0,0.0,0.0,0.0,0.0,0.0,0.0,0.0,0.0,0.0,0.0,0.0,0.0,0.0,0.0,0.0,0.0,0.0,0.0,0.0,0.0,0.0,0.0,0.0,0.0,0.0,0.0,0.0,0.0,0.0,0.0,0.0,0.0,0.0,0.0,0.0,0.0,0.0,0.0,0.0,0.0,0.0,0.0,0.0,0.0,0.0,0.0,0.0,0.0,0.0,0.0,0.0,0.0,0.0,0.0,0.0,0.0,0.0,0.0,0.0,0.0,0.0,0.0,0.0,0.0,0.0,0.0,0.0,0.0,0.0,0.0,0.0,0.0,0.0,0.0,0.0,0.0,0.0,0.0,0.0,0.0,0.0,0.0,0.0,0.0,0.0,0.0,0.0,0.0,0.0,0.0,0.0,0.0,0.0,0.0,0.0,0.0,0.0,0.0,0.0,0.0,0.0,0.0,0.0,0.0,0.0,0.0,0.0,0.0,0.0,0.0,0.0,0.0,0.0,0.0,0.0,0.0,0.0,0.0,0.0,0.0,0.0,0.0,0.0,0.0,0.0,0.0,0.0,0.0,0.0,0.0,0.0,0.0,0.0,0.0,0.0,0.0,0.0,0.0,0.0,0.0,0.0,0.0,0.0,0.0,0.0,0.0,0.0,0.0,0.0,0.0,0.0,0.0,0.0,0.0,0.0,0.0,0.0,0.0,0.0,0.0,0.0,0.0,0.0,0.0,0.0,0.0,0.0,0.0,0.0,0.0,0.0,0.0,0.0,0.0,0.0,0.0,0.0,0.0,0.0,0.0,0.0,0.0,0.0,0.0,0.0,0.0,0.0,0.0,0.0,0.0,0.0,0.0,0.0,0.0,0.0,0.0,0.0,0.0,0.0,0.0,0.0,0.0,0.0,0.0,0.0,0.0,0.0,0.0,0.0,0.0,0.0,0.0,0.0,0.0,0.0,0.0,0.0,0.0,0.0,0.0,0.0,0.0,0.0,0.0,0.0,0.0,0.0,0.0,0.0,0.0,0.0,0.0,0.0,0.0,0.0,0.0,0.0,0.0,0.0,0.0,0.0,0.0,0.0,0.0,0.0,0.0,0.0,0.0,0.0,0.0,0.0,0.0,0.0,0.0,0.0,0.0,0.0,0.0,0.0,0.0,0.0,0.0,0.0,0.0,0.0,0.0,0.0,0.0,0.0,0.0,0.0,0.0,0.0,0.0,0.0,0.0,0.0,0.0,0.0,0.0,0.0,0.0,0.0,0.0,0.0,0.0,0.0,0.0,0.0,0.0,0.0,0.0,0.0,0.0,0.0,0.0,0.0,0.0,0.0,0.0,0.0,0.0,0.0,0.0,0.0,0.0,0.0,0.0,0.0,0.0,0.0,0.0,0.0,0.0,0.0,0.0,0.0,0.0,0.0,0.0,0.0,0.0,0.0,0.0,0.0,0.0,0.0,0.0,0.0,0.0,0.0,0.0,0.0,0.0,0.0,0.0,0.0,0.0,0.0,0.0,0.0,0.0,0.0,0.0,0.0,0.0,0.0,0.0,0.0,0.0,0.0,0.0,0.0,0.0,0.0,0.0,0.0,0.0,0.0,0.0,0.0,0.0,0.0,0.0,0.0,0.0,0.0,0.0,0.0,0.0,0.0,0.0,0.0,0.0,0.0,0.0,0.0,0.0,0.0,0.0,0.0,0.0,0.0,0.0,0.0,0.0,0.0,0.0,0.0,0.0,0.0,0.0,0.0,0.0,0.0,0.0,0.0,0.0,0.0,0.0,0.0,0.0,0.0,0.0,0.0,0.0,0.0,0.0,0.0,0.0,0.0,0.0,0.0,0.0,0.0,0.0,0.0,0.0,0.0,0.0,0.0,0.0,0.0,0.0,0.0,0.0,0.0,0.0,0.0,0.0,0.0,0.0,0.0,0.0,0.0,0.0,0.0,0.0,0.0,0.0,0.0,0.0,0.0,0.0,0.0,0.0,0.0,0.0,0.0,0.0,0.0,0.0,0.0,0.0,0.0,0.0,0.0,0.0,0.0,0.0,0.0,0.0,0.0,0.0,0.0,0.0,0.0,0.0,0.0,0.0,0.0,0.0,0.0,0.0,0.0,0.0,0.0,0.0,0.0,0.0,0.0,0.0,0.0,0.0,0.0,0.0,0.0,0.0,0.0,0.0,0.0,0.0,0.0,0.0,0.0,0.0,0.0,0.0,0.0,0.0,0.0,0.0,0.0,0.0,0.0,0.0,0.0,0.0,0.0,0.0,0.0,0.0,0.0,0.0,0.0,0.0,0.0,0.0,0.0,0.0,0.0,0.0,0.0,0.0,0.0,0.0,0.0,0.0,0.0,0.0,0.0,0.0,0.0,0.0,0.0,0.0,0.0,0.0,0.0,0.0,0.0,0.0,0.0,0.0,0.0,0.0,0.0,0.0,0.0,0.0,0.0,0.0,0.0,0.0,0.0,0.0,0.0,0.0,0.0,0.0,0.0,0.0,0.0,0.0,0.0,0.0,0.0,0.0,0.0,0.0,0.0,0.0,0.0,0.0,0.0,0.0,0.0,0.0,0.0,0.0,0.0,0.0,0.0,0.0,0.0,0.0,0.0,0.0,0.0,0.0,0.0,0.0,0.0,0.0,0.0,0.0,0.0,0.0,0.0,0.0,0.0,0.0,0.0,0.0,0.0,0.0,0.0,0.0,0.0,0.0,0.0,0.0,0.0,0.0,0.0,0.0,0.0,0.0,0.0,0.0,0.0,0.0,0.0,0.0,0.0,0.0,0.0,0.0,0.0,0.0,0.0,0.0,0.0,0.0,0.0,0.0,0.0,0.0,0.0,0.0,0.0,0.0,0.0,0.0,0.0,0.0,0.0,0.0,0.0,0.0,0.0,0.0,0.0,0.0,0.0,0.0,0.0,0.0,0.0,0.0,0.0,0.0,0.0,0.0,0.0,0.0,0.0,0.0,0.0,0.0,0.0,0.0,0.0,0.0,0.0,0.0,0.0,0.0,0.0,0.0,0.0,0.0,0.0,0.0,0.0,0.0,0.0,0.0,0.0,0.0,0.0,0.0,0.0,0.0,0.0,0.0,0.0,0.0,0.0,0.0,0.0,0.0,0.0,0.0,0.0,0.0,0.0,0.0,0.0,0.0,0.0,0.0,0.0,0.0,0.0,0.0,0.0,0.0,0.0,0.0,0.0,0.0,0.0,0.0,0.0,0.0,0.0,0.0,0.0,0.0,0.0,0.0,0.0,0.0,0.0,0.0,0.0,0.0,0.0,0.0,0.0,0.0,0.0,0.0,0.0,0.0,0.0,0.0,0.0,0.0,0.0,0.0,0.0,0.0,0.0,0.0,0.0,0.0,0.0,0.0,0.0,0.0,0.0,0.0,0.0,0.0,0.0,0.0,0.0,0.0,0.0,0.0,0.0,0.0,0.0,0.0,0.0,0.0,0.0,0.0,0.0,0.0,0.0,0.0,0.0,0.0,0.0,0.0,0.0,0.0,0.0,0.0,0.0,0.0,0.0,0.0,0.0,0.0,0.0,0.0,0.0,0.0,0.0,0.0,0.0,0.0,0.0,0.0,0.0,0.0,0.0,0.0,0.0,0.0,0.0,0.0,0.0,0.0,0.0,0.0,0.0,0.0,0.0,0.0,0.0,0.0,0.0,0.0,0.0,0.0,0.0,0.0,0.0,0.0,0.0,0.0,0.0,0.0,0.0,0.0,0.0,0.0,0.0,0.0,0.0,0.0,0.0,0.0,0.0,0.0,0.0,0.0,0.0,0.0,0.0,0.0,0.0,0.0,0.0,0.0,0.0,0.0,0.0,0.0,0.0,0.0,0.0,0.0,0.0,0.0,0.0,0.0,0.0,0.0,0.0,0.0,0.0,0.0,0.0,0.0,0.0,0.0,0.0,0.0,0.0,0.0,0.0,0.0,0.0,0.0,0.0,0.0,0.0,0.0,0.0,0.0,0.0,0.0,0.0,0.0,0.0,0.0,0.0,0.0,0.0,0.0,0.0,0.0,0.0,0.0,0.0,0.0,0.0,0.0,0.0,0.0,0.0,0.0,0.0,0.0,0.0,0.0,0.0,0.0,0.0,0.0,0.0,0.0,0.0,0.0,0.0,0.0,0.0,0.0,0.0,0.0,0.0,0.0,0.0,0.0,0.0,0.0,0.0,0.0,0.0,0.0,0.0,0.0,0.0,0.0,0.0,0.0,0.0,0.0,0.0,0.0,0.0,0.0,0.0,0.0,0.0,0.0,0.0,0.0,0.0,0.0,0.0,0.0,0.0,0.0,0.0,0.0,0.0,0.0,0.0,0.0,0.0,0.0,0.0,0.0,0.0,0.0,0.0,0.0,0.0,0.0,0.0,0.0,0.0,0.0,0.0,0.0,0.0,0.0,0.0,0.0,0.0,0.0,0.0,0.0,0.0,0.0,0.0,0.0,0.0,0.0,0.0,0.0,0.0,0.0,0.0,0.0,0.0,0.0,0.0,0.0,0.0,0.0,0.0,0.0,0.0,0.0,0.0,0.0,0.0,0.0,0.0,0.0,0.0,0.0,0.0,0.0,0.0,0.0,0.0,0.0,0.0,0.0,0.0,0.0,0.0,0.0,0.0,0.0,0.0,0.0,0.0,0.0,0.0,0.0,0.0,0.0,0.0,0.0,0.0,0.0,0.0,0.0,0.0,0.0,0.0,0.0,0.0,0.0,0.0,0.0,0.0,0.0,0.0,0.0,0.0,0.0,0.0,0.0,0.0,0.0,0.0,0.0,0.0,0.0,0.0,0.0,0.0,0.0,0.0,0.0,0.0,0.0,0.0,0.0,0.0,0.0,0.0,0.0,0.0,0.0,0.0,0.0,0.0,0.0,0.0,0.0,0.0,0.0,0.0,0.0,0.0,0.0,0.0,0.0,0.0,0.0,0.0,0.0,0.0,0.0,0.0,0.0,0.0,0.0,0.0,0.0,0.0,0.0,0.0,0.0,0.0,0.0,0.0,0.0,0.0,0.0,0.0,0.0,0.0,-0.0746,-0.0511,0.0,0.0,0.0,0.0,0.0,0.0,0.0,0.0,0.0,0.0,0.0,0.0,0.0,0.0,0.0,0.0,0.0,0.0,0.0,0.0,0.0,0.0,0.0,0.0,0.0,0.0,0.0,0.0,0.0,0.0,0.0,0.0,0.0,0.0,0.0,0.0,0.0,0.0,0.0,0.0,0.0,0.0,0.0,0.0,0.0,0.0,0.0,0.0,0.0,0.0,0.0,0.0,0.0,0.0,0.0,0.0,0.0,0.0,0.0,0.0,0.0,0.0,0.0,0.0,0.0,0.0,0.0,0.0,0.0,0.0,0.0,0.0,0.0,0.0,0.0,0.0,0.0,0.0,0.0,0.0,0.0,0.0,0.0,0.0,0.0,0.0,0.0,0.0,0.0,0.0,0.0,0.0,0.0,0.0,0.0,0.0,0.0,0.0,0.0,0.0,0.0,0.0,0.0,0.0,0.0,0.0,0.0,0.0,0.0,0.0,0.0,-0.0954,-0.294,-0.2972,0.0,0.0,0.0,0.0,0.0,0.0,0.0,0.0,0.0,0.0,0.0,0.0,0.0,0.0,0.0,0.0,0.0,0.0,0.0,0.0,0.0,0.0,0.0,0.0,0.0,0.0,0.0,0.0,0.0,0.0,0.0,0.0,0.0,0.0,0.0,0.0,0.0,0.0,0.0,0.0,0.0,0.0,0.0,0.0,0.0,0.0,0.0,0.0,0.0,0.0,0.0,0.0,0.0,0.0,0.0,0.0,0.0,0.0,0.0,0.0,0.0,0.0,0.0,0.0,0.0,0.0,0.0,0.0,0.0,0.0,0.0,0.0,0.0,0.0,0.0,0.0,0.0,0.0,0.0,0.0,0.0,0.0,0.0,0.0,0.0,0.0,0.0,0.0,0.0,0.0,0.0,0.0,0.0,0.0,0.0,0.0,0.0,0.0,0.0,0.0,0.0,0.0,0.0,0.0,0.0,0.0,0.0,0.0,0.0,0.0,0.0,0.0,-0.3103,-0.3979,-0.3545,-0.2891,0.0,0.0,0.0,0.0,0.0,0.0,0.0,0.0,0.0,0.0,0.0,0.0,0.0,0.0,0.0,0.0,0.0,0.0,0.0,0.0,0.0,0.0,0.0,0.0,0.0,0.0,0.0,0.0,0.0,0.0,0.0,0.0,0.0,0.0,0.0,0.0,0.0,0.0,0.0,0.0,0.0,0.0,0.0,0.0,0.0,0.0,0.0,0.0,0.0,0.0,0.0,0.0,0.0,0.0,0.0,0.0,0.0,0.0,0.0,0.0,0.0,0.0,0.0,0.0,0.0,0.0,0.0,0.0,0.0,0.0,0.0,0.0,0.0,0.0,0.0,0.0,0.0,0.0,0.0,0.0,0.0,0.0,0.0,0.0,0.0,0.0,0.0,0.0,0.0,0.0,0.0,0.0,0.0,0.0,0.0,0.0,0.0,0.0,0.0,0.0,0.0,0.0,0.0,0.0,0.0,0.0,0.0,0.0,0.0,0.0,-0.4275,-0.4445,-0.4304,-0.3654,-0.3292,-0.3296,0.0,0.0,0.0,0.0,0.0,0.0,0.0,0.0,0.0,0.0,0.0,0.0,0.0,0.0,0.0,0.0,0.0,0.0,0.0,0.0,0.0,0.0,0.0,0.0,0.0,0.0,0.0,0.0,0.0,0.0,0.0,0.0,0.0,0.0,0.0,0.0,0.0,0.0,0.0,0.0,0.0,0.0,0.0,0.0,0.0,0.0,0.0,0.0,0.0,0.0,0.0,0.0,0.0,0.0,0.0,0.0,0.0,0.0,0.0,0.0,0.0,0.0,0.0,0.0,0.0,0.0,0.0,0.0,0.0,0.0,0.0,0.0,0.0,0.0,0.0,0.0,0.0,0.0,0.0,0.0,0.0,0.0,0.0,0.0,0.0,0.0,0.0,0.0,0.0,0.0,0.0,0.0,0.0,0.0,0.0,0.0,0.0,0.0,0.0,0.0,0.0,0.0,0.0,0.0,0.0,0.0,0.0,0.0,0.0,-0.3761,-0.4318,-0.3925,-0.3518,-0.33,0.0,0.0,0.0,0.0,0.0,0.0,0.0,0.0,0.0,0.0,0.0,0.0,0.0,0.0,0.0,0.0,0.0,0.0,0.0,0.0,0.0,0.0,0.0,0.0,0.0,0.0,0.0,0.0,0.0,0.0,0.0,0.0,0.0,0.0,0.0,0.0,0.0,0.0,0.0,0.0,0.0,0.0,0.0,0.0,0.0,0.0,0.0,0.0,0.0,0.0,0.0,0.0,0.0,0.0,0.0,0.0,0.0,0.0,0.0,0.0,0.0,0.0,0.0,0.0,0.0,0.0,0.0,0.0,0.0,0.0,0.0,0.0,0.0,0.0,0.0,0.0,0.0,0.0,0.0,0.0,0.0,0.0,0.0,0.0,0.0,0.0,0.0,0.0,0.0,0.0,0.0,0.0,0.0,0.0,0.0,0.0,0.0,0.0,0.0,0.0,0.0,0.0,0.0,0.0,0.0,0.0,0.0,0.0,0.0,-0.3589,-0.4216,-0.4154,-0.3443,-0.3824,-0.3833,0.0,0.0,0.0,0.0,0.0,0.0,0.0,0.0,0.0,0.0,0.0,0.0,0.0,0.0,0.0,0.0,0.0,0.0,0.0,0.0,0.0,0.0,0.0,0.0,0.0,0.0,0.0,0.0,0.0,0.0,0.0,0.0,0.0,0.0,0.0,0.0,0.0,0.0,0.0,0.0,0.0,0.0,0.0,0.0,0.0,0.0,0.0,0.0,0.0,0.0,0.0,0.0,0.0,0.0,0.0,0.0,0.0,0.0,0.0,0.0,0.0,0.0,0.0,0.0,0.0,0.0,0.0,0.0,0.0,0.0,0.0,0.0,0.0,0.0,0.0,0.0,0.0,0.0,0.0,0.0,0.0,0.0,0.0,0.0,0.0,0.0,0.0,0.0,0.0,0.0,0.0,0.0,0.0,0.0,0.0,0.0,0.0,0.0,0.0,0.0,0.0,0.0,0.0,0.0,0.0,0.0,0.0,0.0,0.0,-0.3765,0.0,-0.3664,0.0,-0.3837,-0.3724,0.0,0.0,0.0,0.0,0.0,0.0,0.0,0.0,0.0,0.0,0.0,0.0,0.0,0.0,0.0,0.0,0.0,0.0,0.0,0.0,0.0,0.0,0.0,0.0,0.0,0.0,0.0,0.0,0.0,0.0,0.0,0.0,0.0,0.0,0.0,0.0,0.0,0.0,0.0,0.0,0.0,0.0,0.0,0.0,0.0,0.0,0.0,0.0,0.0,0.0,0.0,0.0,0.0,0.0,0.0,0.0,0.0,0.0,0.0,0.0,0.0,0.0,0.0,0.0,0.0,0.0,0.0,0.0,0.0,0.0,0.0,0.0,0.0,0.0,0.0,0.0,0.0,0.0,0.0,0.0,0.0,0.0,0.0,0.0,0.0,0.0,0.0,0.0,0.0,0.0,0.0,0.0,0.0,0.0,0.0,0.0,0.0,0.0,0.0,0.0,0.0,0.0,0.0,0.0,0.0,0.0,0.0,0.0,-0.2551,-0.257,-0.3049,-0.3033,-0.2309,-0.3439,-0.2836,0.0,0.0,0.0,0.0,0.0,0.0,0.0,0.0,0.0,0.0,0.0,0.0,0.0,0.0,0.0,0.0,0.0,0.0,0.0,0.0,0.0,0.0,0.0,0.0,0.0,0.0,0.0,0.0,0.0,0.0,0.0,0.0,0.0,0.0,0.0,0.0,0.0,0.0,0.0,0.0,0.0,0.0,0.0,0.0,0.0,0.0,0.0,0.0,0.0,0.0,0.0,0.0,0.0,0.0,0.0,0.0,0.0,0.0,0.0,0.0,0.0,0.0,0.0,0.0,0.0,0.0,0.0,0.0,0.0,0.0,0.0,0.0,0.0,0.0,0.0,0.0,0.0,0.0,0.0,0.0,0.0,0.0,0.0,0.0,0.0,0.0,0.0,0.0,0.0,0.0,0.0,0.0,0.0,0.0,0.0,0.0,0.0,0.0,0.0,0.0,0.0,0.0,0.0,0.0,0.0,0.0,0.0,0.0,0.0,-0.3888,-0.4164,-0.4199,-0.3953,-0.2232,-0.1429,0.0,0.0,0.0,0.0,0.0,0.0,0.0,0.0,0.0,0.0,0.0,0.0,0.0,0.0,0.0,0.0,0.0,0.0,0.0,0.0,0.0,0.0,0.0,0.0,0.0,0.0,0.0,0.0,0.0,0.0,0.0,0.0,0.0,0.0,0.0,0.0,0.0,0.0,0.0,0.0,0.0,0.0,0.0,0.0,0.0,0.0,0.0,0.0,0.0,0.0,0.0,0.0,0.0,0.0,0.0,0.0,0.0,0.0,0.0,0.0,0.0,0.0,0.0,0.0,0.0,0.0,0.0,0.0,0.0,0.0,0.0,0.0,0.0,0.0,0.0,0.0,0.0,0.0,0.0,0.0,0.0,0.0,0.0,0.0,0.0,0.0,0.0,0.0,0.0,0.0,0.0,0.0,0.0,0.0,0.0,0.0,0.0,0.0,0.0,0.0,0.0,0.0,0.0,0.0,0.0,0.0,0.0,0.0,0.0,-0.7001,-0.6772,-0.6047,-0.4789,-0.2847,-0.1716,-0.1489,0.0,0.0,0.0,0.0,0.0,0.0,0.0,0.0,0.0,0.0,0.0,0.0,0.0,0.0,0.0,0.0,0.0,0.0,0.0,0.0,0.0,0.0,0.0,0.0,0.0,0.0,0.0,0.0,0.0,0.0,0.0,0.0,0.0,0.0,0.0,0.0,0.0,0.0,0.0,0.0,0.0,0.0,0.0,0.0,0.0,0.0,0.0,0.0,0.0,0.0,0.0,0.0,0.0,0.0,0.0,0.0,0.0,0.0,0.0,0.0,0.0,0.0,0.0,0.0,0.0,0.0,0.0,0.0,0.0,0.0,0.0,0.0,0.0,0.0,0.0,0.0,0.0,0.0,0.0,0.0,0.0,0.0,0.0,0.0,0.0,0.0,0.0,0.0,0.0,0.0,0.0,0.0,0.0,0.0,0.0,0.0,0.0,0.0,0.0,0.0,0.0,0.0,0.0,0.0,0.0,0.0,0.0,0.0,-1.1544,-1.0758,-0.8776,-0.5501,-0.5031,-0.3422,0.0,0.0,0.0,0.0,0.0,0.0,0.0,0.0,0.0,0.0,0.0,0.0,0.0,0.0,0.0,0.0,0.0,0.0,0.0,0.0,0.0,0.0,0.0,0.0,0.0,0.0,0.0,0.0,0.0,0.0,0.0,0.0,0.0,0.0,0.0,0.0,0.0,0.0,0.0,0.0,0.0,0.0,0.0,0.0,0.0,0.0,0.0,0.0,0.0,0.0,0.0,0.0,0.0,0.0,0.0,0.0,0.0,0.0,0.0,0.0,0.0,0.0,0.0,0.0,0.0,0.0,0.0,0.0,0.0,0.0,0.0,0.0,0.0,0.0,0.0,0.0,0.0,0.0,0.0,0.0,0.0,0.0,0.0,0.0,0.0,0.0,0.0,0.0,0.0,0.0,0.0,0.0,0.0,0.0,0.0,0.0,0.0,0.0,0.0,0.0,0.0,0.0,0.0,0.0,0.0,0.0,0.0,0.0,0.0,-1.5817,-1.6547,-1.5318,-1.2185,-0.726,-0.4275,0.0,0.0,0.0,0.0,0.0,0.0,0.0,0.0,0.0,0.0,0.0,0.0,0.0,0.0,0.0,0.0,0.0,0.0,0.0,0.0,0.0,0.0,0.0,0.0,0.0,0.0,0.0,0.0,0.0,0.0,0.0,0.0,0.0,0.0,0.0,0.0,0.0,0.0,0.0,0.0,0.0,0.0,0.0,0.0,0.0,0.0,0.0,0.0,0.0,0.0,0.0,0.0,0.0,0.0,0.0,0.0,0.0,0.0,0.0,0.0,0.0,0.0,0.0,0.0,0.0,0.0,0.0,0.0,0.0,0.0,0.0,0.0,0.0,0.0,0.0,0.0,0.0,0.0,0.0,0.0,0.0,0.0,0.0,0.0,0.0,0.0,0.0,0.0,0.0,0.0,0.0,0.0,0.0,0.0,0.0,0.0,0.0,0.0,0.0,0.0,0.0,0.0,0.0,0.0,0.0,0.0,0.0,0.0,-1.3184,-1.6366,-1.9644,-2.0572,-1.8908,-1.2289,-0.7413,0.0,0.0,0.0,0.0,0.0,0.0,0.0,0.0,0.0,0.0,0.0,0.0,0.0,0.0,0.0,0.0,0.0,0.0,0.0,0.0,0.0,0.0,0.0,0.0,0.0,0.0,0.0,0.0,0.0,0.0,0.0,0.0,0.0,0.0,0.0,0.0,0.0,0.0,0.0,0.0,0.0,0.0,0.0,0.0,0.0,0.0,0.0,0.0,0.0,0.0,0.0,0.0,0.0,0.0,0.0,0.0,0.0,0.0,0.0,0.0,0.0,0.0,0.0,0.0,0.0,0.0,0.0,0.0,0.0,0.0,0.0,0.0,0.0,0.0,0.0,0.0,0.0,0.0,0.0,0.0,0.0,0.0,0.0,0.0,0.0,0.0,0.0,0.0,0.0,0.0,0.0,0.0,0.0,0.0,0.0,0.0,0.0,0.0,0.0,0.0,0.0,0.0,0.0,0.0,0.0,0.0,0.0,0.0,-1.4871,-1.5671,-2.1215,-2.4284,-2.4267,-1.7978,-1.1597,0.0,0.0,0.0,0.0,0.0,0.0,0.0,0.0,0.0,0.0,0.0,0.0,0.0,0.0,0.0,0.0,0.0,0.0,0.0,0.0,0.0,0.0,0.0,0.0,0.0,0.0,0.0,0.0,0.0,0.0,0.0,0.0,0.0,0.0,0.0,0.0,0.0,0.0,0.0,0.0,0.0,0.0,0.0,0.0,0.0,0.0,0.0,0.0,0.0,0.0,0.0,0.0,0.0,0.0,0.0,0.0,0.0,0.0,0.0,0.0,0.0,0.0,0.0,0.0,0.0,0.0,0.0,0.0,0.0,0.0,0.0,0.0,0.0,0.0,0.0,0.0,0.0,0.0,0.0,0.0,0.0,0.0,0.0,0.0,0.0,0.0,0.0,0.0,0.0,0.0,0.0,0.0,0.0,0.0,0.0,0.0,0.0,0.0,0.0,0.0,0.0,0.0,0.0,0.0,0.0,0.0,0.0,0.0,-1.6995,-2.2014,-2.3483,-2.42,-2.422,-1.7862,-1.3064,0.0,0.0,0.0,0.0,0.0,0.0,0.0,0.0,0.0,0.0,0.0,0.0,0.0,0.0,0.0,0.0,0.0,0.0,0.0,0.0,0.0,0.0,0.0,0.0,0.0,0.0,0.0,0.0,0.0,0.0,0.0,0.0,0.0,0.0,0.0,0.0,0.0,0.0,0.0,0.0,0.0,0.0,0.0,0.0,0.0,0.0,0.0,0.0,-0.1531,0.0,0.0,0.0,0.0,0.0,0.0,0.0,0.0,0.0,0.0,0.0,0.0,0.0,0.0,0.0,0.0,0.0,0.0,0.0,0.0,0.0,0.0,0.0,0.0,0.0,0.0,0.0,0.0,0.0,0.0,0.0,0.0,0.0,0.0,0.0,0.0,0.0,0.0,0.0,0.0,0.0,0.0,0.0,0.0,0.0,0.0,0.0,0.0,0.0,0.0,0.0,0.0,0.0,0.0,0.0,0.0,0.0,0.0,0.0,-1.6913,-2.173,-2.3391,-2.4122,-2.3794,-1.912,-1.534,0.0,0.0,0.0,0.0,0.0,0.0,0.0,0.0,0.0,0.0,0.0,0.0,0.0,0.0,0.0,0.0,0.0,0.0,0.0,0.0,0.0,0.0,0.0,0.0,0.0,0.0,0.0,0.0,0.0,0.0,0.0,0.0,0.0,0.0,0.0,0.0,0.0,0.0,0.0,0.0,0.0,0.0,0.0,0.0,0.0,0.0,0.0,0.0,0.0,0.0,0.0,0.0,0.0,0.0,0.0,0.0,0.0,0.0,0.0,0.0,0.0,0.0,0.0,0.0,0.0,0.0,0.0,0.0,0.0,0.0,0.0,0.0,0.0,0.0,0.0,0.0,0.0,0.0,0.0,0.0,0.0,0.0,0.0,0.0,0.0,0.0,0.0,0.0,0.0,0.0,0.0,0.0,0.0,0.0,0.0,0.0,0.0,0.0,0.0,0.0,0.0,0.0,0.0,0.0,0.0,0.0,0.0,-1.3123,-1.6316,-1.9968,-2.2767,-2.4065,-2.3741,-2.0625,-1.7444,-1.4229,0.0,0.0,0.0,0.0,0.0,0.0,0.0,0.0,0.0,0.0,0.0,0.0,0.0,0.0,0.0,0.0,0.0,0.0,0.0,0.0,0.0,0.0,0.0,0.0,0.0,0.0,0.0,0.0,0.0,0.0,0.0,0.0,0.0,0.0,0.0,0.0,0.0,0.0,-0.1983,-0.2453,0.0,0.0,0.0,0.0,0.0,0.0,0.0,0.0,-0.5538,0.0,0.0,0.0,0.0,0.0,0.0,0.0,0.0,0.0,0.0,0.0,0.0,0.0,0.0,0.0,0.0,0.0,0.0,0.0,0.0,0.0,0.0,0.0,0.0,0.0,0.0,0.0,0.0,0.0,0.0,0.0,0.0,0.0,0.0,0.0,0.0,0.0,0.0,0.0,0.0,0.0,0.0,0.0,0.0,0.0,0.0,0.0,0.0,0.0,0.0,0.0,0.0,0.0,0.0,0.0,0.0,-1.3637,-1.4242,-1.739,-2.3217,-2.3914,-2.418,-2.4031,-2.0885,-1.7582,-1.41,0.0,0.0,0.0,0.0,0.0,0.0,0.0,0.0,0.0,0.0,0.0,0.0,0.0,0.0,0.0,0.0,0.0,0.0,0.0,0.0,0.0,0.0,0.0,0.0,0.0,0.0,0.0,0.0,0.0,0.0,0.0,0.0,0.0,0.0,0.0,0.0,0.0,0.0,0.0,-0.5461,-0.6563,0.0,0.0,0.0,0.0,0.0,0.0,0.0,0.0,-0.7031,0.0,0.0,0.0,0.0,0.0,0.0,0.0,0.0,0.0,0.0,0.0,0.0,0.0,0.0,0.0,0.0,0.0,0.0,0.0,0.0,0.0,0.0,0.0,0.0,0.0,0.0,0.0,0.0,0.0,0.0,0.0,0.0,0.0,0.0,0.0,0.0,0.0,0.0,0.0,0.0,0.0,0.0,0.0,0.0,0.0,0.0,0.0,0.0,0.0,0.0,0.0,0.0,0.0,0.0,0.0,-1.4407,-1.6142,-1.9335,-2.3997,-2.4199,-2.4122,-2.3874,-2.0726,-1.7369,0.0,0.0,0.0,0.0,0.0,0.0,0.0,0.0,0.0,0.0,0.0,0.0,0.0,0.0,0.0,0.0,0.0,0.0,0.0,0.0,0.0,0.0,0.0,0.0,0.0,0.0,0.0,0.0,0.0,0.0,0.0,0.0,0.0,0.0,0.0,0.0,0.0,0.0,0.0,0.0,-0.7701,-0.9305,-0.4955,0.0,0.0,0.0,0.0,0.0,0.0,-0.6418,-0.7038,0.0,0.0,0.0,0.0,0.0,0.0,0.0,0.0,0.0,0.0,0.0,0.0,0.0,0.0,0.0,0.0,0.0,0.0,0.0,0.0,0.0,0.0,0.0,0.0,0.0,0.0,0.0,0.0,0.0,0.0,0.0,0.0,0.0,0.0,0.0,0.0,0.0,0.0,0.0,0.0,0.0,0.0,0.0,0.0,0.0,0.0,0.0,0.0,0.0,0.0,0.0,0.0,0.0,0.0,0.0,-1.4496,-1.757,-2.0757,-2.3823,-2.3996,-2.3867,-2.3534,-2.0265,-1.6896,0.0,0.0,0.0,0.0,0.0,0.0,0.0,0.0,0.0,0.0,0.0,0.0,0.0,0.0,0.0,0.0,0.0,0.0,0.0,0.0,0.0,0.0,0.0,0.0,0.0,0.0,0.0,0.0,0.0,0.0,0.0,0.0,0.0,0.0,0.0,0.0,0.0,0.0,0.0,0.0,0.0,-0.9992,-0.6349,-0.4693,0.0,0.0,0.0,0.0,-0.4775,-0.6407,0.0,0.0,0.0,0.0,0.0,0.0,0.0,0.0,0.0,0.0,0.0,0.0,0.0,0.0,0.0,0.0,0.0,0.0,0.0,0.0,0.0,0.0,0.0,0.0,0.0,0.0,0.0,0.0,0.0,0.0,0.0,0.0,0.0,0.0,0.0,0.0,0.0,0.0,0.0,0.0,0.0,0.0,0.0,0.0,0.0,0.0,0.0,0.0,0.0,0.0,0.0,0.0,0.0,0.0,0.0,0.0,-1.4113,-1.7263,-2.0375,-2.3136,-2.3323,-2.33,-2.3215,-1.9321,-1.6001,0.0,0.0,0.0,0.0,0.0,0.0,0.0,0.0,0.0,0.0,0.0,0.0,0.0,0.0,0.0,0.0,0.0,0.0,0.0,0.0,0.0,0.0,0.0,0.0,0.0,0.0,0.0,0.0,0.0,0.0,0.0,0.0,0.0,0.0,0.0,0.0,0.0,0.0,0.0,0.0,0.0,-0.6595,-0.8132,-0.6515,-0.4693,0.0,0.0,-0.3409,-0.5924,-0.4239,0.0,0.0,0.0,0.0,0.0,0.0,0.0,0.0,0.0,0.0,0.0,0.0,0.0,0.0,0.0,0.0,0.0,0.0,0.0,0.0,0.0,0.0,0.0,0.0,0.0,0.0,0.0,0.0,0.0,0.0,0.0,0.0,0.0,0.0,0.0,0.0,0.0,0.0,0.0,0.0,0.0,0.0,0.0,0.0,0.0,0.0,0.0,0.0,0.0,0.0,0.0,0.0,0.0,0.0,0.0,-1.3973,-1.4333,-1.8905,-2.2054,-2.3406,-2.33,-2.3189,-2.318,-1.9184,-1.5862,0.0,0.0,0.0,0.0,0.0,0.0,0.0,0.0,0.0,0.0,0.0,0.0,0.0,0.0,0.0,0.0,0.0,0.0,0.0,0.0,0.0,0.0,0.0,0.0,0.0,0.0,0.0,0.0,0.0,0.0,0.0,0.0,0.0,0.0,0.0,0.0,0.0,0.0,0.0,0.0,0.0,0.0,-0.8367,-0.7898,0.0,0.0,0.0,-0.3943,-0.6148,0.0,0.0,0.0,0.0,0.0,0.0,0.0,0.0,0.0,0.0,0.0,0.0,0.0,0.0,0.0,0.0,0.0,0.0,0.0,0.0,0.0,0.0,0.0,0.0,0.0,0.0,0.0,0.0,0.0,0.0,0.0,0.0,0.0,0.0,0.0,0.0,0.0,0.0,0.0,0.0,0.0,0.0,0.0,0.0,0.0,0.0,0.0,0.0,0.0,0.0,0.0,0.0,0.0,0.0,0.0,0.0,0.0,-1.4353,-2.0158,-2.3268,-2.3437,-2.3028,-2.2805,-2.2735,-1.9732,0.0,0.0,0.0,0.0,0.0,0.0,0.0,0.0,0.0,0.0,0.0,0.0,0.0,0.0,0.0,0.0,0.0,0.0,0.0,0.0,0.0,0.0,0.0,0.0,0.0,0.0,0.0,-0.0864,0.0,0.0,0.0,0.0,0.0,0.0,0.0,0.0,0.0,0.0,0.0,0.0,0.0,0.0,-0.4781,-0.832,-0.8808,-0.7718,0.0,0.0,-0.3885,-0.6262,-0.7833,-0.8108,0.0,0.0,0.0,0.0,0.0,0.0,0.0,0.0,0.0,0.0,0.0,0.0,0.0,0.0,0.0,0.0,0.0,0.0,0.0,0.0,0.0,0.0,0.0,0.0,0.0,0.0,0.0,0.0,0.0,0.0,0.0,0.0,0.0,0.0,0.0,0.0,0.0,0.0,0.0,0.0,0.0,0.0,0.0,0.0,0.0,0.0,0.0,0.0,0.0,0.0,0.0,0.0,0.0,0.0,0.0,-1.405,-2.0009,-2.3069,-2.2763,-2.2082,-2.1693,-2.1693,-2.1319,-1.8259,0.0,0.0,0.0,0.0,0.0,0.0,0.0,0.0,0.0,0.0,0.0,0.0,0.0,0.0,0.0,0.0,0.0,0.0,0.0,0.0,0.0,0.0,0.0,0.0,0.0,0.0,0.0,0.0,0.0,0.0,0.0,0.0,0.0,0.0,0.0,0.0,0.0,0.0,0.0,0.0,0.0,-0.4777,-0.832,-0.8808,-0.8146,0.0,0.0,-0.3106,-0.646,-0.7981,-0.8754,-0.8529,0.0,0.0,0.0,0.0,0.0,0.0,0.0,0.0,0.0,0.0,0.0,0.0,0.0,0.0,0.0,0.0,0.0,0.0,0.0,0.0,0.0,0.0,0.0,0.0,0.0,0.0,0.0,0.0,0.0,0.0,0.0,0.0,0.0,0.0,0.0,0.0,0.0,0.0,0.0,0.0,0.0,0.0,0.0,0.0,0.0,0.0,0.0,0.0,0.0,0.0,0.0,0.0,0.0,-1.4127,-1.3874,-1.9799,-2.2814,-2.2686,-2.2245,-2.189,-2.162,-2.115,-1.8165,0.0,0.0,0.0,0.0,0.0,0.0,0.0,0.0,0.0,0.0,0.0,0.0,0.0,0.0,0.0,0.0,0.0,0.0,0.0,0.0,0.0,0.0,0.0,0.0,0.0,0.0,0.0,0.0,-0.6543,-0.6543,-0.6538,0.0,0.0,0.0,0.0,0.0,0.0,0.0,0.0,0.0,0.0,-0.5771,-1.0617,-0.9877,0.0,0.0,-0.6363,-0.6389,-0.7224,-0.8186,-0.8808,-0.8808,-0.5278,0.0,0.0,0.0,0.0,0.0,0.0,0.0,0.0,0.0,0.0,0.0,0.0,0.0,0.0,0.0,0.0,0.0,0.0,0.0,0.0,0.0,0.0,0.0,0.0,0.0,0.0,0.0,0.0,0.0,0.0,0.0,0.0,0.0,0.0,0.0,0.0,0.0,0.0,0.0,0.0,0.0,0.0,0.0,0.0,0.0,0.0,0.0,0.0,0.0,0.0,0.0,0.0,-1.3959,-1.3815,-1.9669,-2.2704,-2.2704,-2.2181,-2.1751,-2.1422,-2.0706,-1.803,0.0,0.0,0.0,0.0,0.0,0.0,0.0,0.0,0.0,0.0,0.0,0.0,0.0,0.0,0.0,0.0,0.0,0.0,0.0,0.0,0.0,0.0,0.0,0.0,0.0,0.0,0.0,0.0,-0.3857,-0.2593,-0.2593,0.0,0.0,0.0,0.0,0.0,0.0,0.0,0.0,0.0,0.0,-0.6989,-1.1079,-1.0032,-0.8387,-0.7155,-0.7432,-0.7796,-0.7943,-0.7852,-0.7491,-0.6827,0.0,0.0,0.0,0.0,0.0,0.0,0.0,0.0,0.0,0.0,0.0,0.0,0.0,0.0,0.0,0.0,0.0,0.0,0.0,0.0,0.0,0.0,0.0,0.0,0.0,0.0,0.0,0.0,0.0,0.0,0.0,0.0,0.0,0.0,0.0,0.0,0.0,0.0,0.0,0.0,0.0,0.0,0.0,0.0,0.0,0.0,0.0,0.0,0.0,0.0,0.0,0.0,0.0,-1.3584,-1.3868,-1.9669,-2.2704,-2.2669,-2.1622,-2.1055,-2.0999,-2.0166,-1.8158,-1.4824,0.0,0.0,0.0,0.0,0.0,0.0,0.0,0.0,0.0,0.0,0.0,0.0,0.0,0.0,0.0,0.0,0.0,0.0,0.0,0.0,0.0,0.0,0.0,0.0,0.0,0.0,-1.2153,-0.6562,-0.2554,0.0,0.0,0.0,0.0,0.0,0.0,0.0,0.0,0.0,0.0,-0.6858,-0.8312,-0.8935,-0.8837,-0.829,-0.7141,-0.6102,-0.6166,-0.838,-0.687,-0.4589,0.0,0.0,0.0,0.0,0.0,0.0,0.0,0.0,0.0,0.0,0.0,0.0,0.0,0.0,0.0,0.0,0.0,0.0,0.0,0.0,0.0,0.0,0.0,0.0,0.0,0.0,0.0,-0.1628,-0.1476,0.0,0.0,0.0,0.0,0.0,0.0,0.0,0.0,0.0,0.0,0.0,-1.316,-1.283,0.0,0.0,0.0,0.0,0.0,0.0,0.0,0.0,0.0,0.0,0.0,0.0,-1.5046,-1.3877,-1.9598,-2.2608,-2.2426,-2.1761,-2.1275,-2.0999,-2.0431,-1.9012,-1.6712,0.0,0.0,0.0,0.0,0.0,0.0,0.0,0.0,0.0,0.0,0.0,0.0,0.0,0.0,0.0,0.0,0.0,0.0,0.0,0.0,0.0,0.0,0.0,0.0,0.0,-0.6068,0.0,0.0,0.0,0.0,0.0,0.0,0.0,0.0,0.0,0.0,0.0,-0.7462,-0.9943,-0.9396,-0.9397,-1.1279,-0.8625,-0.6583,0.0,0.0,0.0,0.0,0.0,0.0,0.0,0.0,0.0,0.0,0.0,0.0,0.0,0.0,-0.5265,-0.3411,-0.3791,-0.4208,-0.36,0.0,0.0,0.0,0.0,0.0,0.0,0.0,0.0,0.0,0.0,0.0,0.0,0.0,0.0,-0.6036,0.0,-0.4265,0.0,0.0,0.0,0.0,0.0,0.0,0.0,0.0,-1.3901,-1.5136,-1.5964,-1.5973,-1.5803,0.0,-1.4638,-1.196,0.0,0.0,0.0,0.0,0.0,0.0,0.0,0.0,-1.533,-1.2815,-1.9109,-2.2358,-2.199,-2.159,-2.1181,-2.0756,-1.9974,-1.8985,-1.7814,-1.4448,-1.107,0.0,0.0,0.0,0.0,0.0,0.0,0.0,0.0,0.0,0.0,0.0,0.0,0.0,0.0,0.0,0.0,0.0,0.0,0.0,0.0,0.0,0.0,0.0,-0.355,0.0,0.0,0.0,0.0,0.0,0.0,0.0,0.0,0.0,-0.7535,-0.7342,-0.7825,-0.9912,-0.9502,-0.9331,-1.0159,0.0,0.0,0.0,0.0,0.0,0.0,0.0,-0.5615,-0.4796,-0.6981,-0.8808,-0.8808,-0.6255,-0.4985,-0.7239,0.0,0.0,-0.5076,-0.5135,-0.5484,-0.5352,-0.5655,-0.6122,-0.6921,-0.6139,-0.5428,0.0,0.0,0.0,0.0,0.0,0.0,0.0,0.0,-1.1897,-1.2646,0.0,-0.8155,0.0,0.0,0.0,0.0,0.0,-1.5656,0.0,0.0,-2.1105,-2.2583,-1.9546,-1.9179,-1.9022,-1.8762,-1.5889,-1.4369,-1.4032,-1.2297,0.0,0.0,0.0,0.0,0.0,0.0,-1.4382,-1.1202,-1.8424,-2.2019,-2.1437,-2.1133,-2.0756,-2.0238,-1.8873,-1.8106,-1.7937,-1.5006,-1.4231,-1.6059,-0.804,0.0,0.0,0.0,0.0,0.0,0.0,0.0,0.0,0.0,0.0,0.0,0.0,0.0,0.0,0.0,0.0,0.0,0.0,0.0,0.0,-0.2804,0.0,0.0,0.0,0.0,0.0,0.0,0.0,0.0,0.0,0.0,-1.1728,-1.022,-0.7827,-0.5594,0.0,0.0,0.0,0.0,-0.5301,-0.5403,-0.6293,-0.662,-0.5544,-0.5324,-0.4973,-0.3921,0.0,0.0,-0.8808,-0.8788,-0.8649,-0.8791,-0.8744,-0.844,-0.7231,-0.65,-0.6597,-0.8243,-0.7762,-0.7518,-0.841,-0.7772,-0.7002,-1.0999,0.0,0.0,0.0,0.0,-1.2306,-1.2815,-1.3896,-1.3513,-1.3932,-1.4781,-1.2926,0.0,0.0,0.0,0.0,0.0,0.0,-1.6667,-1.8149,-2.0122,-2.1619,-2.2776,-2.2485,-2.2319,-2.2253,-2.1333,-2.0891,-2.0836,-2.0317,-1.6364,-0.918,0.0,0.0,0.0,0.0,-1.4521,-1.5364,-1.9875,-2.1998,-2.1412,-2.1141,-2.0442,-1.9317,-1.8521,-1.794,-1.7538,-1.625,-1.5043,-1.4038,-1.3107,0.0,0.0,0.0,0.0,0.0,0.0,0.0,0.0,0.0,0.0,0.0,0.0,0.0,0.0,0.0,0.0,0.0,0.0,0.0,-0.3081,-0.7038,-0.9028,0.0,0.0,0.0,0.0,0.0,0.0,0.0,0.0,0.0,-0.7139,-0.913,-0.9524,0.0,0.0,-0.8033,-1.0391,-0.7609,-0.5611,-0.64,-0.6804,0.0,0.0,-0.5825,-0.5742,-0.7068,-0.8156,-0.8808,-0.8808,-0.8808,-0.8808,-0.8808,-0.8808,-0.8684,-0.839,-0.813,-0.8163,-0.8657,-0.8517,-0.839,-0.8687,-0.8504,-0.828,-1.243,-1.1667,-1.1322,-1.2239,-1.3998,-1.4588,-1.5661,-1.7023,-1.7796,-1.8313,-1.8515,-1.7505,-1.7124,-1.7157,-1.5783,0.0,0.0,0.0,-1.852,-2.1601,-2.1466,-2.2401,-2.4106,-2.3846,-2.3701,-2.3701,-2.3701,-2.3701,-2.3665,-2.2683,-1.9462,-1.4199,0.0,0.0,-1.2187,-1.4142,-1.5297,-1.5827,-1.9873,-2.1777,-2.1256,-2.0536,-1.9763,-1.8923,-1.8178,-1.7626,-1.7312,-1.6795,-1.5722,-1.4155,-1.5616,-1.3735,0.0,0.0,0.0,0.0,0.0,0.0,0.0,0.0,0.0,0.0,0.0,-0.9172,0.0,0.0,0.0,0.0,-0.9871,-1.0347,-0.4154,-0.6748,0.0,0.0,0.0,0.0,0.0,0.0,0.0,-0.6724,-0.5297,-0.4811,-0.6037,-0.9427,-1.0811,-0.806,-0.6975,-0.7512,-1.0439,0.0,-0.5858,-0.7485,-0.7732,-0.7565,-0.7091,-0.6433,-0.6627,-0.8494,-0.8808,-0.8808,-0.8808,-0.8808,-0.8808,-0.8808,-0.8808,-0.8808,-0.8808,-0.8808,-0.8808,-0.8808,-0.8808,-0.8808,-0.8808,-0.8808,-0.8808,-1.3784,-1.468,-1.3326,-1.4053,-1.6133,-1.7313,-1.926,-2.1736,-2.3307,-2.4226,-2.4311,-2.1738,-2.0684,-2.0706,-1.7423,0.0,-2.0497,-2.0125,-2.168,-2.4771,-2.4401,-2.4209,-2.419,-2.3846,-2.3723,-2.3744,-2.3723,-2.3723,-2.3636,-2.135,-1.9715,-1.8905,-1.8527,-1.6893,-1.4262,-1.6347,-1.6492,-1.4479,-1.9001,-2.1181,-2.0918,-1.9636,-1.893,-1.8848,-1.7867,-1.7305,-1.7242,-1.6752,-1.6244,-1.572,-1.6101,-1.5844,-1.4519,0.0,0.0,0.0,0.0,0.0,0.0,0.0,0.0,0.0,0.0,0.0,0.0,0.0,0.0,0.0,-1.2065,0.0,-0.5536,-0.3707,0.0,0.0,0.0,-0.9565,-1.021,-0.9307,-0.8687,-0.8975,0.0,0.0,-0.7909,-1.0908,-1.1714,-0.8522,-0.7368,-0.7112,-0.7987,-0.6839,-0.6381,-0.8649,-0.8837,-0.8404,-0.7462,-0.7201,-0.7535,-0.8604,-0.8808,-0.8808,-0.8808,-0.8808,-0.8808,-0.8808,-0.8808,-0.8808,-0.8808,-0.8808,-0.8808,-0.8808,-0.8808,-0.8808,-0.8808,-0.8808,-0.8808,-1.5542,-1.6584,-1.6612,-1.7374,-1.856,-2.0005,-2.1465,-2.2812,-2.3236,-2.3938,-2.474,-2.4081,-2.4005,-2.4338,-2.3434,-2.3437,-2.4121,-2.3835,-2.4096,-2.4771,-2.4545,-2.4348,-2.419,-2.3846,-2.3846,-2.4065,-2.3825,-2.3825,-2.4018,-2.2966,-2.1469,-1.9695,-1.9057,-1.7399,-1.486,-1.5094,-1.7176,-2.0861,-1.9714,-1.9535,-2.042,-1.9823,-1.9125,-1.8309,-1.802,-1.7504,-1.671,-1.6552,-1.6423,-1.6287,-1.5567,-1.4971,-1.4675,-1.1612,0.0,0.0,0.0,0.0,0.0,0.0,0.0,0.0,0.0,-0.5796,-0.5103,0.0,-0.8683,0.0,-0.5039,-0.5054,-0.5083,-0.4743,0.0,0.0,-0.9102,-1.1509,-1.042,-1.0293,-0.9971,-0.9097,-1.019,-1.1196,-1.1606,-1.2368,-1.2588,-1.1728,-1.0329,-0.994,-1.1358,-0.9534,-0.8518,-0.9864,-0.9517,-0.8704,-0.8417,-0.838,-0.8457,-0.8758,-0.8808,-0.8808,-0.8808,-0.8808,-0.8808,-0.8808,-0.8808,-0.8808,-0.8808,-0.8808,-0.8808,-0.8808,-0.8808,-0.8808,-0.8808,-0.8808,-0.8808,-1.5648,-1.6522,-1.7491,-1.7867,-1.7988,-2.0461,-2.2003,-2.2745,-2.3311,-2.3987,-2.4704,-2.5051,-2.5334,-2.554,-2.5519,-2.5457,-2.538,-2.5107,-2.4962,-2.4877,-2.4639,-2.4426,-2.4339,-2.4047,-2.4025,-2.4208,-2.4025,-2.4007,-2.4151,-2.3522,-2.2574,-2.1359,-2.0723,-1.9199,-1.6786,-1.5592,-1.6732,-2.015,-1.9359,-1.93,-1.9993,-1.9573,-1.8477,-1.6696,-1.6388,-1.5432,-1.3644,-1.3578,-1.3423,-1.3107,-1.3303,-1.3578,-1.3862,-1.3243,-0.938,0.0,0.0,0.0,0.0,0.0,0.0,0.0,0.0,0.0,0.0,0.0,-0.8677,0.0,-0.582,-0.7559,-0.8496,-0.8584,-0.7935,-0.6348,-1.0171,-1.2542,-1.1543,-1.1645,-1.1519,-1.082,-1.1997,-1.2886,-1.2886,-1.2886,-1.2886,-1.2886,-1.2051,-1.1782,-1.2541,-1.156,-1.0685,-1.0767,-1.0677,-1.0135,-0.9064,-0.8808,-0.8808,-0.8808,-0.8808,-0.8808,-0.8808,-0.8808,-0.8808,-0.8808,-0.8808,-0.8808,-0.8808,-0.8808,-0.8808,-0.8808,-0.8808,-0.8808,-0.8808,-0.8808,-0.8808,-1.5291,-1.596,-1.7337,-1.7427,-1.6807,-2.0053,-2.142,-2.142,-2.2536,-2.3398,-2.4076,-2.5146,-2.5573,-2.5517,-2.5512,-2.5457,-2.537,-2.5107,-2.4998,-2.4962,-2.4651,-2.4495,-2.4453,-2.4247,-2.4151,-2.4199,-2.4161,-2.4132,-2.4113,-2.3522,-2.3047,-2.2694,-2.216,-2.0729,-1.8488,-1.6517,-1.5752,-1.6243,-1.8502,-1.9584,-1.9313,-1.8643,-1.7072,-1.4548,-1.3871,-1.2439,-1.0026,-0.9873,-0.9601,-0.9009,-1.045,-1.1681,-1.2413,-1.1901,-0.8892,0.0,-0.2593,0.0,0.0,0.0,0.0,0.0,0.0,0.0,0.0,-0.8347,-0.7253,-0.6178,-1.0234,-1.2886,-1.2886,-1.2886,-1.1978,-0.9858,-1.1514,-1.2886,-1.2881,-1.2886,-1.2886,-1.2886,-1.2886,-1.2886,-1.2886,-1.2886,-1.2886,-1.2881,-1.2812,-1.2764,-1.2876,-1.2779,-1.2255,-1.1023,-1.1846,-1.1347,-0.9368,-0.8808,-0.8808,-0.8808,-0.8808,-0.8808,-0.8808,-0.8808,-0.8808,-0.8808,-0.8808,-0.8808,-0.8808,-0.8808,-0.8808,-0.8808,-0.8808,-0.8808,-0.8808,-0.8808,-0.8808,-1.6657,-1.7659,-1.8394,-1.9194,-2.0099,-2.0791,-1.9623,-1.727,-1.7663,-1.9387,-2.2121,-2.4533,-2.561,-2.5576,-2.551,-2.5454,-2.5389,-2.5128,-2.4937,-2.4818,-2.4607,-2.4428,-2.4238,-2.3928,-2.3946,-2.417,-2.3917,-2.3795,-2.3786,-2.3401,-2.215,-2.0149,-1.9737,-1.8428,-1.6314,0.0,0.0,0.0,-1.7985,-1.89,-1.7277,-1.5854,-1.4246,-1.2496,-1.1724,0.0,-0.9951,-0.9873,-0.9802,-0.951,-0.8604,0.0,0.0,0.0,0.0,0.0,0.0,0.0,0.0,0.0,0.0,0.0,-0.9334,-0.7818,-0.9198,-0.8347,-0.8755,-1.1167,-1.2319,-1.2886,-1.2886,-1.2886,-1.2733,-1.2251,-1.2583,-1.2886,-1.2886,-1.2886,-1.2886,-1.2886,-1.2886,-1.2886,-1.2886,-1.2886,-1.2886,-1.2886,-1.2886,-1.2886,-1.2886,-1.2886,-1.2363,-1.1174,-1.117,-1.0626,-0.9064,-0.8804,-0.8808,-0.8808,-0.8808,-0.8808,-0.8808,-0.8808,-0.8808,-0.8808,-0.8808,-0.8808,-0.8808,-0.8808,-0.8804,-0.8808,-0.8804,-0.8808,-0.8808,-0.8808,-0.8808,-1.6925,0.0,-1.8309,-1.8692,0.0,-1.9205,-1.8017,-1.6058,-1.8851,-2.1275,-2.3405,-2.4896,-2.554,-2.5478,-2.4234,-2.3636,-2.3509,-2.2096,-2.2021,-2.3003,-2.2844,-2.3349,-2.4358,-2.4057,-2.4045,-2.4199,-2.4016,-2.3867,-2.3692,-2.336,-2.2456,-2.1045,-2.073,-2.0018,-1.892,-1.8282,-1.7197,-1.566,-1.831,-1.921,-1.8134,-1.5744,-1.4088,-1.3347,0.0,0.0,0.0,0.0,0.0,0.0,0.0,0.0,0.0,0.0,0.0,-0.7554,-0.7705,-0.7676,-0.7749,-0.9925,-1.166,-1.2759,-1.1217,-0.9706,-0.8663,-0.9568,-1.0986,-1.2686,-1.2886,-1.2886,-1.2886,-1.2886,-1.2886,-1.2886,-1.2886,-1.2886,-1.2886,-1.2886,-1.2886,-1.2886,-1.2886,-1.2886,-1.2886,-1.2886,-1.2886,-1.2886,-1.2886,-1.2886,-1.2886,-1.2886,-1.2569,-1.1841,-1.0529,-0.9814,-0.9766,-0.9159,-0.8804,-0.8808,-0.8808,-0.8808,-0.8808,-0.8808,-0.8808,-0.8808,-0.8808,-0.8808,-0.8808,-0.8808,-0.8962,-0.9312,-0.911,-0.9012,-0.9312,-0.9113,-0.8808,-1.6697,-1.7347,-1.786,-1.782,-1.7418,-1.7958,-1.7773,-1.7338,0.0,0.0,0.0,-2.524,-2.5508,-2.5362,-2.3368,-2.2422,-2.222,-2.0117,-2.0098,-2.1823,-2.1733,-2.2654,-2.4399,-2.4154,-2.4083,-2.4208,-2.4083,-2.3896,-2.3628,-2.3337,-2.3005,-2.2643,-2.2398,-2.2209,-2.202,-2.1362,-1.9838,-1.7669,-1.8958,-1.9523,-1.9111,-1.6631,-1.4987,-1.4311,-1.3641,-1.2206,-1.0013,-0.9422,-0.9046,-0.8811,-0.8315,-0.6696,-0.3823,-0.6158,-0.9237,-1.2554,-1.2886,-1.2886,-1.2856,-1.1108,-1.0845,-1.2759,-1.2886,-1.168,-0.879,-1.1245,-1.2886,-1.2886,-1.2886,-1.2886,-1.2886,-1.2886,-1.2886,-1.2886,-1.2886,-1.2886,-1.2886,-1.2886,-1.2886,-1.2886,-1.2886,-1.2886,-1.2886,-1.2886,-1.2886,-1.2886,-1.2886,-1.2886,-1.2886,-1.2886,-1.2886,-1.2622,-1.12,-1.0079,-1.0728,-1.0423,-0.9465,-0.9309,-0.9008,-0.8962,-0.942,-0.9524,-0.9521,-0.9777,-0.9521,-0.9469,-0.9162,-0.8906,-0.9162,-1.0012,-0.9869,-0.9673,-1.0068,-0.951,-0.8804,-1.6213,-1.7353,-1.786,-1.8534,-1.9263,-2.0143,-2.1331,-2.2518,-2.1482,-2.14,-2.2251,-2.4512,-2.5527,-2.5565,-2.5164,-2.4982,-2.4953,-2.4448,-2.4264,-2.4294,-2.4275,-2.4264,-2.4209,-2.3631,-2.3631,-2.4122,-2.3601,-2.3323,-2.3268,-2.3221,-2.2899,-2.2415,-2.2302,-2.1915,-2.1221,-2.1063,-2.0424,-1.9341,-1.9587,-1.8857,-1.7174,-1.7467,-1.5898,-1.247,-1.1212,-1.0345,-0.9934,-0.9846,-0.9475,-0.8844,-0.8706,-0.8149,-0.7107,-0.7481,-0.9268,-1.2529,-1.2886,-1.2886,-1.2886,-1.2563,-1.2529,-1.2837,-1.2886,-1.2646,-1.2236,-1.2588,-1.2886,-1.2886,-1.2886,-1.2886,-1.2886,-1.2886,-1.2886,-1.2886,-1.2886,-1.2886,-1.2886,-1.2886,-1.2886,-1.2886,-1.2886,-1.2886,-1.2886,-1.2886,-1.2886,-1.2886,-1.2886,-1.2886,-1.2886,-1.2886,-1.2886,-1.2886,-1.2627,-1.2421,-1.2368,-1.2471,-1.1706,-1.0665,-0.9669,-0.9781,-1.1706,-1.1968,-1.2013,-1.222,-1.2017,-1.1551,-1.0372,-0.9312,-0.9413,-1.0171,-1.1086,-1.1805,-1.0973,-0.971,-0.8804,-1.6306,-1.6905,-1.7726,-1.8691,-1.972,-2.103,-2.2427,-2.3694,-2.2938,-2.2939,-2.3697,-2.4957,-2.551,-2.5413,-2.4138,-2.3517,-2.3373,-2.1942,-2.1851,-2.2798,-2.2771,-2.3319,-2.4265,-2.3948,-2.3896,-2.4142,-2.3714,-2.336,-2.3198,-2.3012,-2.2704,-2.2302,-2.2032,-2.1606,-2.1031,-2.0756,-2.0322,-1.9726,-1.9697,-1.9248,-1.8339,-1.8177,-1.717,-1.5301,-1.4098,-1.3477,-1.3476,-1.3153,-1.2848,-1.251,-1.1848,-1.1222,-1.0557,-1.0518,-1.123,-1.2759,-1.2886,-1.2886,-1.2886,-1.2886,-1.2886,-1.2886,-1.2886,-1.2886,-1.2886,-1.2886,-1.2886,-1.2886,-1.2886,-1.2886,-1.2886,-1.2886,-1.2886,-1.2886,-1.2886,-1.2886,-1.2886,-1.2886,-1.2886,-1.2886,-1.2886,-1.2886,-1.2886,-1.2886,-1.2886,-1.2886,-1.2886,-1.2886,-1.2886,-1.2886,-1.2886,-1.2886,-1.2886,-1.2886,-1.2886,-1.2886,-1.2622,-1.1999,-1.1451,-1.1556,-1.2783,-1.2886,-1.2886,-1.2886,-1.2886,-1.2622,-1.1697,-1.0681,-1.0423,-1.0918,-1.194,-1.2304,-1.1329,-0.9917,-0.8906,-1.6213,-1.6506,-1.7639,-1.8797,-1.9993,-2.1301,-2.2581,-2.3727,-2.4034,-2.4562,-2.5202,-2.5408,-2.5513,-2.5299,-2.3535,-2.2689,-2.2289,-2.0499,-2.0505,-2.1895,-2.1903,-2.2776,-2.427,-2.4134,-2.4045,-2.4132,-2.3723,-2.3369,-2.3165,-2.2788,-2.2439,-2.2135,-2.1773,-2.1407,-2.0999,-2.0516,-2.0097,-1.9711,-1.9522,-1.9493,-1.9486,-1.8356,-1.7791,-1.7854,-1.698,-1.6528,-1.6485,-1.6058,-1.5688,-1.5365,-1.4509,-1.37,-1.2973,-1.2886,-1.2886,-1.2886,-1.2886,-1.2886,-1.2886,-1.2886,-1.2886,-1.2886,-1.2886,-1.2886,-1.2886,-1.2886,-1.2886,-1.2886,-1.2886,-1.2886,-1.2886,-1.2886,-1.2886,-1.2886,-1.2886,-1.2886,-1.2886,-1.2886,-1.2886,-1.2886,-1.2886,-1.2886,-1.2886,-1.2886,-1.2886,-1.2886,-1.2886,-1.2886,-1.2886,-1.2886,-1.2886,-1.2886,-1.2886,-1.2886,-1.2886,-1.2886,-1.2881,-1.2886,-1.2837,-1.2735,-1.2886,-1.2886,-1.2886,-1.2886,-1.2886,-1.2832,-1.2779,-1.2053,-1.1584,-1.1981,-1.2505,-1.2666,-1.1999,-1.0889,-0.9877,-1.5481,-1.6506,-1.7626,-1.9185,-2.0805,-2.1039,-2.2053,-2.3458,-2.3746,-2.4281,-2.5044,-2.5358,-2.5513,-2.5498,-2.5265,-2.509,-2.5024,-2.4826,-2.4522,-2.4369,-2.4455,-2.4385,-2.421,-2.3619,-2.3619,-2.4025,-2.3282,-2.2996,-2.3165,-2.2495,-2.2009,-2.171,-2.162,-2.136,-2.0999,-2.0509,-2.0089,-1.9718,-1.905,-1.8772,-1.8857,-1.7445,-1.689,-1.734,-1.6831,-1.6528,-1.6528,-1.6429,-1.5926,-1.4926,-1.4698,-1.4066,-1.3065,-1.2934,-1.2886,-1.2886,-1.2886,-1.2886,-1.2886,-1.2886,-1.2886,-1.2886,-1.2886,-1.2886,-1.2886,-1.2886,-1.2886,-1.2886,-1.2886,-1.2886,-1.2886,-1.2886,-1.2886,-1.2886,-1.2886,-1.2886,-1.2886,-1.2886,-1.2886,-1.2886,-1.2886,-1.2886,-1.2886,-1.2886,-1.2886,-1.2886,-1.2886,-1.2886,-1.2886,-1.2886,-1.2886,-1.2886,-1.2886,-1.2886,-1.2886,-1.2886,-1.2886,-1.2886,-1.2886,-1.2886,-1.2886,-1.2886,-1.2886,-1.2886,-1.2886,-1.2886,-1.2886,-1.273,-1.2676,-1.2569,-1.2774,-1.2881,-1.2779,-1.2421,-1.217,-1.5318,-1.6437,-1.7397,-1.8958,-2.0662,-2.1147,-2.2153,-2.3497,-2.3925,-2.4448,-2.5008,-2.5338,-2.5513,-2.5517,-2.5606,-2.5603,-2.5503,-2.5469,-2.5329,-2.508,-2.4902,-2.4716,-2.45,-2.403,-2.3946,-2.4122,-2.336,-2.3078,-2.3012,-2.2271,-2.1736,-2.156,-2.1094,-2.074,-2.0558,-2.0166,-1.9874,-1.9682,-1.8772,-1.8334,-1.8274,-1.7182,-1.6744,-1.7155,-1.6795,-1.6528,-1.6528,-1.6528,-1.6107,-1.5281,-1.488,-1.4468,-1.3978,-1.3291,-1.2886,-1.2886,-1.2886,-1.2886,-1.2886,-1.2886,-1.2886,-1.2886,-1.2886,-1.2886,-1.2886,-1.2886,-1.2886,-1.2886,-1.2886,-1.2886,-1.2886,-1.2886,-1.2886,-1.2886,-1.2886,-1.2886,-1.2886,-1.2886,-1.2886,-1.2886,-1.2886,-1.2886,-1.2886,-1.2886,-1.2886,-1.2886,-1.2886,-1.2886,-1.2886,-1.2886,-1.2886,-1.2886,-1.2886,-1.2886,-1.2886,-1.2886,-1.2886,-1.2886,-1.2886,-1.2886,-1.2886,-1.2886,-1.2886,-1.2886,-1.2886,-1.2886,-1.2886,-1.2886,-1.2886,-1.2886,-1.2886,-1.2886,-1.2886,-1.2886,-1.2886,-1.5345,-1.6416,-1.763,-1.9095,-2.0607,-2.1146,-2.2152,-2.3386,-2.3953,-2.4451,-2.4968,-2.5347,-2.5513,-2.5527,-2.5645,-2.5623,-2.5513,-2.5508,-2.5399,-2.5212,-2.4932,-2.4784,-2.4685,-2.4164,-2.4034,-2.4054,-2.3341,-2.2814,-2.2574,-2.198,-2.1491,-2.1197,-2.0608,-2.0306,-2.0238,-1.9902,-1.9697,-1.9603,-1.8664,-1.8099,-1.798,-1.7034,-1.6674,-1.6993,-1.6716,-1.6528,-1.6528,-1.6528,-1.6151,-1.5359,-1.4926,-1.4566,-1.4206,-1.3392,-1.2886,-1.2886,-1.2886,-1.2886,-1.2886,-1.2886,-1.2886,-1.2886,-1.2886,-1.2886,-1.2886,-1.2886,-1.2886,-1.2886,-1.2886,-1.2886,-1.2886,-1.2886,-1.2886,-1.2886,-1.2886,-1.2886,-1.2886,-1.2886,-1.2886,-1.2886,-1.2886,-1.2886,-1.2886,-1.2886,-1.2886,-1.2886,-1.2886,-1.2886,-1.2886,-1.2886,-1.2886,-1.2886,-1.2886,-1.2886,-1.2886,-1.2886,-1.2886,-1.2886,-1.2886,-1.2886,-1.2886,-1.2886,-1.2886,-1.2886,-1.2886,-1.2886,-1.2886,-1.2886,-1.2886,-1.2886,-1.2886,-1.2886,-1.2886,-1.2886,-1.2886,-1.5339,-1.659,-1.8693,-1.9913,-2.0623,-2.0919,-2.1873,-2.3247,-2.3673,-2.4185,-2.4818,-2.5294,-2.5513,-2.5517,-2.5636,-2.5633,-2.5522,-2.5508,-2.5329,-2.5053,-2.4883,-2.47,-2.4478,-2.3663,-2.3597,-2.3976,-2.3009,-2.2039,-2.129,-2.146,-2.1165,-2.0416,-2.0314,-2.0272,-2.0177,-1.9874,-1.9682,-1.9486,-1.8612,-1.8106,-1.794,-1.7034,-1.6515,-1.6558,-1.6515,-1.6528,-1.6528,-1.6528,-1.597,-1.4801,-1.4744,-1.4206,-1.3157,-1.2929,-1.2886,-1.2886,-1.2886,-1.2886,-1.2886,-1.2886,-1.2886,-1.2886,-1.2886,-1.2886,-1.2886,-1.2886,-1.2886,-1.2886,-1.2886,-1.2886,-1.2886,-1.2886,-1.2886,-1.2886,-1.2886,-1.2886,-1.2886,-1.2886,-1.2886,-1.2886,-1.2886,-1.2886,-1.2886,-1.2886,-1.2886,-1.2886,-1.2886,-1.2886,-1.2886,-1.2886,-1.2886,-1.2886,-1.2886,-1.2886,-1.2886,-1.2886,-1.2886,-1.2886,-1.2886,-1.2886,-1.2886,-1.2886,-1.2886,-1.2886,-1.2886,-1.2886,-1.2886,-1.2886,-1.2886,-1.2886,-1.2886,-1.2886,-1.2886,-1.2886,-1.2886,-1.5792,-1.7545,-1.8698,-1.9826,-2.0847,-2.0975,-2.1815,-2.3194,-2.3624,-2.4177,-2.4799,-2.5304,-2.5513,-2.5517,-2.5636,-2.5623,-2.5522,-2.5508,-2.5388,-2.5171,-2.4913,-2.4663,-2.4321,-2.3787,-2.3491,-2.3446,-2.2865,-2.2155,-2.143,-2.1267,-2.0918,-2.0356,-2.0027,-1.978,-1.9507,-1.9616,-1.9406,-1.8688,-1.8263,-1.794,-1.7585,-1.6879,-1.6528,-1.6528,-1.6528,-1.6528,-1.6528,-1.6528,-1.6095,-1.5326,-1.4926,-1.416,-1.3065,-1.2886,-1.2886,-1.2886,-1.2886,-1.2886,-1.2886,-1.2886,-1.2886,-1.2886,-1.2886,-1.2886,-1.2886,-1.2886,-1.2886,-1.2886,-1.2886,-1.2886,-1.2886,-1.2886,-1.2886,-1.2886,-1.2886,-1.2886,-1.2886,-1.2886,-1.2886,-1.2886,-1.2886,-1.2886,-1.2886,-1.2886,-1.2886,-1.2886,-1.2886,-1.2886,-1.2886,-1.2886,-1.2886,-1.2886,-1.2886,-1.2886,-1.2886,-1.2886,-1.2886,-1.2886,-1.2886,-1.2886,-1.2886,-1.2886,-1.2886,-1.2886,-1.2886,-1.2886,-1.2886,-1.2886,-1.2886,-1.2886,-1.2886,-1.2886,-1.2886,-1.2886,-1.2886,-1.5954,-1.7603,-1.8548,-1.9692,-2.0934,-2.0999,-2.1766,-2.3034,-2.3583,-2.4133,-2.467,-2.5252,-2.5513,-2.5527,-2.5626,-2.5633,-2.5522,-2.5516,-2.5388,-2.5202,-2.4932,-2.4644,-2.4304,-2.3808,-2.35,-2.3291,-2.2889,-2.2243,-2.1452,-2.1118,-2.069,-2.0097,-1.9811,-1.9442,-1.905,-1.9281,-1.8983,-1.8224,-1.794,-1.7626,-1.7271,-1.6795,-1.6528,-1.6528,-1.6528,-1.6528,-1.6528,-1.6528,-1.6232,-1.5632,-1.5011,-1.416,-1.3065,-1.2886,-1.2886,-1.2886,-1.2886,-1.2886,-1.2886,-1.2886,-1.2886,-1.2886,-1.2886,-1.2886,-1.2886,-1.2886,-1.2886,-1.2886,-1.2886,-1.2886,-1.2886,-1.2886,-1.2886,-1.2886,-1.2886,-1.2886,-1.2886,-1.2886,-1.2886,-1.2886,-1.2886,-1.2886,-1.2886,-1.2886,-1.2886,-1.2886,-1.2886,-1.2886,-1.2886,-1.2886,-1.2886,-1.2886,-1.2886,-1.2886,-1.2886,-1.2886,-1.2886,-1.2886,-1.2886,-1.2886,-1.2886,-1.2886,-1.2886,-1.2886,-1.2886,-1.2886,-1.2886,-1.2886,-1.2886,-1.2886,-1.2886,-1.2886,-1.2886,-1.2886,-1.2886,-1.577,-1.6824,-1.8218,-1.9692,-2.095,-2.1015,-2.1644,-2.2745,-2.3494,-2.4007,-2.4448,-2.5149,-2.5513,-2.5537,-2.5616,-2.5623,-2.5513,-2.5498,-2.5319,-2.5022,-2.486,-2.4666,-2.4397,-2.362,-2.3323,-2.3455,-2.2947,-2.2068,-2.1086,-2.0959,-2.0532,-1.9846,-1.9675,-1.9325,-1.8848,-1.8848,-1.8619,-1.802,-1.7544,-1.7305,-1.7229,-1.6752,-1.6528,-1.6528,-1.6528,-1.6528,-1.6528,-1.6528,-1.6232,-1.5676,-1.5062,-1.4165,-1.3109,-1.2886,-1.2886,-1.2886,-1.2886,-1.2886,-1.2886,-1.2886,-1.2886,-1.2886,-1.2886,-1.2886,-1.2886,-1.2886,-1.2886,-1.2886,-1.2886,-1.2886,-1.2886,-1.2886,-1.2886,-1.2886,-1.2886,-1.2886,-1.2886,-1.2886,-1.2886,-1.2886,-1.2886,-1.2886,-1.2886,-1.2886,-1.2886,-1.2886,-1.2886,-1.2886,-1.2886,-1.2886,-1.2886,-1.2886,-1.2886,-1.2886,-1.2886,-1.2886,-1.2886,-1.2886,-1.2886,-1.2886,-1.2886,-1.2886,-1.2886,-1.2886,-1.2886,-1.2886,-1.2886,-1.2886,-1.2886,-1.2886,-1.2886,-1.2886,-1.2886,-1.2886,-1.2886,-1.6083,-1.7289,-1.8021,-1.9485,-2.1151,-2.1087,-2.1652,-2.2737,-2.3482,-2.4007,-2.4413,-2.5158,-2.5513,-2.5527,-2.5587,-2.5582,-2.5503,-2.544,-2.527,-2.5018,-2.4879,-2.456,-2.4091,-2.3503,-2.3014,-2.2704,-2.2203,-2.1639,-2.1078,-2.069,-2.0235,-1.9739,-1.9325,-1.8893,-1.8412,-1.8348,-1.794,-1.7111,-1.7194,-1.7146,-1.6795,-1.6601,-1.6528,-1.6528,-1.6528,-1.6528,-1.6528,-1.6528,-1.6429,-1.6188,-1.5248,-1.4154,-1.3157,-1.2886,-1.2886,-1.2886,-1.2886,-1.2886,-1.2886,-1.2886,-1.2886,-1.2886,-1.2886,-1.2886,-1.2886,-1.2886,-1.2886,-1.2886,-1.2886,-1.2886,-1.2886,-1.2886,-1.2886,-1.2886,-1.2886,-1.2886,-1.2886,-1.2886,-1.2886,-1.2886,-1.2886,-1.2886,-1.2934,-1.2934,-1.2973,-1.2886,-1.2886,-1.2886,-1.2886,-1.2886,-1.2886,-1.2886,-1.2886,-1.2934,-1.2886,-1.2886,-1.2886,-1.2886,-1.2886,-1.2886,-1.2886,-1.2886,-1.2886,-1.2886,-1.2886,-1.2886,-1.2886,-1.2886,-1.2886,-1.2886,-1.2886,-1.2886,-1.2886,-1.2886,-1.2886,-1.6456,-1.7596,-1.7951,-1.9376,-2.1295,-2.1111,-2.1579,-2.2609,-2.344,-2.3916,-2.4269,-2.5096,-2.5513,-2.5527,-2.5577,-2.5549,-2.5486,-2.5436,-2.5219,-2.4965,-2.4855,-2.4477,-2.387,-2.327,-2.2781,-2.2296,-2.1832,-2.1397,-2.099,-2.0511,-2.0097,-1.9675,-1.9169,-1.865,-1.8138,-1.786,-1.7347,-1.6674,-1.6837,-1.6844,-1.6601,-1.6528,-1.6528,-1.6528,-1.6528,-1.6528,-1.6528,-1.6528,-1.638,-1.6051,-1.5197,-1.416,-1.307,-1.2886,-1.2886,-1.2886,-1.2886,-1.2886,-1.2886,-1.2886,-1.2886,-1.2886,-1.2886,-1.2886,-1.2886,-1.2886,-1.2886,-1.2886,-1.2886,-1.2886,-1.2886,-1.2886,-1.2886,-1.2886,-1.2886,-1.2886,-1.2886,-1.2886,-1.2886,-1.2886,-1.2886,-1.2886,-1.2934,-1.343,-1.3291,-1.307,-1.2886,-1.2886,-1.2886,-1.2886,-1.3118,-1.3205,-1.3109,-1.3065,-1.2934,-1.2886,-1.2886,-1.2886,-1.2886,-1.2886,-1.2886,-1.2886,-1.2886,-1.2886,-1.2886,-1.2886,-1.2886,-1.2886,-1.2886,-1.2886,-1.2886,-1.2886,-1.2886,-1.2886,-1.2886,-1.6979,-1.7616,-1.799,-1.9413,-2.1199,-2.1103,-2.1515,-2.2392,-2.3372,-2.3804,-2.406,-2.5019,-2.5513,-2.5508,-2.5556,-2.5541,-2.5493,-2.5379,-2.5141,-2.4865,-2.4712,-2.4307,-2.3647,-2.3028,-2.2616,-2.2257,-2.1756,-2.134,-2.0986,-2.0464,-2.0097,-1.9682,-1.9088,-1.8612,-1.8059,-1.7544,-1.6993,-1.6595,-1.6515,-1.6515,-1.6528,-1.6528,-1.6528,-1.6528,-1.6528,-1.6528,-1.6528,-1.6337,-1.6014,-1.5549,-1.4966,-1.416,-1.3162,-1.2886,-1.2886,-1.2886,-1.2886,-1.2886,-1.2886,-1.2886,-1.2886,-1.2886,-1.2886,-1.2886,-1.2886,-1.2886,-1.2886,-1.2886,-1.2886,-1.2886,-1.2886,-1.2886,-1.2886,-1.2886,-1.2886,-1.2886,-1.2886,-1.2886,-1.2886,-1.2886,-1.2886,-1.2886,-1.2934,-1.3836,-1.3931,-1.3705,-1.3392,-1.3301,-1.3568,-1.3889,-1.3878,-1.3925,-1.4066,-1.3836,-1.3889,-1.2983,-1.3027,-1.3478,-1.3253,-1.2886,-1.2886,-1.2886,-1.2886,-1.2886,-1.2886,-1.2886,-1.2886,-1.2886,-1.2886,-1.2886,-1.2886,-1.2886,-1.2886,-1.2886,-1.2886,-1.78,-1.8037,-1.8475,-1.9643,-2.099,-2.1015,-2.1493,-2.2381,-2.3354,-2.3813,-2.406,-2.5009,-2.5513,-2.5516,-2.5525,-2.5517,-2.5447,-2.5224,-2.5013,-2.4766,-2.4366,-2.39,-2.3365,-2.2914,-2.2563,-2.222,-2.156,-2.1116,-2.0923,-2.021,-1.9803,-1.9682,-1.8772,-1.827,-1.7994,-1.7201,-1.6674,-1.6522,-1.6528,-1.6528,-1.6528,-1.6528,-1.6528,-1.6528,-1.6528,-1.6528,-1.6386,-1.5605,-1.5158,-1.4971,-1.4789,-1.416,-1.3022,-1.2886,-1.2886,-1.2886,-1.2886,-1.2886,-1.2886,-1.2886,-1.2886,-1.2886,-1.2886,-1.2886,-1.2886,-1.2886,-1.2886,-1.2886,-1.2886,-1.2886,-1.2886,-1.2886,-1.2886,-1.2886,-1.2886,-1.2886,-1.2886,-1.2886,-1.2886,-1.2886,-1.2934,-1.2978,-1.3113,-1.3789,-1.4652,-1.5062,-1.4789,-1.4433,-1.4835,-1.5158,-1.5293,-1.5611,-1.5706,-1.5293,-1.4703,-1.3573,-1.3296,-1.3978,-1.3705,-1.2886,-1.2886,-1.2886,-1.2886,-1.2886,-1.2886,-1.2886,-1.2886,-1.2886,-1.2886,-1.2886,-1.2886,-1.2886,-1.2886,-1.2886,-1.2886,-1.7959,-1.7813,-1.876,-1.9904,-2.0959,-2.1189,-2.1757,-2.2634,-2.344,-2.3962,-2.4325,-2.5101,-2.553,-2.5543,-2.5517,-2.5515,-2.5466,-2.5146,-2.4934,-2.4669,-2.4016,-2.3441,-2.2996,-2.2669,-2.2436,-2.2229,-2.1424,-2.1062,-2.0791,-1.9896,-1.9508,-1.9406,-1.8412,-1.79,-1.8059,-1.707,-1.6528,-1.6528,-1.6528,-1.6528,-1.6528,-1.6528,-1.6528,-1.6528,-1.6528,-1.6528,-1.6343,-1.5338,-1.4703,-1.4612,-1.4253,-1.3615,-1.3022,-1.2886,-1.2886,-1.2886,-1.2886,-1.2886,-1.2886,-1.2886,-1.2886,-1.2886,-1.2886,-1.2886,-1.2886,-1.2886,-1.2886,-1.2886,-1.2886,-1.2886,-1.2886,-1.2886,-1.2886,-1.2886,-1.2886,-1.2886,-1.2886,-1.2886,-1.2886,-1.2973,-1.3152,-1.3248,-1.306,-1.4149,-1.5332,-1.6064,-1.5838,-1.5876,-1.6145,-1.6429,-1.6528,-1.6528,-1.6436,-1.5888,-1.5567,-1.4709,-1.3387,-1.3931,-1.3705,-1.2983,-1.2886,-1.2886,-1.2886,-1.2886,-1.2886,-1.2886,-1.2886,-1.2886,-1.2886,-1.2886,-1.2886,-1.2886,-1.2886,-1.2886,-1.2886,-1.745,-1.7322,-1.8852,-2.0089,-2.0975,-2.1483,-2.2146,-2.2988,-2.3628,-2.4171,-2.4676,-2.5243,-2.5517,-2.5571,-2.5514,-2.5485,-2.5466,-2.5113,-2.4776,-2.4349,-2.3689,-2.3061,-2.2678,-2.2472,-2.2349,-2.2152,-2.1432,-2.1055,-2.0665,-1.9622,-1.9214,-1.9109,-1.8033,-1.7626,-1.7659,-1.6993,-1.6565,-1.6528,-1.6528,-1.6528,-1.6528,-1.6528,-1.6528,-1.6528,-1.6528,-1.6528,-1.6207,-1.5389,-1.4703,-1.4703,-1.3568,-1.3017,-1.2886,-1.2886,-1.2886,-1.2886,-1.2886,-1.2886,-1.2886,-1.2886,-1.2886,-1.2886,-1.2886,-1.2886,-1.2886,-1.2886,-1.2886,-1.2886,-1.2886,-1.2886,-1.2886,-1.2886,-1.2886,-1.2886,-1.2886,-1.2886,-1.2934,-1.2973,-1.307,-1.2978,-1.3605,-1.3695,-1.4061,-1.4886,-1.6392,-1.6343,-1.625,-1.6293,-1.6429,-1.6479,-1.6528,-1.6528,-1.6392,-1.6207,-1.607,-1.5894,-1.4525,-1.3752,-1.3387,-1.2886,-1.2886,-1.2886,-1.2886,-1.2886,-1.2886,-1.2886,-1.2886,-1.2886,-1.2886,-1.2886,-1.2886,-1.2886,-1.2886,-1.2886,-1.2886,-1.5233,-1.7282,-1.8344,-1.967,-2.0983,-2.1703,-2.2382,-2.3067,-2.3869,-2.4374,-2.478,-2.5263,-2.5493,-2.5514,-2.5504,-2.5481,-2.5349,-2.4951,-2.4416,-2.355,-2.337,-2.2874,-2.249,-2.2302,-2.2302,-2.2077,-2.1424,-2.0998,-2.0649,-1.9652,-1.8966,-1.891,-1.7968,-1.7347,-1.7388,-1.6915,-1.6528,-1.6528,-1.6528,-1.6528,-1.6528,-1.6528,-1.6528,-1.6528,-1.6528,-1.6528,-1.6244,-1.5338,-1.4755,-1.4433,-1.361,-1.2886,-1.2886,-1.2886,-1.2886,-1.2886,-1.2886,-1.2886,-1.2886,-1.2886,-1.2886,-1.2886,-1.2886,-1.2886,-1.2886,-1.2886,-1.2886,-1.2886,-1.2886,-1.2934,-1.32,-1.2978,-1.2978,-1.3027,-1.2983,-1.2934,-1.307,-1.37,-1.3652,-1.3435,-1.3889,-1.4835,-1.5466,-1.5371,-1.6151,-1.6392,-1.6528,-1.6528,-1.6528,-1.6528,-1.6528,-1.6528,-1.6442,-1.6343,-1.63,-1.607,-1.4977,-1.3705,-1.3118,-1.2886,-1.2886,-1.2886,-1.2886,-1.2886,-1.2886,-1.2886,-1.2886,-1.2886,-1.2886,-1.2886,-1.2886,-1.2886,-1.2886,-1.2886,-1.2886,-1.4448,-1.6853,-1.8103,-1.9637,-2.1186,-2.1861,-2.2625,-2.3457,-2.4071,-2.4579,-2.4962,-2.5375,-2.5541,-2.5546,-2.5502,-2.536,-2.5016,-2.4629,-2.3988,-2.3347,-2.3156,-2.2746,-2.215,-2.2172,-2.22,-2.1899,-2.1323,-2.0942,-2.0345,-1.942,-1.8786,-1.9093,-1.7727,-1.7312,-1.7463,-1.6915,-1.6528,-1.6528,-1.6528,-1.6528,-1.6528,-1.6528,-1.6528,-1.6528,-1.6528,-1.6528,-1.6392,-1.5344,-1.4977,-1.4692,-1.3742,-1.2934,-1.2934,-1.2934,-1.2934,-1.2886,-1.2886,-1.2886,-1.2886,-1.2886,-1.2886,-1.2886,-1.2886,-1.2886,-1.2886,-1.2886,-1.2886,-1.2886,-1.3027,-1.32,-1.4288,-1.3291,-1.32,-1.352,-1.3253,-1.32,-1.3795,-1.3972,-1.3972,-1.3752,-1.434,-1.5248,-1.5788,-1.5964,-1.6107,-1.6485,-1.6528,-1.6528,-1.6528,-1.6528,-1.6528,-1.6528,-1.6528,-1.6485,-1.6485,-1.607,-1.5242,-1.4025,-1.3027,-1.2886,-1.2886,-1.2886,-1.2886,-1.2886,-1.2886,-1.2886,-1.2886,-1.2886,-1.2886,-1.2886,-1.2886,-1.2886,-1.2886,-1.2886,-1.2886,-1.4103,-1.6397,-1.7861,-1.9603,-2.136,-2.2043,-2.2898,-2.3823,-2.4302,-2.4751,-2.5168,-2.5463,-2.556,-2.556,-2.5514,-2.5182,-2.4654,-2.4155,-2.3599,-2.3115,-2.3061,-2.2513,-2.1944,-2.1936,-2.1756,-2.1352,-2.1118,-2.0765,-2.0058,-1.8986,-1.8574,-1.8938,-1.751,-1.6993,-1.7388,-1.7034,-1.6528,-1.6528,-1.6528,-1.6528,-1.6528,-1.6528,-1.6528,-1.6528,-1.6528,-1.6528,-1.6256,-1.5433,-1.488,-1.5326,-1.3967,-1.3339,-1.3205,-1.3435,-1.3113,-1.307,-1.2886,-1.2886,-1.2886,-1.2886,-1.2886,-1.2886,-1.2886,-1.2886,-1.2886,-1.2886,-1.2886,-1.2886,-1.3027,-1.3705,-1.57,-1.488,-1.4154,-1.4335,-1.3836,-1.4113,-1.4623,-1.4025,-1.4206,-1.4066,-1.4795,-1.575,-1.6163,-1.6386,-1.6436,-1.6528,-1.6528,-1.6528,-1.6528,-1.6528,-1.6528,-1.6528,-1.6528,-1.6528,-1.6528,-1.6343,-1.5472,-1.4387,-1.321,-1.3162,-1.3118,-1.2886,-1.2886,-1.2886,-1.2886,-1.2886,-1.2886,-1.2886,-1.2886,-1.2886,-1.2886,-1.2886,-1.2886,-1.2886,-1.2886,-1.3533,-1.6397,-1.7347,-1.9056,-2.1116,-2.246,-2.3206,-2.3674,-2.4431,-2.4911,-2.5208,-2.5432,-2.5507,-2.5488,-2.5445,-2.5012,-2.4388,-2.377,-2.3235,-2.2813,-2.2686,-2.2171,-2.1663,-2.1521,-2.1078,-2.0403,-2.046,-2.0626,-1.9951,-1.8948,-1.8366,-1.8145,-1.716,-1.6759,-1.6795,-1.6558,-1.6528,-1.6528,-1.6528,-1.6528,-1.6528,-1.6528,-1.6528,-1.6528,-1.6528,-1.6528,-1.625,-1.5383,-1.4749,-1.4795,-1.4566,-1.4387,-1.4571,-1.5242,-1.4658,-1.3344,-1.2886,-1.2886,-1.2886,-1.2886,-1.2886,-1.2886,-1.2886,-1.2886,-1.2886,-1.2886,-1.2886,-1.2886,-1.2978,-1.352,-1.4835,-1.5197,-1.5332,-1.5192,-1.5287,-1.5427,-1.5152,-1.5197,-1.4932,-1.4294,-1.5209,-1.612,-1.6349,-1.6528,-1.6528,-1.6528,-1.6528,-1.6528,-1.6528,-1.6528,-1.6528,-1.6528,-1.6528,-1.6528,-1.6528,-1.6343,-1.5882,-1.4795,-1.3894,-1.3758,-1.3573,-1.307,-1.2934,-1.3205,-1.307,-1.2886,-1.2886,-1.2886,-1.2886,-1.2886,-1.2886,-1.2886,-1.2886,-1.2886,-1.2886,-1.2462,-1.63,-1.6976,-1.8797,-2.1201,-2.2566,-2.3373,-2.39,-2.4681,-2.512,-2.5231,-2.5347,-2.537,-2.53,-2.5156,-2.4721,-2.4063,-2.315,-2.2659,-2.2362,-2.1891,-2.1417,-2.0975,-2.0927,-2.0244,-1.9713,-1.9904,-2.0043,-1.9528,-1.8629,-1.8256,-1.8178,-1.7194,-1.6644,-1.6808,-1.6674,-1.6528,-1.6528,-1.6528,-1.6528,-1.6528,-1.6528,-1.6528,-1.6528,-1.6528,-1.6528,-1.6293,-1.5332,-1.5062,-1.5293,-1.4438,-1.4612,-1.5377,-1.5832,-1.5433,-1.3435,-1.2886,-1.2886,-1.2886,-1.2886,-1.2886,-1.2886,-1.2886,-1.2886,-1.2886,-1.2886,-1.2886,-1.2886,-1.2929,-1.3104,-1.3747,-1.5478,-1.602,-1.5926,-1.6163,-1.6113,-1.5926,-1.6201,-1.5567,-1.4658,-1.5254,-1.5982,-1.6392,-1.6528,-1.6528,-1.6528,-1.6528,-1.6528,-1.6528,-1.6528,-1.6528,-1.6528,-1.6528,-1.6528,-1.6349,-1.5982,-1.575,-1.4795,-1.4438,-1.4299,-1.3758,-1.307,-1.3387,-1.3931,-1.361,-1.3162,-1.2886,-1.2886,-1.2886,-1.2886,-1.2886,-1.2886,-1.2886,-1.2886,-1.2886,-1.1361,-1.5727,-1.6557,-1.8702,-2.1456,-2.2598,-2.3451,-2.4239,-2.4963,-2.5237,-2.5215,-2.5246,-2.5208,-2.5023,-2.468,-2.4229,-2.3697,-2.2557,-2.2068,-2.1836,-2.1111,-2.0492,-2.021,-1.9986,-1.9576,-1.8691,-1.9236,-1.9185,-1.8781,-1.8178,-1.8217,-1.798,-1.707,-1.6674,-1.6873,-1.6631,-1.6522,-1.6528,-1.6528,-1.6528,-1.6528,-1.6528,-1.6528,-1.6528,-1.6528,-1.6528,-1.6386,-1.5338,-1.5287,-1.5332,-1.4749,-1.4165,-1.5788,-1.6337,-1.5338,-1.3387,-1.2934,-1.2886,-1.2886,-1.2886,-1.2886,-1.2886,-1.2886,-1.2978,-1.3065,-1.3065,-1.2886,-1.2886,-1.2934,-1.3382,-1.4206,-1.5433,-1.6293,-1.6436,-1.6436,-1.6485,-1.6392,-1.6436,-1.6436,-1.5938,-1.58,-1.5938,-1.6392,-1.6528,-1.6528,-1.6528,-1.6528,-1.6528,-1.6528,-1.6528,-1.6528,-1.6528,-1.6528,-1.6528,-1.6163,-1.5439,-1.5068,-1.4427,-1.4479,-1.4617,-1.38,-1.2934,-1.3525,-1.4113,-1.4066,-1.3663,-1.3301,-1.2934,-1.2886,-1.2886,-1.2886,-1.2886,-1.2886,-1.2886,-1.2886,-1.0498,-1.368,-1.5979,-1.8822,-2.1713,-2.2719,-2.3579,-2.4487,-2.5039,-2.5136,-2.4976,-2.5069,-2.4997,-2.4652,-2.3967,-2.3491,-2.2878,-2.2095,-2.1511,-2.1248,-2.0442,-1.984,-1.9713,-1.9677,-1.8806,-1.8013,-1.8566,-1.8605,-1.8178,-1.7632,-1.7476,-1.7388,-1.7028,-1.6558,-1.6637,-1.6558,-1.6528,-1.6528,-1.6528,-1.6528,-1.6528,-1.6528,-1.6528,-1.6528,-1.6528,-1.6528,-1.6349,-1.5427,-1.5152,-1.5594,-1.5022,-1.4617,-1.5068,-1.597,-1.5068,-1.371,-1.2886,-1.2886,-1.2886,-1.2886,-1.2886,-1.2886,-1.2886,-1.3152,-1.3425,-1.3152,-1.2886,-1.2886,-1.2886,-1.3847,-1.5209,-1.6163,-1.6528,-1.6528,-1.6528,-1.6528,-1.6528,-1.6528,-1.6528,-1.6485,-1.612,-1.6213,-1.6528,-1.6528,-1.6528,-1.6528,-1.6528,-1.6528,-1.6528,-1.6528,-1.6528,-1.6528,-1.6528,-1.6528,-1.5888,-1.5164,-1.4392,-1.3931,-1.4201,-1.4566,-1.4025,-1.3344,-1.3483,-1.3889,-1.3931,-1.3884,-1.3478,-1.3162,-1.2978,-1.2886,-1.2886,-1.2886,-1.2886,-1.2886,-1.2886,-0.707,-1.3235,-1.5142,-1.826,-2.188,-2.3427,-2.4304,-2.47,-2.4959,-2.501,-2.4813,-2.4417,-2.4143,-2.3792,-2.3266,-2.2682,-2.1993,-2.1228,-2.0481,-1.9951,-1.9207,-1.8679,-1.8639,-1.8447,-1.7767,-1.7659,-1.768,-1.7619,-1.7305,-1.7305,-1.7305,-1.7188,-1.6795,-1.6522,-1.6528,-1.6528,-1.6528,-1.6528,-1.6528,-1.6528,-1.6528,-1.6528,-1.6528,-1.6528,-1.6528,-1.6528,-1.625,-1.5383,-1.5248,-1.5694,-1.5293,-1.5119,-1.5611,-1.6157,-1.5882,-1.5197,-1.3563,-1.2973,-1.2886,-1.2934,-1.2886,-1.2934,-1.2978,-1.3296,-1.3836,-1.3568,-1.2978,-1.2886,-1.2886,-1.403,-1.58,-1.6442,-1.6528,-1.6528,-1.6528,-1.6528,-1.6528,-1.6528,-1.6528,-1.6528,-1.6528,-1.6528,-1.6528,-1.6528,-1.6528,-1.6528,-1.6528,-1.6528,-1.6528,-1.6528,-1.6528,-1.6528,-1.6528,-1.6528,-1.5662,-1.4846,-1.3847,-1.3344,-1.3344,-1.3705,-1.4066,-1.3884,-1.3752,-1.3478,-1.3339,-1.3339,-1.3339,-1.3205,-1.2934,-1.2886,-1.2886,-1.2886,-1.2886,-1.2886,-1.2886,-0.2739,-1.0243,-1.2979,-1.6747,-2.1042,-2.3518,-2.4786,-2.5078,-2.4647,-2.462,-2.4467,-2.3702,-2.3003,-2.272,-2.2374,-2.177,-2.0804,-2.037,-1.9657,-1.874,-1.7946,-1.7666,-1.7787,-1.7544,-1.7299,-1.7111,-1.736,-1.7111,-1.6873,-1.6831,-1.7028,-1.707,-1.6716,-1.6522,-1.6528,-1.6528,-1.6528,-1.6528,-1.6528,-1.6528,-1.6528,-1.6528,-1.6528,-1.6528,-1.6528,-1.6528,-1.6337,-1.5338,-1.5293,-1.6014,-1.5478,-1.535,-1.6207,-1.6386,-1.6436,-1.57,-1.4201,-1.343,-1.352,-1.352,-1.3022,-1.2978,-1.3339,-1.3836,-1.4392,-1.3936,-1.3248,-1.3022,-1.2886,-1.3894,-1.5164,-1.5932,-1.6528,-1.6528,-1.6528,-1.6528,-1.6528,-1.6528,-1.6528,-1.6528,-1.6528,-1.6528,-1.6528,-1.6528,-1.6528,-1.6528,-1.6528,-1.6528,-1.6528,-1.6528,-1.6528,-1.6528,-1.6528,-1.6485,-1.5888,-1.4841,-1.371,-1.2886,-1.2886,-1.3027,-1.3478,-1.3568,-1.343,-1.3157,-1.307,-1.3022,-1.3205,-1.307,-1.2886,-1.2886,-1.2886,-1.2886,-1.2886,-1.2886,-1.2886,0.2441,-0.2445,-0.8432,-1.3518,-1.8288,-2.2171,-2.4543,-2.5165,-2.4053,-2.3811,-2.3803,-2.2724,-2.1672,-2.1454,-2.1201,-2.0639,-1.9582,-1.9989,-1.9329,-1.8558,-1.7873,-1.7347,-1.7312,-1.7194,-1.7028,-1.6752,-1.6957,-1.6873,-1.6588,-1.6417,-1.6552,-1.6522,-1.6509,-1.6522,-1.6429,-1.6367,-1.6423,-1.6472,-1.6528,-1.6429,-1.6429,-1.6472,-1.6479,-1.6429,-1.6472,-1.6472,-1.6423,-1.5338,-1.5152,-1.6281,-1.5617,-1.5573,-1.6293,-1.6485,-1.6528,-1.6026,-1.4247,-1.3978,-1.4789,-1.3925,-1.307,-1.321,-1.3705,-1.4283,-1.4652,-1.5738,-1.5101,-1.361,-1.3663,-1.3483,-1.4299,-1.4932,-1.63,-1.6528,-1.6528,-1.6528,-1.6528,-1.6528,-1.6528,-1.6528,-1.6528,-1.6528,-1.6528,-1.6528,-1.6528,-1.6528,-1.6528,-1.6528,-1.6528,-1.6528,-1.6528,-1.6528,-1.6528,-1.6436,-1.6207,-1.5068,-1.3435,-1.2886,-1.2886,-1.2886,-1.3027,-1.307,-1.3157,-1.3478,-1.3478,-1.3253,-1.3027,-1.2934,-1.2886,-1.2886,-1.2886,-1.2886,-1.2886,-1.2886,-1.2886,0.9187,0.6589,0.2696,-0.433,-1.3576,-2.1531,-2.453,-2.3819,-2.3223,-2.223,-2.1326,-2.0621,-2.0246,-2.0063,-1.9683,-1.9243,-1.8534,-1.8257,-1.7947,-1.7518,-1.698,-1.6837,-1.6795,-1.6788,-1.6674,-1.6509,-1.6661,-1.6508,-1.5996,-1.5964,-1.5958,-1.6002,-1.6281,-1.6479,-1.6423,-1.6021,-1.6021,-1.638,-1.6429,-1.6324,-1.6051,-1.6324,-1.6331,-1.5952,-1.5937,-1.615,-1.625,-1.5293,-1.5377,-1.5605,-1.5439,-1.58,-1.6337,-1.6479,-1.6528,-1.6256,-1.4201,-1.4387,-1.5517,-1.4427,-1.3152,-1.3462,-1.392,-1.4288,-1.4606,-1.5782,-1.6064,-1.5389,-1.4983,-1.4801,-1.5344,-1.5982,-1.6528,-1.6528,-1.6528,-1.6528,-1.6528,-1.6528,-1.6528,-1.6528,-1.6528,-1.6528,-1.6528,-1.6528,-1.6528,-1.6528,-1.6528,-1.6528,-1.6528,-1.6528,-1.6528,-1.6528,-1.6528,-1.63,-1.6107,-1.4658,-1.3027,-1.2886,-1.2886,-1.2886,-1.2886,-1.2934,-1.307,-1.3525,-1.3795,-1.3568,-1.3296,-1.3027,-1.2886,-1.2886,-1.2886,-1.2886,-1.2886,-1.2886,-1.2886,1.5809,1.4237,1.3202,0.5914,-0.5571,-1.4377,-1.8308,-1.9031,-2.1228,-2.0607,-1.8281,-1.8493,-1.856,-1.833,-1.8009,-1.7429,-1.7053,-1.6836,-1.6587,-1.6372,-1.6269,-1.6244,-1.6244,-1.6194,-1.6095,-1.6058,-1.5926,-1.565,-1.5371,-1.5326,-1.5326,-1.5505,-1.5914,-1.6151,-1.5996,-1.5413,-1.5312,-1.5996,-1.5976,-1.5826,-1.5416,-1.5236,-1.5738,-1.5416,-1.5463,-1.5608,-1.5706,-1.5101,-1.4732,-1.5011,-1.5158,-1.5484,-1.6076,-1.6528,-1.6528,-1.5712,-1.4755,-1.416,-1.5158,-1.4468,-1.3195,-1.3329,-1.3967,-1.4154,-1.4468,-1.5517,-1.625,-1.6349,-1.6349,-1.6491,-1.6497,-1.6528,-1.6528,-1.6528,-1.6528,-1.6528,-1.6528,-1.6528,-1.6528,-1.6528,-1.6528,-1.6528,-1.6528,-1.6528,-1.6528,-1.6528,-1.6528,-1.6528,-1.6528,-1.6528,-1.6528,-1.6528,-1.6528,-1.625,-1.5876,-1.5017,-1.416,-1.2886,-1.2886,-1.2886,-1.2886,-1.2886,-1.2934,-1.3157,-1.343,-1.3652,-1.3568,-1.3205,-1.3022,-1.2886,-1.2886,-1.2886,-1.2886,-1.2886,-1.2886,2.1893,1.9831,2.1249,1.5727,0.6095,0.1442,-0.3711,-0.9911,-1.6841,-1.8538,-1.6053,-1.669,-1.6797,-1.6386,-1.6187,-1.5672,-1.5263,-1.553,-1.5591,-1.544,-1.5217,-1.5431,-1.5594,-1.5505,-1.5365,-1.4875,-1.4926,-1.5017,-1.4744,-1.4738,-1.4692,-1.4829,-1.5186,-1.5594,-1.5487,-1.4446,-1.4492,-1.5353,-1.5062,-1.4744,-1.456,-1.3931,-1.4288,-1.492,-1.4932,-1.5,-1.5203,-1.4595,-1.4324,-1.456,-1.4422,-1.4835,-1.57,-1.6293,-1.6479,-1.6306,-1.4206,-1.4201,-1.602,-1.4066,-1.3243,-1.3243,-1.392,-1.4236,-1.3884,-1.4937,-1.6436,-1.6386,-1.6528,-1.6529,-1.6516,-1.6491,-1.6497,-1.6528,-1.6528,-1.6528,-1.6528,-1.6528,-1.6528,-1.6528,-1.6528,-1.6528,-1.6528,-1.6528,-1.6528,-1.6528,-1.6528,-1.6528,-1.6528,-1.6528,-1.6528,-1.6528,-1.6485,-1.5932,-1.57,-1.592,-1.5197,-1.38,-1.2886,-1.2886,-1.2886,-1.2886,-1.2929,-1.2925,-1.306,-1.3339,-1.343,-1.3382,-1.3162,-1.2886,-1.2886,-1.2886,-1.2886,-1.2886,-1.2886,2.3908,2.3082,2.2785,2.1147,1.8382,1.6131,0.8795,-0.1906,-0.9163,-1.3508,-1.5023,-1.5302,-1.5225,-1.4931,-1.4314,-1.3927,-1.3886,-1.2488,-1.2707,-1.422,-1.3843,-1.4019,-1.4242,-1.4505,-1.4527,-1.4291,-1.4348,-1.4324,-1.4097,-1.4039,-1.405,-1.419,-1.4307,-1.4863,-1.5084,-1.4544,-1.4277,-1.4652,-1.416,-1.3658,-1.3925,-1.3382,-1.3377,-1.4411,-1.4257,-1.4397,-1.4926,-1.4097,-1.3915,-1.4149,-1.3967,-1.4329,-1.4789,-1.5203,-1.638,-1.5976,-1.434,-1.4066,-1.5203,-1.4474,-1.3243,-1.3462,-1.3821,-1.4509,-1.5197,-1.5022,-1.575,-1.6293,-1.6485,-1.6516,-1.651,-1.6529,-1.6517,-1.6497,-1.6528,-1.6528,-1.6528,-1.6528,-1.6528,-1.6528,-1.6528,-1.6528,-1.6528,-1.6479,-1.6479,-1.6429,-1.6429,-1.6485,-1.6528,-1.6528,-1.6528,-1.6528,-1.6392,-1.5756,-1.5389,-1.5158,-1.4789,-1.3478,-1.2886,-1.2886,-1.2886,-1.2886,-1.2886,-1.2929,-1.2929,-1.2973,-1.3113,-1.3157,-1.307,-1.2886,-1.2886,-1.2886,-1.2886,-1.2886,-1.2886,2.4953,2.4788,2.3817,2.3602,2.3865,2.2833,1.4943,0.3488,-0.3241,-0.7682,-1.0008,-1.2524,-1.4209,-1.3815,-1.2983,-1.1832,-1.196,-1.1051,-1.061,-1.22,-1.1815,-1.2031,-1.2608,-1.3092,-1.2811,-1.2921,-1.3285,-1.3406,-1.3034,-1.3082,-1.3226,-1.3321,-1.3283,-1.3836,-1.4209,-1.4055,-1.3737,-1.3972,-1.3557,-1.3152,-1.3286,-1.3195,-1.3185,-1.3626,-1.3725,-1.3762,-1.4046,-1.392,-1.3505,-1.3652,-1.37,-1.3742,-1.3705,-1.4206,-1.5694,-1.5472,-1.4566,-1.3978,-1.416,-1.4066,-1.3104,-1.3324,-1.3774,-1.4646,-1.57,-1.5567,-1.5882,-1.6287,-1.6485,-1.6502,-1.6497,-1.652,-1.6504,-1.6534,-1.6528,-1.6528,-1.6528,-1.6528,-1.6528,-1.6528,-1.6528,-1.6528,-1.6485,-1.6436,-1.6429,-1.638,-1.6331,-1.6392,-1.6454,-1.6534,-1.6534,-1.6528,-1.6343,-1.5794,-1.4886,-1.3983,-1.3525,-1.3027,-1.2886,-1.2886,-1.2886,-1.2886,-1.2886,-1.2886,-1.2934,-1.2929,-1.2934,-1.2886,-1.2886,-1.2886,-1.2886,-1.2886,-1.2886,-1.2886,-1.2886,2.5368,2.494,2.4873,2.3954,2.266,2.1942,1.5808,0.6512,0.1209,-0.0718,-0.0728,-0.9929,-1.2199,-1.2124,-1.1469,-1.0585,-0.9467,-0.95,-0.9358,-0.9518,-0.9496,-0.9981,-1.0469,-1.0889,-1.1072,-1.1123,-1.1499,-1.2146,-1.1819,-1.1958,-1.2239,-1.2483,-1.2297,-1.2827,-1.3231,-1.3409,-1.3324,-1.342,-1.3286,-1.2968,-1.3022,-1.2978,-1.3147,-1.3392,-1.3354,-1.3364,-1.3467,-1.3334,-1.3065,-1.3022,-1.3027,-1.2978,-1.2934,-1.2934,-1.4427,-1.4926,-1.3842,-1.3435,-1.3253,-1.2973,-1.2973,-1.32,-1.3972,-1.4474,-1.4971,-1.5611,-1.6207,-1.6386,-1.651,-1.6499,-1.6508,-1.651,-1.6504,-1.6528,-1.6528,-1.6528,-1.6528,-1.6528,-1.6528,-1.6528,-1.6528,-1.6528,-1.6528,-1.6479,-1.6337,-1.602,-1.5994,-1.6003,-1.6136,-1.6497,-1.6491,-1.6528,-1.63,-1.5882,-1.488,-1.371,-1.3162,-1.2886,-1.2886,-1.2886,-1.2886,-1.2886,-1.2886,-1.2886,-1.2886,-1.2886,-1.2886,-1.2886,-1.2886,-1.2886,-1.2886,-1.2886,-1.2886,-1.2886,-1.2886,2.5134,2.5133,2.4578,2.4048,2.3339,2.1306,1.7269,1.2448,0.962,0.6985,0.2715,-0.2022,-0.5209,-0.6713,-0.7495,-0.858,-0.8695,-0.824,-0.7209,-0.7114,-0.743,-0.7924,-0.8557,-0.9233,-0.9475,-0.9857,-1.0336,-1.1011,-1.1065,-1.1061,-1.1116,-1.1312,-1.1562,-1.2003,-1.2365,-1.2696,-1.29,-1.3055,-1.2915,-1.2929,-1.2886,-1.2886,-1.3109,-1.306,-1.306,-1.3113,-1.3065,-1.3065,-1.2886,-1.2886,-1.2886,-1.2886,-1.2886,-1.2886,-1.3568,-1.3652,-1.3157,-1.2934,-1.2886,-1.2886,-1.2886,-1.3022,-1.3652,-1.4014,-1.4601,-1.5377,-1.63,-1.6436,-1.6485,-1.6493,-1.6505,-1.6529,-1.6528,-1.6528,-1.6528,-1.6528,-1.6442,-1.625,-1.63,-1.6528,-1.6528,-1.6528,-1.6528,-1.6485,-1.6343,-1.5882,-1.5608,-1.5619,-1.5553,-1.5772,-1.6175,-1.6163,-1.6163,-1.5744,-1.4841,-1.3705,-1.3253,-1.2886,-1.2934,-1.2934,-1.2886,-1.2886,-1.2886,-1.2886,-1.2886,-1.2886,-1.2886,-1.2886,-1.2886,-1.2886,-1.2886,-1.2886,-1.2886,-1.2886,-1.2886,2.5062,2.4879,2.4439,2.3984,2.3235,2.1361,1.8986,1.6553,1.4036,1.0466,0.7154,0.5056,0.2369,-0.0891,-0.2836,-0.4298,-0.4934,-0.5584,-0.5469,-0.5588,-0.5575,-0.6002,-0.6686,-0.7256,-0.7588,-0.8184,-0.9093,-0.9875,-1.0037,-1.0312,-1.0419,-1.047,-1.0868,-1.1316,-1.172,-1.1985,-1.2143,-1.2452,-1.2662,-1.2832,-1.2886,-1.2886,-1.2886,-1.2886,-1.2886,-1.2886,-1.2886,-1.2886,-1.2886,-1.2886,-1.2886,-1.2886,-1.2886,-1.2886,-1.2886,-1.3065,-1.2978,-1.2886,-1.2886,-1.2886,-1.2886,-1.2978,-1.3243,-1.3425,-1.4019,-1.4749,-1.5706,-1.6293,-1.6436,-1.6516,-1.6504,-1.6528,-1.6528,-1.6528,-1.6528,-1.6528,-1.63,-1.602,-1.6157,-1.6436,-1.6528,-1.6528,-1.6528,-1.6485,-1.6331,-1.5846,-1.5365,-1.508,-1.4706,-1.4348,-1.4988,-1.5338,-1.5567,-1.5567,-1.4658,-1.3884,-1.352,-1.3205,-1.3027,-1.2978,-1.2934,-1.2886,-1.2886,-1.2886,-1.2886,-1.2886,-1.2886,-1.2886,-1.2886,-1.2886,-1.2886,-1.2886,-1.2886,-1.2886,-1.2886,2.5087,2.4477,2.4379,2.3778,2.2753,2.1843,2.0687,1.9055,1.5215,1.2639,1.1531,1.0931,0.8044,0.4338,0.1832,0.0707,-0.0711,-0.215,-0.3335,-0.4093,-0.407,-0.4275,-0.4428,-0.459,-0.5783,-0.6714,-0.7626,-0.8515,-0.8842,-0.9277,-0.9714,-0.9718,-0.9917,-1.0419,-1.117,-1.122,-1.1375,-1.1729,-1.2147,-1.2417,-1.2671,-1.2827,-1.2886,-1.2886,-1.2886,-1.2886,-1.2886,-1.2886,-1.2886,-1.2886,-1.2886,-1.2886,-1.2886,-1.2886,-1.2886,-1.2886,-1.2886,-1.2886,-1.2886,-1.2886,-1.2886,-1.2886,-1.2934,-1.3022,-1.352,-1.3931,-1.4789,-1.5522,-1.5662,-1.6306,-1.6528,-1.6528,-1.6528,-1.6528,-1.6528,-1.6528,-1.6392,-1.607,-1.5888,-1.6163,-1.6337,-1.6337,-1.6293,-1.6207,-1.5738,-1.5502,-1.5652,-1.522,-1.415,-1.3465,-1.381,-1.4566,-1.4835,-1.5062,-1.4829,-1.4149,-1.3878,-1.3563,-1.32,-1.3022,-1.2934,-1.2886,-1.2886,-1.2886,-1.2886,-1.2886,-1.2886,-1.2886,-1.2886,-1.2886,-1.2886,-1.2886,-1.293,-1.311,-1.3018,2.5178,2.4879,2.4329,2.378,2.3209,2.2347,2.1624,2.0775,1.7443,1.5124,1.3728,1.2086,1.0439,0.8244,0.5877,0.4319,0.1922,0.0829,-0.0222,-0.1224,-0.1836,-0.2562,-0.3002,-0.3775,-0.4546,-0.5196,-0.6056,-0.7143,-0.7966,-0.8567,-0.9054,-0.9054,-0.9305,-0.9957,-1.0305,-1.0356,-1.0653,-1.1015,-1.122,-1.1633,-1.1936,-1.2569,-1.2886,-1.2886,-1.2832,-1.2832,-1.2881,-1.2881,-1.2886,-1.2886,-1.2886,-1.2886,-1.2886,-1.2886,-1.2886,-1.2886,-1.2886,-1.2886,-1.2886,-1.2886,-1.2886,-1.2886,-1.2886,-1.2886,-1.3022,-1.32,-1.3658,-1.434,-1.5028,-1.58,-1.6392,-1.6392,-1.6528,-1.6528,-1.63,-1.63,-1.6349,-1.6113,-1.5706,-1.5744,-1.6014,-1.597,-1.5876,-1.5605,-1.5186,-1.541,-1.6051,-1.5722,-1.4059,-1.3114,-1.3122,-1.3705,-1.4102,-1.4283,-1.4329,-1.4329,-1.3972,-1.3563,-1.3157,-1.3022,-1.2934,-1.2886,-1.2886,-1.2886,-1.2886,-1.2886,-1.2886,-1.2886,-1.2886,-1.2974,-1.2969,-1.3003,-1.3579,-1.3892,-1.356,2.5264,2.5088,2.434,2.3701,2.3136,2.2425,2.1915,2.1287,1.9534,1.7545,1.5358,1.2969,1.1219,1.0502,0.8823,0.662,0.4109,0.3169,0.2509,0.1726,0.0166,-0.0835,-0.178,-0.2727,-0.317,-0.3717,-0.4809,-0.5903,-0.7069,-0.7833,-0.8262,-0.8096,-0.8554,-0.9023,-0.9225,-0.9526,-0.9839,-1.0316,-1.0309,-1.0559,-1.1061,-1.1787,-1.2152,-1.2152,-1.2466,-1.2569,-1.2613,-1.2666,-1.2886,-1.2886,-1.2886,-1.2886,-1.2886,-1.2886,-1.2886,-1.2886,-1.2886,-1.2886,-1.2886,-1.2886,-1.2886,-1.2886,-1.2886,-1.2886,-1.2886,-1.3065,-1.3065,-1.3663,-1.3747,-1.4433,-1.5068,-1.5203,-1.612,-1.6528,-1.5344,-1.4566,-1.5293,-1.5832,-1.4971,-1.4154,-1.4288,-1.4335,-1.4247,-1.4154,-1.4145,-1.5822,-1.6441,-1.5598,-1.3994,-1.3259,-1.3152,-1.2978,-1.3472,-1.392,-1.4143,-1.4154,-1.4025,-1.3568,-1.3109,-1.2973,-1.2886,-1.2886,-1.2886,-1.2886,-1.2886,-1.2886,-1.2886,-1.2886,-1.3145,-1.3335,-1.3247,-1.3145,-1.3862,-1.4585,-1.4394,2.5303,2.5183,2.434,2.3524,2.282,2.2334,2.196,2.1604,2.1022,1.9444,1.7057,1.3994,1.2111,1.1006,1.0375,0.843,0.6868,0.5716,0.5162,0.3619,0.183,0.0888,-0.0111,-0.1116,-0.1672,-0.2614,-0.3822,-0.4978,-0.6195,-0.6899,-0.7171,-0.6802,-0.723,-0.7868,-0.8119,-0.8231,-0.8405,-0.9183,-0.9496,-0.9658,-1.0214,-1.0914,-1.117,-1.1529,-1.1841,-1.225,-1.2187,-1.2398,-1.2827,-1.2886,-1.2886,-1.2886,-1.2886,-1.2886,-1.2886,-1.2886,-1.2886,-1.2886,-1.2886,-1.2886,-1.2886,-1.2886,-1.2886,-1.2886,-1.2886,-1.2886,-1.2886,-1.2934,-1.3022,-1.3248,-1.3884,-1.4387,-1.5389,-1.607,-1.4612,-1.352,-1.456,-1.5281,-1.4149,-1.3017,-1.3065,-1.3109,-1.3017,-1.2925,-1.3815,-1.5556,-1.5751,-1.4832,-1.4124,-1.4121,-1.4063,-1.3392,-1.3113,-1.352,-1.3831,-1.4014,-1.3936,-1.3568,-1.3157,-1.3022,-1.2886,-1.2886,-1.2886,-1.2886,-1.2886,-1.2886,-1.2886,-1.2886,-1.3203,-1.3584,-1.3628,-1.3652,-1.4473,-1.5078,-1.522,2.5303,2.5205,2.4248,2.3283,2.2473,2.2289,2.2229,2.1924,2.0727,1.9566,1.8446,1.6789,1.4546,1.1598,1.0916,0.9792,0.8985,0.7979,0.6161,0.4373,0.3509,0.2704,0.1666,0.0334,-0.0223,-0.1335,-0.2774,-0.438,-0.5039,-0.5797,-0.6401,-0.6475,-0.6586,-0.6907,-0.7015,-0.7235,-0.7717,-0.8293,-0.8728,-0.8949,-0.9361,-1.0064,-1.0767,-1.0973,-1.1023,-1.1425,-1.1828,-1.2505,-1.2779,-1.2886,-1.2886,-1.2886,-1.2886,-1.2886,-1.2886,-1.2886,-1.2886,-1.2886,-1.2886,-1.2886,-1.2886,-1.2886,-1.2886,-1.2886,-1.2886,-1.2886,-1.2886,-1.2886,-1.2978,-1.2978,-1.3344,-1.3344,-1.403,-1.4886,-1.4335,-1.4201,-1.4612,-1.4201,-1.3334,-1.3022,-1.3022,-1.3022,-1.2978,-1.2929,-1.2983,-1.4132,-1.4137,-1.3568,-1.4729,-1.4829,-1.4709,-1.3889,-1.2983,-1.2934,-1.3162,-1.3742,-1.3789,-1.3425,-1.3157,-1.3027,-1.2886,-1.2886,-1.2886,-1.2886,-1.2886,-1.2886,-1.2886,-1.2891,-1.3296,-1.3662,-1.3863,-1.4233,-1.5029,-1.5415,-1.5415]}]]